[[{"header":{"parameterUnit":"m.s-1","parameterCategory":1,"la1":31.0,"la2":29.5877,"lo1":-88.7671,"lo2":-86.6584,"dy":0.0162,"dx":0.0185,"nx":115,"ny":88,"refTime":"2024-04-27T18:00:00:Z","depth":0,"parameterNumber":2,"parameterNumberName":"U-component_of_WINDS"},"data":[0.0,0.0,0.0,0.0,0.0,0.0,0.0,0.0,0.0,0.0,0.0,0.0,0.0,0.0,0.0,0.0,0.0,0.0,0.0,0.0,0.0,0.0,0.0,0.0,0.0,0.0,0.0,0.0,0.0,0.0,0.0,0.0,0.0,0.0,0.0,0.0,0.0,0.0,0.0,0.0,0.0,0.0,0.0,0.0,0.0,0.0,0.0,0.0,0.0,0.0,0.0,0.0,0.0,0.0,0.0,0.0,0.0,0.0,0.0,0.0,0.0,0.0,0.0,0.0,0.0,0.0,0.0,0.0,0.0,0.0,0.0,0.0,0.0,0.0,0.0,0.0,0.0,0.0,0.0,0.0,0.0,0.0,0.0,0.0,0.0,0.0,0.0,0.0,0.0,0.0,0.0,0.0,0.0,0.0,0.0,0.0,0.0,0.0,0.0,0.0,0.0,0.0,0.0,0.0,0.0,0.0,0.0,0.0,0.0,0.0,0.0,0.0,0.0,0.0,0.0,0.0,0.0,0.0,0.0,0.0,0.0,0.0,0.0,0.0,0.0,0.0,0.0,0.0,0.0,0.0,0.0,0.0,0.0,0.0,0.0,0.0,0.0,0.0,0.0,0.0,0.0,0.0,0.0,0.0,0.0,0.0,0.0,0.0,0.0,0.0,0.0,0.0,0.0,0.0,0.0,0.0,0.0,0.0,0.0,0.0,0.0,0.0,0.0,0.0,0.0,0.0,0.0,0.0,0.0,0.0,0.0,0.0,0.0,0.0,0.0,0.0,0.0,0.0,0.0,0.0,0.0,0.0,0.0,0.0,0.0,0.0,0.0,0.0,0.0,0.0,0.0,0.0,0.0,0.0,0.0,0.0,0.0,0.0,0.0,0.0,0.0,0.0,0.0,0.0,0.0,0.0,0.0,0.0,0.0,0.0,0.0,0.0,0.0,0.0,0.0,0.0,0.0,0.0,0.0,0.0,0.0,0.0,0.0,0.0,0.0,0.0,0.0,0.0,0.0,0.0,0.0,0.0,0.0,0.0,0.0,0.0,0.0,0.0,0.0,0.0,0.0,0.0,0.0,0.0,0.0,0.0,0.0,0.0,0.0,0.0,0.0,0.0,0.0,0.0,0.0,0.0,0.0,0.0,0.0,0.0,0.0,0.0,0.0,0.0,0.0,0.0,0.0,0.0,0.0,0.0,0.0,0.0,0.0,0.0,0.0,0.0,0.0,0.0,0.0,0.0,0.0,0.0,0.0,0.0,0.0,0.0,0.0,0.0,0.0,0.0,0.0,0.0,0.0,0.0,0.0,0.0,0.0,0.0,0.0,0.0,0.0,0.0,0.0,0.0,0.0,0.0,0.0,0.0,0.0,0.0,0.0,0.0,0.0,0.0,0.0,0.0,0.0,0.0,0.0,0.0,0.0,0.0,0.0,0.0,0.0,0.0,0.0,0.0,0.0,0.0,0.0,0.0,0.0,0.0,0.0,0.0,0.0,0.0,0.0,0.0,0.0,0.0,0.0,0.0,0.0,0.0,0.0,0.0,0.0,0.0,0.0,0.0,0.0,0.0,0.0,0.0,0.0,0.0,0.0,0.0,0.0,0.0,0.0,0.0,0.0,0.0,0.0,0.0,0.0,0.0,0.0,0.0,0.0,0.0,0.0,0.0,0.0,0.0,0.0,0.0,0.0,0.0,0.0,0.0,0.0,0.0,0.0,0.0,0.0,0.0,0.0,0.0,0.0,0.0,0.0,0.0,0.0,0.0,0.0,0.0,0.0,0.0,0.0,0.0,0.0,0.0,0.0,0.0,0.0,0.0,0.0,0.0,0.0,0.0,0.0,0.0,0.0,0.0,0.0,0.0,0.0,0.0,0.0,0.0,0.0,0.0,0.0,0.0,0.0,0.0,0.0,0.0,0.0,0.0,0.0,0.0,0.0,0.0,0.0,0.0,0.0,0.0,0.0,0.0,0.0,0.0,0.0,0.0,0.0,0.0,0.0,0.0,0.0,0.0,0.0,0.0,0.0,0.0,0.0,0.0,0.0,0.0,0.0,0.0,0.0,0.0,0.0,0.0,0.0,0.0,0.0,0.0,0.0,0.0,0.0,0.0,0.0,0.0,0.0,0.0,0.0,0.0,0.0,0.0,0.0,0.0,0.0,0.0,0.0,0.0,0.0,0.0,0.0,0.0,0.0,0.0,0.0,0.0,0.0,0.0,0.0,0.0,0.0,0.0,0.0,0.0,0.0,0.0,0.0,0.0,0.0,0.0,0.0,0.0,0.0,0.0,0.0,0.0,0.0,0.0,0.0,0.0,0.0,0.0,0.0,0.0,0.0,0.0,0.0,0.0,0.0,0.0,0.0,0.0,0.0,0.0,0.0,0.0,0.0,0.0,0.0,0.0,0.0,0.0,0.0,0.0,0.0,0.0,0.0,0.0,0.0,0.0,0.0,0.0,0.0,0.0,0.0,0.0,0.0,0.0,0.0,0.0,0.0,0.0,0.0,0.0,0.0,0.0,0.0,0.0,0.0,0.0,0.0,0.0,0.0,0.0,0.0,0.0,0.0,0.0,0.0,0.0,0.0,0.0,0.0,0.0,0.0,0.0,0.0,0.0,0.0,0.0,0.0,0.0,0.0,0.0,0.0,0.0,0.0,0.0,0.0,0.0,0.0,0.0,0.0,0.0,0.0,0.0,0.0,0.0,0.0,0.0,0.0,0.0,0.0,0.0,0.0,0.0,0.0,0.0,0.0,0.0,0.0,0.0,0.0,0.0,0.0,0.0,0.0,0.0,0.0,0.0,0.0,0.0,0.0,0.0,0.0,0.0,0.0,0.0,0.0,0.0,0.0,0.0,0.0,0.0,0.0,0.0,0.0,0.0,0.0,0.0,0.0,0.0,0.0,0.0,0.0,0.0,0.0,0.0,0.0,0.0,0.0,0.0,0.0,0.0,0.0,0.0,0.0,0.0,0.0,0.0,0.0,0.0,0.0,0.0,0.0,0.0,0.0,0.0,0.0,0.0,0.0,0.0,0.0,0.0,0.0,0.0,0.0,0.0,0.0,0.0,0.0,0.0,0.0,0.0,0.0,0.0,0.0,0.0,0.0,0.0,0.0,0.0,0.0,0.0,0.0,0.0,0.0,0.0,0.0,0.0,0.0,0.0,0.0,0.0,0.0,0.0,0.0,0.0,0.0,0.0,0.0,0.0,0.0,0.0,0.0,0.0,0.0,0.0,0.0,0.0,0.0,0.0,0.0,0.0,0.0,0.0,0.0,0.0,0.0,0.0,0.0,0.0,0.0,0.0,0.0,0.0,0.0,0.0,0.0,0.0,0.0,0.0,0.0,0.0,0.0,0.0,0.0,0.0,0.0,0.0,0.0,0.0,0.0,0.0,0.0,0.0,0.0,0.0,0.0,0.0,0.0,0.0,0.0,0.0,0.0,0.0,0.0,0.0,0.0,0.0,0.0,0.0,0.0,0.0,0.0,0.0,0.0,0.0,0.0,0.0,0.0,0.0,0.0,0.0,0.0,0.0,0.0,0.0,0.0,0.0,0.0,0.0,0.0,0.0,0.0,0.0,0.0,0.0,0.0,0.0,0.0,0.0,0.0,0.0,0.0,0.0,0.0,0.0,0.0,0.0,0.0,0.0,0.0,0.0,0.0,0.0,0.0,0.0,0.0,0.0,0.0,0.0,0.0,0.0,0.0,0.0,0.0,0.0,0.0,0.0,0.0,0.0,0.0,0.0,0.0,0.0,0.0,0.0,0.0,0.0,0.0,0.0,0.0,0.0,0.0,0.0,0.0,0.0,0.0,0.0,0.0,0.0,0.0,0.0,0.0,0.0,0.0,0.0,0.0,0.0,0.0,0.0,0.0,0.0,0.0,0.0,0.0,0.0,0.0,0.0,0.0,0.0,0.0,0.0,0.0,0.0,0.0,0.0,0.0,0.0,0.0,0.0,0.0,0.0,0.0,0.0,0.0,0.0,0.0,0.0,0.0,0.0,0.0,0.0,0.0,0.0,0.0,0.0,0.0,0.0,0.0,0.0,0.0,0.0,0.0,0.0,0.0,0.0,0.0,0.0,0.0,0.0,0.0,0.0,0.0,0.0,0.0,0.0,0.0,0.0,0.0,0.0,0.0,0.0,0.0,0.0,0.0,0.0,0.0,0.0,0.0,0.0,0.0,0.0,0.0,0.0,0.0,0.0,0.0,0.0,0.0,0.0,0.0,0.0,0.0,0.0,0.0,0.0,0.0,0.0,0.0,0.0,0.0,0.0,-3.334,0.0,0.0,0.0,0.0,0.0,0.0,0.0,0.0,0.0,0.0,0.0,0.0,0.0,0.0,0.0,0.0,0.0,0.0,0.0,0.0,0.0,0.0,0.0,0.0,0.0,0.0,0.0,0.0,0.0,0.0,0.0,0.0,0.0,0.0,0.0,0.0,0.0,0.0,0.0,0.0,0.0,0.0,0.0,0.0,0.0,0.0,0.0,0.0,0.0,0.0,0.0,0.0,0.0,0.0,0.0,0.0,0.0,0.0,0.0,0.0,0.0,0.0,0.0,0.0,0.0,0.0,0.0,0.0,0.0,0.0,0.0,0.0,0.0,0.0,0.0,0.0,0.0,0.0,0.0,0.0,0.0,0.0,0.0,0.0,0.0,0.0,0.0,0.0,0.0,0.0,0.0,0.0,0.0,0.0,0.0,0.0,0.0,0.0,0.0,0.0,0.0,0.0,0.0,0.0,0.0,0.0,0.0,0.0,0.0,0.0,-3.3309,-3.3309,-3.3309,-3.3309,-3.3309,0.0,0.0,0.0,0.0,0.0,0.0,0.0,0.0,0.0,0.0,0.0,0.0,0.0,0.0,0.0,0.0,0.0,0.0,0.0,0.0,0.0,0.0,0.0,0.0,0.0,0.0,0.0,0.0,0.0,0.0,0.0,0.0,0.0,0.0,0.0,0.0,0.0,0.0,0.0,0.0,0.0,0.0,0.0,0.0,0.0,0.0,0.0,0.0,0.0,0.0,0.0,0.0,0.0,0.0,0.0,0.0,0.0,0.0,0.0,0.0,0.0,0.0,0.0,0.0,0.0,0.0,0.0,0.0,0.0,0.0,0.0,0.0,0.0,0.0,0.0,0.0,0.0,0.0,0.0,0.0,0.0,0.0,0.0,0.0,0.0,0.0,0.0,0.0,0.0,0.0,0.0,0.0,0.0,0.0,0.0,0.0,0.0,0.0,0.0,0.0,0.0,0.0,0.0,0.0,0.0,0.0,0.0,0.0,0.0,0.0,0.0,0.0,-3.3309,-3.3372,-3.353,0.0,0.0,0.0,0.0,0.0,0.0,0.0,0.0,0.0,0.0,0.0,0.0,0.0,0.0,0.0,0.0,0.0,0.0,0.0,0.0,0.0,0.0,0.0,0.0,0.0,0.0,0.0,0.0,0.0,0.0,0.0,0.0,0.0,0.0,0.0,0.0,0.0,0.0,0.0,0.0,0.0,0.0,0.0,0.0,0.0,0.0,0.0,0.0,0.0,0.0,0.0,0.0,0.0,0.0,0.0,0.0,0.0,0.0,0.0,0.0,0.0,0.0,0.0,0.0,0.0,0.0,0.0,0.0,0.0,0.0,0.0,0.0,0.0,0.0,0.0,0.0,0.0,0.0,0.0,0.0,0.0,0.0,0.0,0.0,0.0,0.0,0.0,0.0,0.0,0.0,0.0,0.0,0.0,0.0,0.0,0.0,0.0,0.0,0.0,0.0,0.0,0.0,0.0,0.0,0.0,0.0,0.0,0.0,0.0,0.0,-3.3909,-3.3309,-3.3309,0.0,-3.413,0.0,0.0,0.0,0.0,0.0,0.0,0.0,0.0,0.0,0.0,0.0,0.0,0.0,0.0,0.0,0.0,0.0,0.0,0.0,0.0,0.0,0.0,0.0,0.0,0.0,0.0,0.0,0.0,0.0,0.0,0.0,0.0,0.0,0.0,0.0,0.0,0.0,0.0,0.0,0.0,0.0,0.0,0.0,0.0,0.0,0.0,0.0,0.0,0.0,0.0,0.0,0.0,0.0,0.0,0.0,0.0,0.0,0.0,0.0,0.0,0.0,0.0,0.0,0.0,0.0,0.0,0.0,0.0,0.0,0.0,0.0,0.0,0.0,0.0,0.0,0.0,0.0,0.0,0.0,0.0,0.0,0.0,0.0,0.0,0.0,0.0,0.0,0.0,0.0,0.0,0.0,0.0,0.0,0.0,0.0,0.0,0.0,0.0,0.0,0.0,0.0,0.0,0.0,0.0,0.0,0.0,0.0,0.0,0.0,0.0,-3.4822,-3.4541,-3.413,-3.4004,0.0,0.0,0.0,0.0,0.0,0.0,0.0,0.0,0.0,0.0,0.0,0.0,0.0,0.0,0.0,0.0,0.0,0.0,0.0,0.0,0.0,0.0,0.0,0.0,0.0,0.0,0.0,0.0,0.0,0.0,0.0,0.0,0.0,0.0,0.0,0.0,0.0,0.0,0.0,0.0,0.0,0.0,0.0,0.0,0.0,0.0,0.0,0.0,0.0,0.0,0.0,0.0,0.0,0.0,0.0,0.0,0.0,0.0,0.0,0.0,0.0,0.0,0.0,0.0,0.0,0.0,0.0,0.0,0.0,0.0,0.0,0.0,0.0,0.0,0.0,0.0,0.0,0.0,0.0,0.0,0.0,0.0,0.0,0.0,0.0,0.0,0.0,0.0,0.0,0.0,0.0,0.0,0.0,0.0,0.0,0.0,0.0,0.0,0.0,0.0,0.0,0.0,0.0,0.0,0.0,0.0,0.0,0.0,0.0,0.0,-3.6042,-3.564,-3.5422,-3.4889,-3.451,-3.4288,0.0,0.0,0.0,0.0,0.0,0.0,0.0,0.0,0.0,0.0,0.0,0.0,0.0,0.0,0.0,0.0,0.0,0.0,0.0,0.0,0.0,0.0,0.0,0.0,0.0,0.0,0.0,0.0,0.0,0.0,0.0,0.0,0.0,0.0,0.0,0.0,0.0,0.0,0.0,0.0,0.0,0.0,0.0,0.0,0.0,0.0,0.0,0.0,0.0,0.0,0.0,0.0,0.0,0.0,0.0,0.0,0.0,0.0,0.0,0.0,0.0,0.0,0.0,0.0,0.0,0.0,0.0,0.0,0.0,0.0,0.0,0.0,0.0,0.0,0.0,0.0,0.0,0.0,0.0,0.0,0.0,0.0,0.0,0.0,0.0,0.0,0.0,0.0,0.0,0.0,0.0,0.0,0.0,0.0,0.0,0.0,0.0,0.0,0.0,0.0,0.0,0.0,0.0,0.0,0.0,0.0,0.0,0.0,-3.6958,-3.6689,-3.6169,-3.5486,-3.5391,-3.5015,0.0,0.0,0.0,0.0,0.0,0.0,0.0,0.0,0.0,0.0,0.0,0.0,0.0,0.0,0.0,0.0,0.0,0.0,0.0,0.0,0.0,0.0,0.0,0.0,0.0,0.0,0.0,0.0,0.0,0.0,0.0,0.0,0.0,0.0,0.0,0.0,0.0,0.0,0.0,0.0,0.0,0.0,0.0,0.0,0.0,0.0,0.0,0.0,0.0,0.0,0.0,0.0,0.0,0.0,0.0,0.0,0.0,0.0,0.0,0.0,0.0,0.0,0.0,0.0,0.0,0.0,0.0,0.0,0.0,0.0,0.0,0.0,0.0,0.0,0.0,0.0,0.0,0.0,0.0,0.0,0.0,0.0,0.0,0.0,0.0,0.0,0.0,0.0,0.0,0.0,0.0,0.0,0.0,0.0,0.0,0.0,0.0,0.0,0.0,0.0,0.0,0.0,0.0,0.0,0.0,0.0,0.0,0.0,0.0,-3.8412,-3.8565,-3.8098,-3.6927,-3.6809,-3.6184,0.0,0.0,0.0,0.0,0.0,0.0,0.0,0.0,0.0,0.0,0.0,0.0,0.0,0.0,0.0,0.0,0.0,0.0,0.0,0.0,0.0,0.0,0.0,0.0,0.0,0.0,0.0,0.0,0.0,0.0,0.0,0.0,0.0,0.0,0.0,0.0,0.0,0.0,0.0,0.0,0.0,0.0,0.0,0.0,0.0,0.0,0.0,0.0,0.0,0.0,0.0,0.0,0.0,0.0,0.0,0.0,0.0,0.0,0.0,0.0,0.0,0.0,0.0,0.0,0.0,0.0,0.0,0.0,0.0,0.0,0.0,0.0,0.0,0.0,0.0,0.0,0.0,0.0,0.0,0.0,0.0,0.0,0.0,0.0,0.0,0.0,0.0,0.0,0.0,0.0,0.0,0.0,0.0,0.0,0.0,0.0,0.0,0.0,0.0,0.0,0.0,0.0,0.0,0.0,0.0,0.0,0.0,0.0,0.0,-3.9976,0.0,-3.9841,-3.8944,-3.848,-3.7569,0.0,0.0,0.0,0.0,0.0,0.0,0.0,0.0,0.0,0.0,0.0,0.0,0.0,0.0,0.0,0.0,0.0,0.0,0.0,0.0,0.0,0.0,0.0,0.0,0.0,0.0,0.0,0.0,0.0,0.0,0.0,0.0,0.0,0.0,0.0,0.0,0.0,0.0,0.0,0.0,0.0,0.0,0.0,0.0,0.0,0.0,0.0,0.0,0.0,0.0,0.0,0.0,0.0,0.0,0.0,0.0,0.0,0.0,0.0,0.0,0.0,0.0,0.0,0.0,0.0,0.0,0.0,0.0,0.0,0.0,0.0,0.0,0.0,0.0,0.0,0.0,0.0,0.0,0.0,0.0,0.0,0.0,0.0,0.0,0.0,0.0,0.0,0.0,0.0,0.0,0.0,0.0,0.0,0.0,0.0,0.0,0.0,0.0,0.0,0.0,0.0,0.0,0.0,0.0,0.0,0.0,0.0,0.0,-4.0815,-4.1581,-4.1523,-4.1463,-4.1397,-4.0352,-3.9147,0.0,0.0,0.0,0.0,0.0,0.0,0.0,0.0,0.0,0.0,0.0,0.0,0.0,0.0,0.0,0.0,0.0,0.0,0.0,0.0,0.0,0.0,0.0,0.0,0.0,0.0,0.0,0.0,0.0,0.0,0.0,0.0,0.0,0.0,0.0,0.0,0.0,0.0,0.0,0.0,0.0,0.0,0.0,0.0,0.0,0.0,0.0,0.0,0.0,0.0,0.0,0.0,0.0,0.0,0.0,0.0,0.0,0.0,0.0,0.0,0.0,0.0,0.0,0.0,0.0,0.0,0.0,0.0,0.0,0.0,0.0,0.0,0.0,0.0,0.0,0.0,0.0,0.0,0.0,0.0,0.0,0.0,0.0,0.0,0.0,0.0,0.0,0.0,0.0,0.0,0.0,0.0,0.0,0.0,0.0,0.0,0.0,0.0,0.0,0.0,0.0,0.0,0.0,0.0,0.0,0.0,0.0,0.0,0.0,-4.4008,-4.3976,-4.3653,-4.3071,-4.2013,-4.0959,0.0,0.0,0.0,0.0,0.0,0.0,0.0,0.0,0.0,0.0,0.0,0.0,0.0,0.0,0.0,0.0,0.0,0.0,0.0,0.0,0.0,0.0,0.0,0.0,0.0,0.0,0.0,0.0,0.0,0.0,0.0,0.0,0.0,0.0,0.0,0.0,0.0,0.0,0.0,0.0,0.0,0.0,0.0,0.0,0.0,0.0,0.0,0.0,0.0,0.0,0.0,0.0,0.0,0.0,0.0,0.0,0.0,0.0,0.0,0.0,0.0,0.0,0.0,0.0,0.0,0.0,0.0,0.0,0.0,0.0,0.0,0.0,0.0,0.0,0.0,0.0,0.0,0.0,0.0,0.0,0.0,0.0,0.0,0.0,0.0,0.0,0.0,0.0,0.0,0.0,0.0,0.0,0.0,0.0,0.0,0.0,0.0,0.0,0.0,0.0,0.0,0.0,0.0,0.0,0.0,0.0,0.0,0.0,0.0,-4.7833,-4.6946,-4.6389,-4.6192,-4.4561,-4.3106,-4.1885,0.0,0.0,0.0,0.0,0.0,0.0,0.0,0.0,0.0,0.0,0.0,0.0,0.0,0.0,0.0,0.0,0.0,0.0,0.0,0.0,0.0,0.0,0.0,0.0,0.0,0.0,0.0,0.0,0.0,0.0,0.0,0.0,0.0,0.0,0.0,0.0,0.0,0.0,0.0,0.0,0.0,0.0,0.0,0.0,0.0,0.0,0.0,0.0,0.0,0.0,0.0,0.0,0.0,0.0,0.0,0.0,0.0,0.0,0.0,0.0,0.0,0.0,0.0,0.0,0.0,0.0,0.0,0.0,0.0,0.0,0.0,0.0,0.0,0.0,0.0,0.0,0.0,0.0,0.0,0.0,0.0,0.0,0.0,0.0,0.0,0.0,0.0,0.0,0.0,0.0,0.0,0.0,0.0,0.0,0.0,0.0,0.0,0.0,0.0,0.0,0.0,0.0,0.0,0.0,0.0,0.0,0.0,0.0,-5.2677,-5.0448,-4.9621,-5.0222,-4.7735,-4.5538,0.0,0.0,0.0,0.0,0.0,0.0,0.0,0.0,0.0,0.0,0.0,0.0,0.0,0.0,0.0,0.0,0.0,0.0,0.0,0.0,0.0,0.0,0.0,0.0,0.0,0.0,0.0,0.0,0.0,0.0,0.0,0.0,0.0,0.0,0.0,0.0,0.0,0.0,0.0,0.0,0.0,0.0,0.0,0.0,0.0,0.0,0.0,0.0,0.0,0.0,0.0,0.0,0.0,0.0,0.0,0.0,0.0,0.0,0.0,0.0,0.0,0.0,0.0,0.0,0.0,0.0,0.0,0.0,0.0,0.0,0.0,0.0,0.0,0.0,0.0,0.0,0.0,0.0,0.0,0.0,0.0,0.0,0.0,0.0,0.0,0.0,0.0,0.0,0.0,0.0,0.0,0.0,0.0,0.0,0.0,0.0,0.0,0.0,0.0,0.0,0.0,0.0,0.0,0.0,0.0,0.0,0.0,0.0,0.0,-5.6216,-5.5518,-5.4095,-5.2091,-4.9522,-4.7503,0.0,0.0,0.0,0.0,0.0,0.0,0.0,0.0,0.0,0.0,0.0,0.0,0.0,0.0,0.0,0.0,0.0,0.0,0.0,0.0,0.0,0.0,0.0,0.0,0.0,0.0,0.0,0.0,0.0,0.0,0.0,0.0,0.0,0.0,0.0,0.0,0.0,0.0,0.0,0.0,0.0,0.0,0.0,0.0,0.0,0.0,0.0,0.0,0.0,0.0,0.0,0.0,0.0,0.0,0.0,0.0,0.0,0.0,0.0,0.0,0.0,0.0,0.0,0.0,0.0,0.0,0.0,0.0,0.0,0.0,0.0,0.0,0.0,0.0,0.0,0.0,0.0,0.0,0.0,0.0,0.0,0.0,0.0,0.0,0.0,0.0,0.0,0.0,0.0,0.0,0.0,0.0,0.0,0.0,0.0,0.0,0.0,0.0,0.0,0.0,0.0,0.0,0.0,0.0,0.0,0.0,0.0,0.0,-5.5518,-5.8634,-5.8885,-5.7969,-5.5925,-5.2649,-5.0012,0.0,0.0,0.0,0.0,0.0,0.0,0.0,0.0,0.0,0.0,0.0,0.0,0.0,0.0,0.0,0.0,0.0,0.0,0.0,0.0,0.0,0.0,0.0,0.0,0.0,0.0,0.0,0.0,0.0,0.0,0.0,0.0,0.0,0.0,0.0,0.0,0.0,0.0,0.0,0.0,0.0,0.0,0.0,0.0,0.0,0.0,0.0,0.0,0.0,0.0,0.0,0.0,0.0,0.0,0.0,0.0,0.0,0.0,0.0,0.0,0.0,0.0,0.0,0.0,0.0,0.0,0.0,0.0,0.0,0.0,0.0,0.0,0.0,0.0,0.0,0.0,0.0,0.0,0.0,0.0,0.0,0.0,0.0,0.0,0.0,0.0,0.0,0.0,0.0,0.0,0.0,0.0,0.0,0.0,0.0,0.0,0.0,0.0,0.0,0.0,0.0,0.0,0.0,0.0,0.0,0.0,0.0,0.0,-5.7107,-6.0035,-6.097,-6.1094,-6.0296,-5.6283,-5.2669,0.0,0.0,0.0,0.0,0.0,0.0,0.0,0.0,0.0,0.0,0.0,0.0,0.0,0.0,0.0,0.0,0.0,0.0,0.0,0.0,0.0,0.0,0.0,0.0,0.0,0.0,0.0,0.0,0.0,0.0,0.0,0.0,0.0,0.0,0.0,0.0,0.0,0.0,0.0,0.0,0.0,0.0,0.0,0.0,0.0,0.0,0.0,0.0,0.0,0.0,0.0,0.0,0.0,0.0,0.0,0.0,0.0,0.0,0.0,0.0,0.0,0.0,0.0,0.0,0.0,0.0,0.0,0.0,0.0,0.0,0.0,0.0,0.0,0.0,0.0,0.0,0.0,0.0,0.0,0.0,0.0,0.0,0.0,0.0,0.0,0.0,0.0,0.0,0.0,0.0,0.0,0.0,0.0,0.0,0.0,0.0,0.0,0.0,0.0,0.0,0.0,0.0,0.0,0.0,0.0,0.0,0.0,0.0,-5.8339,-6.0837,-6.1949,-6.2078,-6.1215,-5.7654,-5.4207,0.0,0.0,0.0,0.0,0.0,0.0,0.0,0.0,0.0,0.0,0.0,0.0,0.0,0.0,0.0,0.0,0.0,0.0,0.0,0.0,0.0,0.0,0.0,0.0,0.0,0.0,0.0,0.0,0.0,0.0,0.0,0.0,0.0,0.0,0.0,0.0,0.0,0.0,0.0,0.0,0.0,0.0,0.0,0.0,0.0,0.0,0.0,0.0,-4.1893,0.0,0.0,0.0,0.0,0.0,0.0,0.0,0.0,0.0,0.0,0.0,0.0,0.0,0.0,0.0,0.0,0.0,0.0,0.0,0.0,0.0,0.0,0.0,0.0,0.0,0.0,0.0,0.0,0.0,0.0,0.0,0.0,0.0,0.0,0.0,0.0,0.0,0.0,0.0,0.0,0.0,0.0,0.0,0.0,0.0,0.0,0.0,0.0,0.0,0.0,0.0,0.0,0.0,0.0,0.0,0.0,0.0,0.0,0.0,-5.9663,-6.1873,-6.2892,-6.2807,-6.1641,-5.9088,-5.6011,0.0,0.0,0.0,0.0,0.0,0.0,0.0,0.0,0.0,0.0,0.0,0.0,0.0,0.0,0.0,0.0,0.0,0.0,0.0,0.0,0.0,0.0,0.0,0.0,0.0,0.0,0.0,0.0,0.0,0.0,0.0,0.0,0.0,0.0,0.0,0.0,0.0,0.0,0.0,0.0,0.0,0.0,0.0,0.0,0.0,0.0,0.0,0.0,0.0,0.0,0.0,0.0,0.0,0.0,0.0,0.0,0.0,0.0,0.0,0.0,0.0,0.0,0.0,0.0,0.0,0.0,0.0,0.0,0.0,0.0,0.0,0.0,0.0,0.0,0.0,0.0,0.0,0.0,0.0,0.0,0.0,0.0,0.0,0.0,0.0,0.0,0.0,0.0,0.0,0.0,0.0,0.0,0.0,0.0,0.0,0.0,0.0,0.0,0.0,0.0,0.0,0.0,0.0,0.0,0.0,0.0,0.0,-5.8162,-6.076,-6.2733,-6.3603,-6.3214,-6.1646,-6.0129,-5.7442,-5.3438,0.0,0.0,0.0,0.0,0.0,0.0,0.0,0.0,0.0,0.0,0.0,0.0,0.0,0.0,0.0,0.0,0.0,0.0,0.0,0.0,0.0,0.0,0.0,0.0,0.0,0.0,0.0,0.0,0.0,0.0,0.0,0.0,0.0,0.0,0.0,0.0,0.0,0.0,-4.3648,-4.5308,0.0,0.0,0.0,0.0,0.0,0.0,0.0,0.0,-4.3459,0.0,0.0,0.0,0.0,0.0,0.0,0.0,0.0,0.0,0.0,0.0,0.0,0.0,0.0,0.0,0.0,0.0,0.0,0.0,0.0,0.0,0.0,0.0,0.0,0.0,0.0,0.0,0.0,0.0,0.0,0.0,0.0,0.0,0.0,0.0,0.0,0.0,0.0,0.0,0.0,0.0,0.0,0.0,0.0,0.0,0.0,0.0,0.0,0.0,0.0,0.0,0.0,0.0,0.0,0.0,0.0,-5.5357,-5.8651,-6.0927,-6.2282,-6.34,-6.2927,-6.0741,-5.9614,-5.7288,-5.3496,0.0,0.0,0.0,0.0,0.0,0.0,0.0,0.0,0.0,0.0,0.0,0.0,0.0,0.0,0.0,0.0,0.0,0.0,0.0,0.0,0.0,0.0,0.0,0.0,0.0,0.0,0.0,0.0,0.0,0.0,0.0,0.0,0.0,0.0,0.0,0.0,0.0,0.0,0.0,-4.8267,-4.9299,0.0,0.0,0.0,0.0,0.0,0.0,0.0,0.0,-4.5811,0.0,0.0,0.0,0.0,0.0,0.0,0.0,0.0,0.0,0.0,0.0,0.0,0.0,0.0,0.0,0.0,0.0,0.0,0.0,0.0,0.0,0.0,0.0,0.0,0.0,0.0,0.0,0.0,0.0,0.0,0.0,0.0,0.0,0.0,0.0,0.0,0.0,0.0,0.0,0.0,0.0,0.0,0.0,0.0,0.0,0.0,0.0,0.0,0.0,0.0,0.0,0.0,0.0,0.0,0.0,-5.673,-5.9447,-6.1416,-6.2652,-6.3276,-6.2473,-6.0124,-5.9266,-5.6885,0.0,0.0,0.0,0.0,0.0,0.0,0.0,0.0,0.0,0.0,0.0,0.0,0.0,0.0,0.0,0.0,0.0,0.0,0.0,0.0,0.0,0.0,0.0,0.0,0.0,0.0,0.0,0.0,0.0,0.0,0.0,0.0,0.0,0.0,0.0,0.0,0.0,0.0,0.0,0.0,-4.9612,-5.087,-5.1259,0.0,0.0,0.0,0.0,0.0,0.0,-4.8477,-4.7807,0.0,0.0,0.0,0.0,0.0,0.0,0.0,0.0,0.0,0.0,0.0,0.0,0.0,0.0,0.0,0.0,0.0,0.0,0.0,0.0,0.0,0.0,0.0,0.0,0.0,0.0,0.0,0.0,0.0,0.0,0.0,0.0,0.0,0.0,0.0,0.0,0.0,0.0,0.0,0.0,0.0,0.0,0.0,0.0,0.0,0.0,0.0,0.0,0.0,0.0,0.0,0.0,0.0,0.0,0.0,-5.7929,-6.012,-6.1929,-6.318,-6.3116,-6.1933,-5.9656,-5.8846,-5.6315,0.0,0.0,0.0,0.0,0.0,0.0,0.0,0.0,0.0,0.0,0.0,0.0,0.0,0.0,0.0,0.0,0.0,0.0,0.0,0.0,0.0,0.0,0.0,0.0,0.0,0.0,0.0,0.0,0.0,0.0,0.0,0.0,0.0,0.0,0.0,0.0,0.0,0.0,0.0,0.0,0.0,-5.2007,-5.3025,-5.2845,0.0,0.0,0.0,0.0,-5.0602,-4.9808,0.0,0.0,0.0,0.0,0.0,0.0,0.0,0.0,0.0,0.0,0.0,0.0,0.0,0.0,0.0,0.0,0.0,0.0,0.0,0.0,0.0,0.0,0.0,0.0,0.0,0.0,0.0,0.0,0.0,0.0,0.0,0.0,0.0,0.0,0.0,0.0,0.0,0.0,0.0,0.0,0.0,0.0,0.0,0.0,0.0,0.0,0.0,0.0,0.0,0.0,0.0,0.0,0.0,0.0,0.0,0.0,-5.7929,-6.0483,-6.2317,-6.3436,-6.2889,-6.1477,-5.9151,-5.8204,-5.5542,0.0,0.0,0.0,0.0,0.0,0.0,0.0,0.0,0.0,0.0,0.0,0.0,0.0,0.0,0.0,0.0,0.0,0.0,0.0,0.0,0.0,0.0,0.0,0.0,0.0,0.0,0.0,0.0,0.0,0.0,0.0,0.0,0.0,0.0,0.0,0.0,0.0,0.0,0.0,0.0,0.0,-5.2995,-5.3144,-5.3653,-5.3743,0.0,0.0,-5.2594,-5.2486,-5.1532,0.0,0.0,0.0,0.0,0.0,0.0,0.0,0.0,0.0,0.0,0.0,0.0,0.0,0.0,0.0,0.0,0.0,0.0,0.0,0.0,0.0,0.0,0.0,0.0,0.0,0.0,0.0,0.0,0.0,0.0,0.0,0.0,0.0,0.0,0.0,0.0,0.0,0.0,0.0,0.0,0.0,0.0,0.0,0.0,0.0,0.0,0.0,0.0,0.0,0.0,0.0,0.0,0.0,0.0,0.0,-5.5113,-5.8715,-6.0677,-6.2031,-6.2936,-6.2537,-6.1163,-5.8855,-5.7852,-5.5386,0.0,0.0,0.0,0.0,0.0,0.0,0.0,0.0,0.0,0.0,0.0,0.0,0.0,0.0,0.0,0.0,0.0,0.0,0.0,0.0,0.0,0.0,0.0,0.0,0.0,0.0,0.0,0.0,0.0,0.0,0.0,0.0,0.0,0.0,0.0,0.0,0.0,0.0,0.0,0.0,0.0,0.0,-5.5837,-5.5897,0.0,0.0,0.0,-5.5015,-5.4506,0.0,0.0,0.0,0.0,0.0,0.0,0.0,0.0,0.0,0.0,0.0,0.0,0.0,0.0,0.0,0.0,0.0,0.0,0.0,0.0,0.0,0.0,0.0,0.0,0.0,0.0,0.0,0.0,0.0,0.0,0.0,0.0,0.0,0.0,0.0,0.0,0.0,0.0,0.0,0.0,0.0,0.0,0.0,0.0,0.0,0.0,0.0,0.0,0.0,0.0,0.0,0.0,0.0,0.0,0.0,0.0,0.0,-5.9041,-6.058,-6.1644,-6.2321,-6.1959,-6.0796,-5.8765,-5.7616,0.0,0.0,0.0,0.0,0.0,0.0,0.0,0.0,0.0,0.0,0.0,0.0,0.0,0.0,0.0,0.0,0.0,0.0,0.0,0.0,0.0,0.0,0.0,0.0,0.0,0.0,0.0,-3.6406,0.0,0.0,0.0,0.0,0.0,0.0,0.0,0.0,0.0,0.0,0.0,0.0,0.0,0.0,-5.6077,-5.7872,-5.7812,-5.7782,0.0,0.0,-5.7027,-5.634,-5.5827,-5.4798,0.0,0.0,0.0,0.0,0.0,0.0,0.0,0.0,0.0,0.0,0.0,0.0,0.0,0.0,0.0,0.0,0.0,0.0,0.0,0.0,0.0,0.0,0.0,0.0,0.0,0.0,0.0,0.0,0.0,0.0,0.0,0.0,0.0,0.0,0.0,0.0,0.0,0.0,0.0,0.0,0.0,0.0,0.0,0.0,0.0,0.0,0.0,0.0,0.0,0.0,0.0,0.0,0.0,0.0,-5.573,-5.83,-6.0004,-6.1161,-6.1808,-6.0967,-6.0032,-5.9004,-5.7363,-5.4968,0.0,0.0,0.0,0.0,0.0,0.0,0.0,0.0,0.0,0.0,0.0,0.0,0.0,0.0,0.0,0.0,0.0,0.0,0.0,0.0,0.0,0.0,0.0,0.0,0.0,0.0,0.0,0.0,0.0,0.0,0.0,0.0,0.0,0.0,0.0,0.0,0.0,0.0,0.0,0.0,0.0,-5.6615,-5.7932,-5.862,-5.8979,0.0,-5.8256,-5.7619,-5.7589,-5.6072,-5.4726,-5.4,0.0,0.0,0.0,0.0,0.0,0.0,0.0,0.0,0.0,0.0,0.0,0.0,0.0,0.0,0.0,0.0,0.0,0.0,0.0,0.0,0.0,0.0,0.0,0.0,0.0,0.0,0.0,0.0,0.0,0.0,0.0,0.0,0.0,0.0,0.0,0.0,0.0,0.0,0.0,0.0,0.0,0.0,0.0,0.0,0.0,0.0,0.0,0.0,0.0,0.0,0.0,0.0,0.0,-5.6381,-5.8486,-5.9996,-6.087,-6.0916,-6.0599,-5.9936,-5.9004,-5.7376,-5.5415,0.0,0.0,0.0,0.0,0.0,0.0,0.0,0.0,0.0,0.0,0.0,0.0,0.0,0.0,0.0,0.0,0.0,0.0,0.0,0.0,0.0,0.0,0.0,0.0,0.0,0.0,0.0,0.0,-3.9217,-3.9904,-4.0695,0.0,0.0,0.0,0.0,0.0,0.0,0.0,0.0,0.0,0.0,-5.7832,-5.9673,-6.0176,0.0,0.0,-5.9917,-5.8971,-5.8421,-5.77,-5.6539,-5.4554,-5.3912,0.0,0.0,0.0,0.0,0.0,0.0,0.0,0.0,0.0,0.0,0.0,0.0,0.0,0.0,0.0,0.0,0.0,0.0,0.0,0.0,0.0,0.0,0.0,0.0,0.0,0.0,0.0,0.0,0.0,0.0,0.0,0.0,0.0,0.0,0.0,0.0,0.0,0.0,0.0,0.0,0.0,0.0,0.0,0.0,0.0,0.0,0.0,0.0,0.0,0.0,0.0,0.0,-5.667,-5.8324,-5.9749,-6.0328,-6.0071,-6.0071,-5.9711,-5.8882,-5.742,-5.58,0.0,0.0,0.0,0.0,0.0,0.0,0.0,0.0,0.0,0.0,0.0,0.0,0.0,0.0,0.0,0.0,0.0,0.0,0.0,0.0,0.0,0.0,0.0,0.0,0.0,0.0,0.0,0.0,-4.0444,-4.1254,-4.1773,0.0,0.0,0.0,0.0,0.0,0.0,0.0,0.0,0.0,0.0,-5.8787,-6.0585,-6.1151,-6.1508,-6.1834,-6.0853,-5.9815,-5.9025,-5.8618,-5.7655,-5.5489,0.0,0.0,0.0,0.0,0.0,0.0,0.0,0.0,0.0,0.0,0.0,0.0,0.0,0.0,0.0,0.0,0.0,0.0,0.0,0.0,0.0,0.0,0.0,0.0,0.0,0.0,0.0,-4.6708,0.0,0.0,-4.4875,0.0,0.0,0.0,0.0,0.0,0.0,0.0,0.0,0.0,0.0,0.0,0.0,0.0,0.0,0.0,0.0,0.0,0.0,0.0,0.0,0.0,0.0,-5.6477,-5.7611,-5.9036,-5.9617,-5.9363,-5.9331,-5.9062,-5.8624,-5.7464,-5.5887,-5.3844,0.0,0.0,0.0,0.0,0.0,0.0,0.0,0.0,0.0,0.0,0.0,0.0,0.0,0.0,0.0,0.0,0.0,0.0,0.0,0.0,0.0,0.0,0.0,0.0,0.0,0.0,-4.0636,-4.2181,-4.3086,0.0,0.0,0.0,0.0,0.0,0.0,0.0,0.0,0.0,-5.4279,-5.7218,-5.9404,-6.0139,-6.1261,-6.185,-6.129,-6.064,-5.9962,-5.9283,-5.847,-5.7576,0.0,0.0,0.0,0.0,0.0,0.0,0.0,0.0,0.0,0.0,0.0,0.0,0.0,0.0,0.0,0.0,0.0,0.0,0.0,0.0,0.0,0.0,0.0,0.0,0.0,0.0,0.0,-5.0002,-4.9716,0.0,0.0,0.0,0.0,0.0,0.0,0.0,0.0,0.0,0.0,0.0,-5.6094,-5.4988,0.0,0.0,0.0,0.0,0.0,0.0,0.0,0.0,0.0,0.0,0.0,0.0,-5.6895,-5.7611,-5.8798,-5.9331,-5.9107,-5.9139,-5.8927,-5.8578,-5.7331,-5.5312,-5.245,0.0,0.0,0.0,0.0,0.0,0.0,0.0,0.0,0.0,0.0,0.0,0.0,0.0,0.0,0.0,0.0,0.0,0.0,0.0,0.0,0.0,0.0,0.0,0.0,0.0,-4.0575,0.0,0.0,0.0,0.0,0.0,0.0,0.0,0.0,0.0,0.0,0.0,-5.2939,-5.4598,-5.6466,-5.8143,-5.9363,-6.0472,-6.1087,0.0,0.0,0.0,0.0,0.0,0.0,0.0,0.0,0.0,0.0,0.0,0.0,0.0,0.0,-5.2948,-5.1903,-5.1863,-5.2024,-5.2255,0.0,0.0,0.0,0.0,0.0,0.0,0.0,0.0,0.0,0.0,0.0,0.0,0.0,0.0,-5.2635,-5.2508,-5.1236,0.0,0.0,0.0,0.0,0.0,0.0,0.0,0.0,-5.7168,-5.7895,-5.8906,-5.78,-5.7263,-5.7168,-5.5617,-5.3566,0.0,0.0,0.0,0.0,0.0,0.0,0.0,0.0,-5.698,-5.7611,-5.8496,-5.8972,-5.8972,-5.8882,-5.8746,-5.8487,-5.6886,-5.4695,-5.1873,-4.9215,-4.7252,0.0,0.0,0.0,0.0,0.0,0.0,0.0,0.0,0.0,0.0,0.0,0.0,0.0,0.0,0.0,0.0,0.0,0.0,0.0,0.0,0.0,0.0,0.0,-4.1773,0.0,0.0,0.0,0.0,0.0,0.0,0.0,0.0,0.0,-4.9751,-5.1583,-5.3257,-5.4505,-5.6049,-5.7513,-5.8725,0.0,0.0,0.0,0.0,0.0,0.0,0.0,-5.773,-5.7003,-5.6805,-5.6549,-5.6252,-5.6313,-5.6403,-5.6432,0.0,0.0,-5.4244,-5.4062,-5.4168,-5.4168,-5.4517,-5.4894,-5.5126,-5.5649,-5.6142,0.0,0.0,0.0,0.0,-5.6666,0.0,0.0,0.0,-5.5601,-5.5228,0.0,-5.3123,0.0,0.0,0.0,0.0,-5.4261,-5.562,0.0,0.0,-5.9033,-5.9728,-6.0297,-5.9665,-5.9349,-5.9286,-5.8155,-5.7242,-5.6384,-5.4058,0.0,0.0,0.0,0.0,0.0,0.0,-5.6657,-5.7579,-5.8065,-5.8522,-5.8972,-5.8746,-5.8441,-5.8194,-5.622,-5.4166,-5.2102,-5.0254,-4.8777,-4.7681,-4.516,0.0,0.0,0.0,0.0,0.0,0.0,0.0,0.0,0.0,0.0,0.0,0.0,0.0,0.0,0.0,0.0,0.0,0.0,0.0,0.0,-4.2895,0.0,0.0,0.0,0.0,0.0,0.0,0.0,0.0,0.0,0.0,-5.0097,-5.1861,-5.3411,-5.4035,0.0,0.0,0.0,0.0,-5.9251,-5.9219,-5.9191,-5.8822,-5.771,-5.751,-5.7252,-5.6566,0.0,0.0,-5.688,-5.7685,-5.8233,-5.8262,-5.8697,-5.8465,-5.5971,-5.5536,-5.5591,-5.5591,-5.5649,-5.5794,-5.6374,-5.7013,-5.7536,-6.1787,0.0,0.0,0.0,0.0,-5.8128,-5.8335,-5.8493,-5.8211,-5.8116,-5.8022,-5.641,0.0,0.0,0.0,0.0,0.0,0.0,-5.8685,-6.0487,-6.0708,-6.115,-6.1782,-6.1119,-6.0803,-6.0739,-5.9615,-5.8751,-5.8243,-5.7215,-5.5589,-5.3542,0.0,0.0,0.0,0.0,-5.6657,-5.7579,-5.7871,-5.8313,-5.8972,-5.8564,-5.7892,-5.6821,-5.5715,-5.4301,-5.2524,-5.0423,-4.9212,-4.9077,-4.6224,0.0,0.0,0.0,0.0,0.0,0.0,0.0,0.0,0.0,0.0,0.0,0.0,0.0,0.0,0.0,0.0,0.0,0.0,0.0,-4.3227,-4.3908,-4.4645,0.0,0.0,0.0,0.0,0.0,0.0,0.0,0.0,0.0,-5.1281,-5.2628,-5.3782,0.0,0.0,-5.6886,-5.7595,-5.8398,-5.9058,-5.9484,-5.9355,0.0,-5.8765,-5.8337,-5.7994,-5.7794,-5.7765,-5.7765,-5.7883,-5.8113,-5.8287,-5.8287,-5.843,-5.8287,-5.7742,-5.7888,-5.8117,-5.8203,-5.8203,-5.8232,-5.8435,-5.8639,-5.8784,-6.4974,-6.2635,-6.1024,-6.0487,-6.0771,-6.0897,-6.1119,-6.134,-6.0771,-6.055,-6.0423,-5.878,-5.8053,-5.8022,-5.7611,0.0,0.0,0.0,-5.9918,-6.1403,-6.1403,-6.1751,-6.2333,-6.2003,-6.1814,-6.1751,-6.0884,-6.0183,-5.9667,-5.9024,-5.7634,-5.5622,0.0,-5.4727,-5.4624,-5.5463,-5.6321,-5.7126,-5.7077,-5.7437,-5.814,-5.7603,-5.6703,-5.5543,-5.531,-5.4373,-5.2496,-5.1036,-5.0151,-4.9923,-4.7095,-4.5522,0.0,0.0,0.0,0.0,0.0,0.0,0.0,0.0,0.0,0.0,0.0,-4.1035,-4.1287,0.0,0.0,0.0,-4.302,-4.3543,-4.4668,-4.5091,0.0,0.0,0.0,0.0,0.0,0.0,0.0,-5.0016,-5.1309,-5.2349,-5.2826,-5.3782,-5.454,-5.4906,-5.5805,-5.6732,-5.7631,0.0,-5.8838,-5.9431,-5.9328,-5.9111,-5.8856,-5.8515,-5.8203,-5.8008,-5.8011,-5.807,-5.813,-5.8389,-5.868,-5.8708,-5.8908,-5.9051,-5.9051,-5.9379,-5.9475,-5.9042,-5.8927,-5.8954,-5.9185,-5.9361,-5.9594,-6.7322,-6.6533,-6.4638,-6.4121,-6.4437,-6.3836,-6.3931,-6.4405,-6.3091,-6.2554,-6.2396,-6.0518,-5.957,-5.9475,-5.9475,0.0,-5.957,-6.0202,-6.0897,-6.1624,-6.1624,-6.1972,-6.2523,-6.2491,-6.2459,-6.2509,-6.1977,-6.1392,-6.0645,-5.9864,-5.8984,-5.8257,-5.7151,-5.6242,-5.5498,-5.5466,-5.5789,-5.6436,-5.6007,-5.6114,-5.6774,-5.6157,-5.535,-5.4438,-5.5,-5.4241,-5.2082,-5.1616,-5.112,-5.0249,-4.7774,-4.6309,-4.6237,0.0,0.0,0.0,0.0,0.0,0.0,0.0,0.0,0.0,0.0,0.0,0.0,0.0,0.0,0.0,-4.4706,0.0,-4.6307,-4.6364,0.0,0.0,0.0,-4.7909,-4.9066,-4.982,-5.066,-5.1731,0.0,0.0,-5.4512,-5.5187,-5.5608,-5.5721,-5.6226,-5.6985,-5.8137,-5.8362,-5.8587,-5.9149,-5.9205,-5.9008,-5.8592,-5.8451,-5.8283,-5.7805,-5.7761,-5.7998,-5.8026,-5.8576,-5.9187,-5.9155,-5.9672,-6.0075,-6.0104,-6.0018,-5.9761,-5.8617,-5.8508,-5.868,-5.9194,-5.9606,-6.016,-6.8249,-6.7809,-6.7306,-6.6091,-6.45,-6.4342,-6.4374,-6.45,-6.4184,-6.3975,-6.3963,-6.2951,-6.1909,-6.0897,-6.0897,-6.1182,-6.1638,-6.1845,-6.2572,-6.3742,-6.3773,-6.3868,-6.3994,-6.3489,-6.3236,-6.3173,-6.2559,-6.1675,-6.0741,-6.0453,-5.9539,-5.8025,-5.7728,-5.7013,-5.6066,-5.6002,-5.6015,-5.5975,-5.5708,-5.5724,-5.6036,-5.5889,-5.535,-5.4407,-5.393,-5.298,-5.1519,-5.0289,-4.9816,-5.0125,-4.7999,-4.6577,-4.63,-4.5099,0.0,0.0,0.0,0.0,0.0,0.0,0.0,0.0,0.0,-4.2813,-4.3181,0.0,-4.4734,0.0,-4.5605,-4.6307,-4.6926,-4.6982,0.0,0.0,-4.9314,-4.9792,-5.1,-5.1674,-5.218,-5.2461,-5.3445,-5.4428,-5.5187,-5.5805,-5.6564,-5.7491,-5.7744,-5.7969,-5.8278,-5.8727,-5.9036,-5.9177,-5.9205,-5.9149,-5.9008,-5.9008,-5.8924,-5.8812,-5.8817,-5.8907,-5.8879,-5.8992,-5.9166,-5.9194,-5.9279,-5.9454,-5.9454,-5.9454,-5.9369,-5.9087,-5.9371,-5.9765,-5.9937,-6.0369,-6.086,-6.9052,-6.8704,-6.8704,-6.78,-6.6333,-6.6017,-6.5732,-6.5416,-6.5132,-6.4974,-6.4942,-6.4279,-6.3331,-6.2383,-6.2635,-6.2983,-6.3312,-6.3312,-6.3723,-6.45,-6.4449,-6.4449,-6.45,-6.4121,-6.3773,-6.3457,-6.3078,-6.2053,-6.063,-6.0661,-5.9833,-5.8249,-5.8352,-5.7968,-5.7113,-5.7011,-5.6574,-5.5805,-5.5175,-5.4731,-5.4442,-5.4397,-5.4075,-5.3343,-5.2883,-5.2091,-5.0894,-4.9747,-4.9344,-4.9816,-4.8088,-4.705,-4.7089,-4.6036,-4.485,0.0,0.0,0.0,0.0,0.0,0.0,0.0,0.0,0.0,0.0,0.0,-4.5998,-4.6532,-4.6897,-4.7459,-4.8359,-4.8443,-4.8836,-4.99,-5.0013,-5.0379,-5.1281,-5.1927,-5.2405,-5.2686,-5.381,-5.4821,-5.544,-5.6283,-5.721,-5.8193,-5.8531,-5.8699,-5.8727,-5.9008,-5.9205,-5.9205,-5.9205,-5.9205,-5.9205,-5.9205,-5.9205,-5.9205,-5.9205,-5.9205,-5.9205,-5.9205,-5.9205,-5.9205,-5.9205,-5.9205,-5.9205,-5.9205,-5.9205,-5.9267,-5.9516,-5.9702,-5.9763,-6.0171,-6.0574,-6.9532,-6.9371,-6.9371,-6.913,-6.8766,-6.8134,-6.7439,-6.6681,-6.6017,-6.5669,-6.5595,-6.5006,-6.4342,-6.3678,-6.4342,-6.4658,-6.4658,-6.4658,-6.469,-6.4784,-6.4784,-6.4784,-6.4784,-6.469,-6.4279,-6.3647,-6.352,-6.2383,-6.0329,-6.063,-6.0058,-5.8755,-5.8969,-5.8896,-5.8449,-5.831,-5.7408,-5.575,-5.4663,-5.3603,-5.2698,-5.2653,-5.2427,-5.2017,-5.188,-5.1318,-5.0363,-4.9568,-4.928,-4.941,-4.8131,-4.7595,-4.8033,-4.7019,-4.6042,0.0,-4.4921,0.0,0.0,0.0,0.0,0.0,0.0,0.0,0.0,-4.6154,-4.7122,-4.8274,-4.8359,-4.878,-4.99,-5.0013,-5.0069,-5.021,-5.0238,-5.0519,-5.1194,-5.1702,-5.2236,-5.277,-5.3866,-5.4821,-5.544,-5.6592,-5.7603,-5.8221,-5.8812,-5.9149,-5.9205,-5.9205,-5.9205,-5.9205,-5.9205,-5.9205,-5.9205,-5.9205,-5.9205,-5.9205,-5.9205,-5.9205,-5.9205,-5.9205,-5.9205,-5.9205,-5.9205,-5.9205,-5.9205,-5.9149,-5.9064,-5.9036,-5.9036,-5.9155,-5.9267,-5.9595,-6.0149,-6.9321,-6.9688,-6.9745,-6.9622,-6.9493,-6.9335,-6.8577,-6.7344,-6.6712,-6.608,-6.5658,-6.6017,-6.5511,-6.4405,-6.5069,-6.5437,-6.5353,-6.5385,-6.5669,-6.6207,-6.6207,-6.6207,-6.6175,-6.5638,-6.5006,-6.431,-6.3742,-6.2383,-6.0297,-6.0946,-6.0582,-5.9206,-5.957,-5.9679,-5.9615,0.0,0.0,0.0,-5.4487,-5.3582,-5.2729,-5.2473,-5.2246,-5.1972,-5.1273,0.0,-5.0288,-4.9248,-4.8791,-4.9128,-4.8668,0.0,0.0,0.0,0.0,0.0,0.0,0.0,0.0,0.0,0.0,0.0,-4.7556,-4.7696,-4.6883,-4.783,-4.8836,-4.9539,-4.9675,-4.976,-4.9985,-5.0013,-5.0407,-5.1309,-5.1421,-5.1871,-5.2967,-5.322,-5.3416,-5.3473,-5.4119,-5.4793,-5.5412,-5.6592,-5.7575,-5.8109,-5.8812,-5.9177,-5.9149,-5.9149,-5.9205,-5.9205,-5.9149,-5.9177,-5.9205,-5.9177,-5.9093,-5.9205,-5.9205,-5.9205,-5.9177,-5.9205,-5.9205,-5.9205,-5.9205,-5.9205,-5.9205,-5.8812,-5.8531,-5.8474,-5.8474,-5.8615,-5.9121,-5.9598,-6.0083,-6.9414,-6.9818,-6.999,-7.0143,0.0,-6.9841,-6.9082,-6.8103,-6.7407,-6.6523,-6.569,-6.6301,-6.6017,-6.5069,-6.5764,-6.608,-6.608,-6.608,-6.627,-6.6586,-6.6586,-6.6586,-6.6586,-6.6238,-6.5543,-6.45,-6.4152,-6.2888,-6.0961,-6.1213,-6.0769,-5.9633,-5.9755,-5.9955,-6.0054,-5.9687,-5.8517,-5.6588,-5.4653,-5.3346,-5.2673,-5.2215,-5.1849,-5.1602,-5.0801,0.0,0.0,0.0,0.0,0.0,0.0,0.0,0.0,-4.8769,0.0,-4.7558,-4.7523,-4.7638,-4.78,-4.7988,-4.8246,-4.8555,-4.9426,-4.9567,-4.864,-4.9145,-4.9764,-5.0407,-5.0463,-5.0575,-5.0885,-5.0859,-5.1112,-5.1702,-5.1787,-5.2068,-5.2602,-5.2742,-5.2742,-5.2798,-5.3276,-5.3894,-5.4512,-5.5383,-5.6226,-5.6816,-5.7182,-5.7435,-5.7519,-5.8474,-5.9121,-5.8812,-5.8474,-5.8306,-5.8306,-5.8306,-5.8334,-5.8334,-5.8559,-5.8755,-5.8755,-5.9008,-5.9205,-5.9205,-5.9205,-5.9205,-5.9205,-5.8952,-5.8671,-5.839,-5.8306,-5.825,-5.839,-5.9036,-5.9767,-6.953,-6.9787,-7.0161,-7.0476,-7.0726,-7.0125,-6.943,-6.864,-6.7787,0.0,0.0,-6.6301,-6.6207,-6.569,-6.6301,-6.6586,-6.6586,-6.6586,-6.6586,-6.6586,-6.6586,-6.6586,-6.6586,-6.6586,-6.5859,-6.4563,-6.4449,-6.3457,-6.1466,-6.1481,-6.1019,-6.0195,-6.0111,-6.0048,-5.9919,-5.8879,-5.8053,-5.7488,-5.4813,-5.3111,-5.2597,-5.1887,-5.1463,-5.1229,-5.0644,-5.0282,-5.005,-4.9314,-4.8975,-4.9285,-4.9029,-4.9146,-4.964,-4.9453,-4.9207,-4.9009,-4.8795,-4.8776,-4.9057,-4.9258,-4.9623,-5.0294,-5.0747,-5.0722,-5.021,-5.0266,-5.0547,-5.1,-5.1028,-5.1309,-5.1899,-5.1927,-5.1983,-5.2096,-5.2012,-5.1955,-5.1955,-5.1843,-5.1843,-5.1843,-5.2377,-5.2883,-5.3473,-5.4203,-5.4765,-5.5243,-5.5608,-5.558,-5.5889,-5.7407,-5.8446,-5.8165,-5.78,-5.7435,-5.7407,-5.7463,-5.7378,-5.7491,-5.7856,-5.8109,-5.8221,-5.8643,-5.9008,-5.9008,-5.9121,-5.9205,-5.9205,-5.9064,-5.8896,-5.839,-5.8193,-5.7997,-5.7603,-5.8165,-5.9036,-6.953,-6.9818,-7.0161,-7.0476,-7.0789,-7.0662,-6.9872,-6.8608,-6.7313,-6.6301,-6.5658,-6.6301,-6.6238,-6.5658,-6.6301,-6.6586,-6.6586,-6.6586,-6.6586,-6.6586,-6.6586,-6.6586,-6.6586,-6.6586,-6.5859,-6.4595,-6.4449,-6.3426,-6.1656,-6.1757,-6.1563,-6.0881,-6.0718,-6.0137,-5.9161,-5.8213,-5.7393,-5.6748,-5.4643,-5.3248,-5.2627,-5.17,-5.1246,-5.1229,-5.1063,-5.0939,-5.0674,-5.0378,-5.014,-4.9988,-4.9698,-4.9582,-4.9669,-4.9453,-4.9256,-4.9235,-4.9244,-4.928,-4.9393,-5.0174,-5.0888,-5.1478,-5.1428,-5.115,-5.0831,-5.1253,-5.1562,-5.1674,-5.1618,-5.1899,-5.2489,-5.2545,-5.2742,-5.3248,-5.2883,-5.2574,-5.2545,-5.2096,-5.1787,-5.1787,-5.2321,-5.2714,-5.2967,-5.381,-5.4456,-5.4737,-5.4878,-5.5552,-5.5973,-5.6564,-5.7013,-5.7378,-5.7463,-5.7378,-5.7238,-5.735,-5.7266,-5.7378,-5.7407,-5.7519,-5.7519,-5.8025,-5.8418,-5.8446,-5.884,-5.9149,-5.9177,-5.8783,-5.8531,-5.8306,-5.794,-5.7519,-5.735,-5.7547,-5.7884,-6.9703,-6.9875,-7.0363,-7.0645,-7.0726,-6.9967,-6.9051,-6.8039,-6.706,-6.6428,-6.6175,-6.6459,-6.6428,-6.6175,-6.6459,-6.6586,-6.6586,-6.6586,-6.6586,-6.6586,-6.6586,-6.6586,-6.6554,-6.6207,-6.5511,-6.4532,-6.4121,-6.3268,-6.2049,-6.1959,-6.1728,-6.1327,-6.0846,-5.9805,-5.8313,-5.7825,-5.7007,-5.5831,-5.4239,-5.3248,-5.2918,-5.1785,-5.1229,-5.1229,-5.1058,-5.0917,-5.0793,-5.0471,-5.0231,-5.0086,-4.9815,-4.9746,-4.9698,-4.9453,-4.935,-4.9545,-4.9449,-4.9648,-5.0199,-5.0966,-5.1451,-5.1568,-5.1431,-5.1265,-5.0958,-5.1126,-5.1403,-5.1541,-5.1596,-5.1903,-5.263,-5.2714,-5.2967,-5.367,-5.3079,-5.2714,-5.2658,-5.218,-5.1787,-5.1787,-5.204,-5.2321,-5.2686,-5.2911,-5.322,-5.3473,-5.3613,-5.3894,-5.4821,-5.4962,-5.5412,-5.6535,-5.6592,-5.6395,-5.6395,-5.6367,-5.6367,-5.6339,-5.6648,-5.6816,-5.6901,-5.7378,-5.7856,-5.825,-5.8559,-5.884,-5.9093,-5.9008,-5.8699,-5.8278,-5.78,-5.735,-5.6985,-5.6873,-5.7097,-6.9818,-6.9875,-7.0532,-7.0662,-7.041,-6.9051,-6.8103,-6.7534,-6.6902,-6.6586,-6.6586,-6.6586,-6.6586,-6.6586,-6.6586,-6.6586,-6.6586,-6.6586,-6.6586,-6.6586,-6.6586,-6.6586,-6.6523,-6.589,-6.5195,-6.45,-6.3836,-6.3141,-6.2459,-6.2116,-6.1815,-6.1379,-6.069,-5.9392,-5.7622,-5.7488,-5.6753,-5.5209,-5.4012,-5.3354,-5.3144,-5.2037,-5.1332,-5.1135,-5.0887,-5.0775,-5.0632,-5.0397,-5.0233,-5.0038,-4.996,-4.9892,-4.9698,-4.9548,-4.9538,-4.9744,-4.9802,-5.0114,-5.1026,-5.1506,-5.1706,-5.1459,-5.1321,-5.1155,-5.085,-5.0739,-5.085,-5.1211,-5.1376,-5.1793,-5.2631,-5.2883,-5.322,-5.3922,-5.3388,-5.2967,-5.2883,-5.2264,-5.1787,-5.1787,-5.1787,-5.204,-5.2461,-5.2293,-5.2293,-5.2602,-5.2293,-5.2489,-5.3416,-5.3754,-5.4569,-5.558,-5.5805,-5.5608,-5.5496,-5.5552,-5.5496,-5.5355,-5.5664,-5.5889,-5.6058,-5.6507,-5.7154,-5.7659,-5.8137,-5.8474,-5.8896,-5.9121,-5.898,-5.8615,-5.8081,-5.7378,-5.6648,-5.6311,-5.6423,-6.9818,-6.9933,-7.0532,-7.0378,-6.962,-6.8292,-6.766,-6.7502,-6.6902,-6.6586,-6.6586,-6.6586,-6.6586,-6.6586,-6.6586,-6.6586,-6.6586,-6.6586,-6.6586,-6.6586,-6.6586,-6.6586,-6.6523,-6.589,-6.5195,-6.4468,-6.3773,-6.3078,-6.2396,-6.2116,-6.1582,-6.0897,-6.0302,-5.9213,-5.7743,-5.7333,-5.6517,-5.5209,-5.4491,-5.3803,-5.3174,-5.2486,-5.1733,-5.087,-5.0822,-5.0585,-5.0319,-5.0642,-5.0524,-4.9882,-5.0299,-5.0307,-4.9843,-4.9724,-4.9766,-4.9858,-5.0388,-5.1054,-5.1618,-5.1731,-5.1706,-5.1404,-5.11,-5.0795,-5.0543,-5.0263,-5.0348,-5.085,-5.1211,-5.1878,-5.2993,-5.3331,-5.3922,-5.4878,-5.4119,-5.3585,-5.3416,-5.2517,-5.1787,-5.1787,-5.1815,-5.204,-5.263,-5.2686,-5.263,-5.2686,-5.2602,-5.277,-5.3529,-5.4119,-5.4653,-5.5383,-5.5524,-5.5496,-5.5496,-5.5496,-5.5299,-5.4878,-5.4737,-5.4878,-5.5018,-5.5299,-5.5889,-5.6676,-5.7435,-5.8025,-5.8418,-5.8783,-5.9121,-5.8868,-5.8418,-5.7828,-5.6732,-5.6142,-5.6114,-6.9818,-6.9813,-7.006,-6.9493,-6.8419,-6.7818,-6.7376,-6.6997,-6.6712,-6.6586,-6.6586,-6.6586,-6.6586,-6.6586,-6.6586,-6.6586,-6.6586,-6.6586,-6.6586,-6.6586,-6.6586,-6.6396,-6.5954,-6.529,-6.4563,-6.39,-6.3204,-6.273,-6.2378,-6.1966,-6.1461,-6.0794,-6.025,-5.9213,-5.7713,-5.7251,-5.6466,-5.5239,-5.494,-5.4461,-5.3803,-5.3144,-5.2539,-5.201,-5.1835,-5.1591,-5.1277,-5.1341,-5.1191,-5.083,-5.0743,-5.0664,-5.0601,-5.0112,-5.0064,-5.0649,-5.113,-5.1506,-5.1759,-5.1651,-5.1431,-5.1155,-5.0822,-5.0543,-5.0235,-5.0066,-5.0123,-5.0348,-5.0795,-5.1572,-5.2546,-5.2939,-5.3585,-5.4512,-5.3838,-5.3248,-5.367,-5.2545,-5.1787,-5.1787,-5.2124,-5.2545,-5.3107,-5.3276,-5.3107,-5.2826,-5.2714,-5.2995,-5.3641,-5.4203,-5.4821,-5.5327,-5.5496,-5.5496,-5.5496,-5.5496,-5.5215,-5.4765,-5.4597,-5.454,-5.4175,-5.4203,-5.4709,-5.5664,-5.6339,-5.7041,-5.7659,-5.7884,-5.8193,-5.8362,-5.8559,-5.8025,-5.7154,-5.6788,-5.6788,-6.9818,-6.9776,-6.9556,-6.8703,-6.7597,-6.7376,-6.706,-6.6617,-6.6586,-6.6586,-6.6586,-6.6586,-6.6586,-6.6586,-6.6586,-6.6586,-6.6586,-6.6586,-6.6586,-6.6586,-6.6586,-6.6238,-6.5595,-6.4848,-6.4203,-6.3589,-6.2893,-6.2545,-6.2464,-6.2066,-6.1531,-6.1,-6.0512,-5.937,-5.7846,-5.7385,-5.6569,-5.5329,-5.5209,-5.494,-5.4491,-5.3982,-5.3416,-5.2744,-5.2516,-5.2218,-5.1917,-5.1889,-5.1788,-5.1614,-5.1352,-5.1193,-5.1148,-5.0612,-5.0616,-5.1321,-5.1642,-5.1787,-5.1787,-5.1541,-5.1266,-5.0906,-5.0655,-5.0402,-5.0066,-5.001,-5.001,-5.0066,-5.046,-5.1182,-5.1904,-5.2408,-5.3079,-5.3977,-5.3276,-5.2939,-5.3248,-5.2405,-5.1871,-5.204,-5.2433,-5.3023,-5.3697,-5.3754,-5.3473,-5.3107,-5.2995,-5.3079,-5.3669,-5.4316,-5.5046,-5.544,-5.5496,-5.5496,-5.5496,-5.5299,-5.5018,-5.4512,-5.4203,-5.381,-5.3473,-5.3416,-5.3641,-5.4625,-5.499,-5.544,-5.617,-5.6564,-5.7069,-5.7603,-5.7884,-5.7884,-5.7407,-5.735,-5.735,-6.9818,-6.9714,-6.9052,-6.8292,-6.7534,-6.6933,-6.6649,-6.6586,-6.6586,-6.6586,-6.6586,-6.6586,-6.6586,-6.6586,-6.6586,-6.6586,-6.6586,-6.6586,-6.6586,-6.6586,-6.6586,-6.6238,-6.5595,-6.4848,-6.4254,-6.3839,-6.3108,-6.2759,-6.2759,-6.2481,-6.2085,-6.1531,-6.1,-5.9808,-5.8185,-5.7674,-5.6805,-5.5379,-5.5209,-5.5179,-5.5119,-5.5089,-5.4181,-5.2752,-5.2446,-5.2285,-5.1831,-5.2223,-5.2281,-5.1672,-5.2136,-5.2092,-5.135,-5.1442,-5.1591,-5.1755,-5.1759,-5.1787,-5.1787,-5.1541,-5.1266,-5.0906,-5.0599,-5.0319,-5.0066,-5.001,-5.001,-5.001,-5.0319,-5.0817,-5.134,-5.1847,-5.2491,-5.3133,-5.2939,-5.2687,-5.277,-5.2321,-5.2124,-5.2489,-5.2714,-5.322,-5.4288,-5.4007,-5.3641,-5.3501,-5.3557,-5.3613,-5.3838,-5.4681,-5.5385,-5.5526,-5.5554,-5.5496,-5.544,-5.5102,-5.4512,-5.3978,-5.3529,-5.2883,-5.2798,-5.2826,-5.322,-5.3613,-5.4119,-5.4512,-5.4765,-5.5215,-5.5833,-5.6451,-5.7238,-5.7322,-5.7407,-5.7435,-5.7575,-6.9262,-6.875,-6.8224,-6.7597,-6.6965,-6.6712,-6.6586,-6.6586,-6.6586,-6.6586,-6.6586,-6.6586,-6.6586,-6.6586,-6.6586,-6.6586,-6.6586,-6.6586,-6.6586,-6.6586,-6.6586,-6.6238,-6.5543,-6.4848,-6.4254,-6.3839,-6.3157,-6.2808,-6.2759,-6.2531,-6.2135,-6.1582,-6.1103,-5.9859,-5.8297,-5.7695,-5.6805,-5.5379,-5.5209,-5.5209,-5.5209,-5.5209,-5.4788,-5.3968,-5.3757,-5.337,-5.2833,-5.3065,-5.3065,-5.2833,-5.2688,-5.2451,-5.2206,-5.1875,-5.1779,-5.1813,-5.1787,-5.1787,-5.1732,-5.1348,-5.1017,-5.0906,-5.046,-5.015,-5.001,-5.001,-5.001,-5.001,-5.0093,-5.0342,-5.0564,-5.1013,-5.171,-5.2407,-5.2212,-5.2155,-5.2518,-5.2517,-5.2489,-5.2714,-5.3023,-5.3557,-5.3726,-5.3445,-5.3079,-5.3079,-5.3388,-5.367,-5.3923,-5.491,-5.5731,-5.5787,-5.5787,-5.5816,-5.5787,-5.5106,-5.4372,-5.3782,-5.322,-5.263,-5.2349,-5.2208,-5.2489,-5.2911,-5.3388,-5.3613,-5.3838,-5.4372,-5.4906,-5.5243,-5.603,-5.7041,-5.7378,-5.7659,-5.8137,-6.8706,-6.8202,-6.7666,-6.7164,-6.6649,-6.6586,-6.6586,-6.6586,-6.6586,-6.6586,-6.6586,-6.6586,-6.6586,-6.6586,-6.6586,-6.6586,-6.6586,-6.6586,-6.6586,-6.6586,-6.6586,-6.6238,-6.5543,-6.4848,-6.4305,-6.3956,-6.3451,-6.3148,-6.3051,-6.2808,-6.2383,-6.1834,-6.1328,-6.0116,-5.8471,-5.7931,-5.6958,-5.5651,-5.5259,-5.5209,-5.5209,-5.5209,-5.5108,-5.4773,-5.4487,-5.4097,-5.3658,-5.3553,-5.35,-5.3442,-5.3094,-5.2804,-5.2677,-5.2113,-5.1787,-5.1787,-5.1787,-5.1787,-5.1732,-5.1348,-5.1017,-5.0906,-5.046,-5.0123,-5.001,-5.001,-5.001,-5.015,-5.0093,-5.001,-5.0179,-5.046,-5.096,-5.1655,-5.1572,-5.1654,-5.2294,-5.2405,-5.2489,-5.2742,-5.3248,-5.367,-5.3641,-5.3219,-5.2993,-5.288,-5.3359,-5.3612,-5.3838,-5.4658,-5.5652,-5.5794,-5.5822,-5.5794,-5.568,-5.5026,-5.4374,-5.3754,-5.2938,-5.2319,-5.2066,-5.1898,-5.1954,-5.2264,-5.2517,-5.2686,-5.3023,-5.3585,-5.3894,-5.4091,-5.5243,-5.6451,-5.7154,-5.8053,-5.8418,-6.827,-6.7998,-6.748,-6.6919,-6.6596,-6.6617,-6.6586,-6.6586,-6.6586,-6.6586,-6.6586,-6.6586,-6.6586,-6.6586,-6.6586,-6.6586,-6.6586,-6.6586,-6.6586,-6.6586,-6.6586,-6.6238,-6.5574,-6.4848,-6.431,-6.4075,-6.403,-6.3802,-6.3484,-6.3244,-6.2905,-6.2333,-6.1834,-6.0594,-5.8793,-5.8227,-5.7213,-5.5882,-5.533,-5.5209,-5.5209,-5.5209,-5.5108,-5.4824,-5.4487,-5.42,-5.389,-5.3658,-5.35,-5.35,-5.35,-5.3237,-5.2705,-5.2167,-5.1787,-5.1841,-5.1787,-5.1787,-5.1787,-5.1541,-5.1211,-5.0962,-5.0655,-5.0375,-5.0179,-5.0123,-5.0179,-5.0375,-5.0263,-5.015,-5.0375,-5.0263,-5.0319,-5.0822,-5.1155,-5.1487,-5.1734,-5.1843,-5.204,-5.2658,-5.3276,-5.367,-5.3613,-5.3302,-5.3071,-5.3126,-5.3378,-5.3628,-5.3658,-5.4339,-5.4824,-5.5337,-5.5508,-5.5508,-5.528,-5.4938,-5.4346,-5.3669,-5.2766,-5.2089,-5.2143,-5.2059,-5.2004,-5.2232,-5.2068,-5.2236,-5.2264,-5.277,-5.2854,-5.3248,-5.4597,-5.5664,-5.6367,-5.7154,-5.8278,-6.7361,-6.69,-6.6627,-6.6434,-6.6352,-6.6512,-6.6586,-6.6617,-6.6586,-6.6586,-6.6586,-6.6586,-6.6586,-6.6586,-6.6586,-6.6586,-6.6586,-6.6586,-6.6586,-6.6586,-6.6586,-6.6238,-6.5543,-6.4848,-6.4152,-6.3627,-6.3661,-6.3707,-6.3612,-6.3484,-6.3148,-6.2481,-6.2234,-6.0965,-5.8935,-5.8379,-5.7416,-5.5812,-5.533,-5.5179,-5.5209,-5.5209,-5.5158,-5.5027,-5.459,-5.4252,-5.4149,-5.3762,-5.35,-5.35,-5.35,-5.3372,-5.2947,-5.2411,-5.2059,-5.2059,-5.1896,-5.1787,-5.1787,-5.1541,-5.1376,-5.1211,-5.0934,-5.0739,-5.0628,-5.0628,-5.0628,-5.0739,-5.0543,-5.0402,-5.0431,-5.0206,-5.0179,-5.0599,-5.0878,-5.1211,-5.1542,-5.2014,-5.2461,-5.2658,-5.3078,-5.3132,-5.2848,-5.2727,-5.2889,-5.2972,-5.3283,-5.3566,-5.3735,-5.4242,-5.4814,-5.5101,-5.513,-5.513,-5.4957,-5.4672,-5.4166,-5.366,-5.2869,-5.225,-5.2304,-5.2304,-5.2221,-5.2113,-5.195,-5.1869,-5.1898,-5.1955,-5.2124,-5.2433,-5.3501,-5.4372,-5.5131,-5.6198,-5.7435,-6.6827,-6.6257,-6.5989,-6.5924,-6.6032,-6.6352,-6.6459,-6.6459,-6.6565,-6.6586,-6.6586,-6.6586,-6.6586,-6.6586,-6.6586,-6.6586,-6.6586,-6.6586,-6.6586,-6.6586,-6.6586,-6.6238,-6.5532,-6.4665,-6.3934,-6.3372,-6.3469,-6.366,-6.3755,-6.366,-6.3293,-6.2808,-6.2481,-6.1451,-5.9544,-5.8804,-5.7708,-5.6264,-5.5601,-5.528,-5.5259,-5.5209,-5.5209,-5.5128,-5.4641,-5.4304,-5.4252,-5.3815,-5.35,-5.3448,-5.3424,-5.3266,-5.3083,-5.268,-5.2411,-5.2329,-5.225,-5.2113,-5.195,-5.1787,-5.1596,-5.1404,-5.1211,-5.1017,-5.0962,-5.0906,-5.0906,-5.085,-5.0655,-5.0515,-5.0459,-5.0206,-5.0123,-5.0263,-5.0599,-5.0934,-5.1377,-5.1959,-5.2376,-5.2514,-5.2707,-5.2618,-5.2525,-5.2627,-5.2841,-5.2927,-5.3263,-5.3575,-5.3662,-5.4054,-5.4396,-5.471,-5.4826,-5.4797,-5.4797,-5.44,-5.392,-5.3525,-5.3045,-5.2684,-5.2573,-5.2573,-5.2519,-5.2329,-5.2221,-5.2059,-5.2061,-5.1869,-5.1927,-5.2321,-5.2741,-5.3585,-5.4597,-5.558,-5.676,-6.6658,-6.614,-6.5575,-6.546,-6.57,-6.6032,-6.6192,-6.6277,-6.6459,-6.6565,-6.6617,-6.6586,-6.6586,-6.6586,-6.6586,-6.6586,-6.6586,-6.6586,-6.6586,-6.6586,-6.6459,-6.6017,-6.5184,-6.4197,-6.3475,-6.3227,-6.3421,-6.3707,-6.385,-6.3755,-6.3469,-6.3131,-6.2678,-6.1838,-6.0571,-5.9433,-5.8316,-5.702,-5.6093,-5.5551,-5.5259,-5.5209,-5.5209,-5.5128,-5.4641,-5.4304,-5.4149,-5.3815,-5.35,-5.3477,-5.3319,-5.3266,-5.3107,-5.2894,-5.2812,-5.2787,-5.2734,-5.2491,-5.2275,-5.2113,-5.1978,-5.1596,-5.1431,-5.1266,-5.1072,-5.1072,-5.1072,-5.1072,-5.0822,-5.0627,-5.0543,-5.0319,-5.0179,-5.0123,-5.0487,-5.0822,-5.1321,-5.1679,-5.2008,-5.2198,-5.225,-5.2358,-5.268,-5.2947,-5.3107,-5.3213,-5.3429,-5.3564,-5.3698,-5.3902,-5.396,-5.4192,-5.4507,-5.4483,-5.4454,-5.4342,-5.3864,-5.3588,-5.3275,-5.3164,-5.2894,-5.2841,-5.2894,-5.2705,-5.2491,-5.2329,-5.2221,-5.2113,-5.2004,-5.2256,-5.2766,-5.3332,-5.4176,-5.5248,-5.6176,-6.6268,-6.5276,-6.528,-6.5351,-6.546,-6.5731,-6.5947,-6.6224,-6.6277,-6.6406,-6.6565,-6.6586,-6.6617,-6.6586,-6.6586,-6.6586,-6.6586,-6.6586,-6.6586,-6.6523,-6.6048,-6.5132,-6.4089,-6.3223,-6.2883,-6.2905,-6.3196,-6.3437,-6.3707,-6.3802,-6.3612,-6.3228,-6.3002,-6.2263,-6.0962,-6.0198,-5.8905,-5.7484,-5.6678,-5.5932,-5.5289,-5.5209,-5.5108,-5.4905,-5.4539,-5.42,-5.4045,-5.3867,-5.371,-5.35,-5.3658,-5.3658,-5.3658,-5.3605,-5.3448,-5.3237,-5.3078,-5.2865,-5.2627,-5.2329,-5.2113,-5.2033,-5.176,-5.1651,-5.1568,-5.1568,-5.1568,-5.1513,-5.1321,-5.1183,-5.11,-5.0878,-5.0683,-5.0683,-5.0795,-5.1072,-5.1513,-5.1732,-5.1896,-5.2195,-5.2411,-5.268,-5.3001,-5.3184,-5.3448,-5.3605,-5.3762,-5.3867,-5.3919,-5.4023,-5.4147,-5.4192,-5.4339,-5.4234,-5.4101,-5.4048,-5.3885,-5.3646,-5.353,-5.3635,-5.3343,-5.316,-5.3213,-5.3184,-5.2919,-5.2759,-5.2598,-5.2491,-5.2437,-5.2329,-5.2613,-5.3154,-5.4034,-5.497,-5.579,-6.6119,-6.4918,-6.5022,-6.5132,-6.5132,-6.5406,-6.5677,-6.5817,-6.5947,-6.6192,-6.6406,-6.6459,-6.6512,-6.6586,-6.6586,-6.6586,-6.6586,-6.6586,-6.6428,-6.5985,-6.5132,-6.4247,-6.3457,-6.2762,-6.2562,-6.2808,-6.2954,-6.3148,-6.3421,-6.3612,-6.3421,-6.3099,-6.3002,-6.2439,-6.1532,-6.0646,-5.9606,-5.8132,-5.7233,-5.6295,-5.5441,-5.5259,-5.5128,-5.4926,-5.4641,-5.4385,-5.4126,-5.4045,-5.3971,-5.3815,-5.3919,-5.4045,-5.4075,-5.4045,-5.3942,-5.371,-5.35,-5.329,-5.2894,-5.2573,-5.2358,-5.2195,-5.195,-5.1841,-5.1787,-5.1896,-5.195,-5.1787,-5.1651,-5.1541,-5.1376,-5.1183,-5.1128,-5.1238,-5.1403,-5.1568,-5.1787,-5.1896,-5.2167,-5.2519,-5.2734,-5.3001,-5.3372,-5.3553,-5.3762,-5.3942,-5.4045,-5.4149,-5.4252,-5.4304,-5.4355,-5.4355,-5.4355,-5.4289,-5.4266,-5.4215,-5.4163,-5.3948,-5.3815,-5.3919,-5.3867,-5.3605,-5.3658,-5.3605,-5.3343,-5.3184,-5.3078,-5.2919,-5.2759,-5.2705,-5.2734,-5.3077,-5.3911,-5.4683,-5.551,-6.6119,-6.4888,-6.4888,-6.4888,-6.4943,-6.5132,-6.5297,-6.5351,-6.5569,-6.5839,-6.6085,-6.6192,-6.6352,-6.6533,-6.6565,-6.6586,-6.6586,-6.6459,-6.589,-6.5164,-6.4216,-6.3489,-6.3236,-6.2699,-6.2545,-6.271,-6.2759,-6.2954,-6.3148,-6.3228,-6.3083,-6.2905,-6.2856,-6.2562,-6.1927,-6.1139,-6.0116,-5.8935,-5.7719,-5.6738,-5.5832,-5.545,-5.5128,-5.5027,-5.4773,-5.4539,-5.4385,-5.4304,-5.4282,-5.4023,-5.42,-5.4355,-5.4355,-5.4355,-5.4252,-5.4045,-5.3971,-5.371,-5.3266,-5.2947,-5.2627,-5.2383,-5.2113,-5.1896,-5.2004,-5.2167,-5.2195,-5.2004,-5.1896,-5.1841,-5.1623,-5.1513,-5.1623,-5.1841,-5.2113,-5.2113,-5.2059,-5.2113,-5.2465,-5.3001,-5.3136,-5.3424,-5.3762,-5.3971,-5.4075,-5.4333,-5.4385,-5.4487,-5.4539,-5.4611,-5.459,-5.459,-5.4509,-5.4406,-5.4385,-5.4385,-5.4385,-5.4304,-5.4149,-5.42,-5.4333,-5.423,-5.4149,-5.4045,-5.3867,-5.371,-5.3605,-5.3395,-5.3184,-5.3131,-5.3237,-5.3399,-5.3729,-5.4448,-5.5194,-6.6119,-6.4888,-6.4888,-6.4888,-6.4888,-6.4943,-6.5077,-6.5297,-6.5351,-6.5569,-6.5839,-6.6085,-6.6192,-6.6299,-6.6512,-6.6586,-6.6459,-6.5985,-6.5132,-6.3963,-6.371,-6.3141,-6.2793,-6.2428,-6.2446,-6.2513,-6.271,-6.2808,-6.2905,-6.3034,-6.3083,-6.2808,-6.2759,-6.2661,-6.2284,-6.1628,-6.092,-5.9866,-5.8481,-5.7334,-5.6415,-5.563,-5.5138,-5.4955,-5.4671,-5.4436,-5.4355,-5.4539,-5.4671,-5.4619,-5.4649,-5.473,-5.4722,-5.4875,-5.4824,-5.4568,-5.4333,-5.4045,-5.371,-5.3295,-5.3029,-5.2898,-5.2687,-5.2491,-5.2519,-5.2601,-5.2601,-5.2519,-5.2491,-5.2411,-5.2275,-5.2411,-5.2411,-5.2465,-5.2573,-5.2652,-5.2734,-5.268,-5.2894,-5.3266,-5.3477,-5.3605,-5.4149,-5.42,-5.4385,-5.4619,-5.4722,-5.4773,-5.4875,-5.4896,-5.4845,-5.4794,-5.4794,-5.4743,-5.4692,-5.4641,-5.4641,-5.4641,-5.4539,-5.4509,-5.4641,-5.4641,-5.4539,-5.4487,-5.4385,-5.423,-5.4126,-5.4075,-5.389,-5.3838,-5.3762,-5.3925,-5.412,-5.4569,-5.501,-6.6119,-6.4918,-6.4888,-6.4888,-6.4888,-6.4888,-6.4998,-6.5108,-6.5108,-6.5242,-6.5515,-6.5731,-6.5924,-6.6224,-6.6352,-6.6301,-6.5922,-6.5037,-6.4216,-6.352,-6.3173,-6.2762,-6.2491,-6.2396,-6.2396,-6.2446,-6.2513,-6.2612,-6.2661,-6.2741,-6.271,-6.2612,-6.2612,-6.2513,-6.2365,-6.1866,-6.1208,-6.0296,-5.9134,-5.8052,-5.7263,-5.6191,-5.5398,-5.5206,-5.5215,-5.5394,-5.5475,-5.5854,-5.5927,-5.5696,-5.5475,-5.5304,-5.5036,-5.5078,-5.5027,-5.4803,-5.4487,-5.42,-5.3867,-5.3685,-5.3568,-5.3539,-5.3528,-5.3391,-5.3277,-5.3217,-5.3152,-5.298,-5.2841,-5.2841,-5.2734,-5.2841,-5.2841,-5.2894,-5.3001,-5.3213,-5.3372,-5.3266,-5.3213,-5.3605,-5.3815,-5.4075,-5.4333,-5.4487,-5.4641,-5.4875,-5.4926,-5.5027,-5.5027,-5.5078,-5.5128,-5.5078,-5.5128,-5.5078,-5.4976,-5.4976,-5.4976,-5.4976,-5.4926,-5.4926,-5.4976,-5.4926,-5.4824,-5.4773,-5.4692,-5.4641,-5.4539,-5.459,-5.4458,-5.42,-5.4104,-5.4332,-5.4609,-5.507,-5.5351,-6.618,-6.5042,-6.4949,-6.4888,-6.4888,-6.4888,-6.4888,-6.4888,-6.4888,-6.5053,-6.5187,-6.5297,-6.5623,-6.5947,-6.6035,-6.5754,-6.5049,-6.4247,-6.352,-6.3173,-6.2762,-6.2491,-6.2396,-6.2396,-6.2396,-6.2396,-6.2446,-6.2446,-6.2446,-6.2396,-6.2495,-6.2414,-6.2446,-6.2446,-6.2266,-6.1935,-6.1414,-6.0714,-5.9676,-5.8836,-5.8155,-5.7139,-5.6281,-5.6071,-5.6353,-5.6696,-5.6787,-5.7139,-5.729,-5.6807,-5.6432,-5.5969,-5.5478,-5.5209,-5.5248,-5.4973,-5.4827,-5.4657,-5.458,-5.4396,-5.4335,-5.4227,-5.4495,-5.4443,-5.4099,-5.3974,-5.3823,-5.3506,-5.3304,-5.3107,-5.2894,-5.3054,-5.316,-5.3213,-5.3372,-5.3605,-5.3815,-5.371,-5.3815,-5.4023,-5.423,-5.4436,-5.4671,-5.4824,-5.4976,-5.5128,-5.5179,-5.5209,-5.5209,-5.5209,-5.5209,-5.5209,-5.5209,-5.5209,-5.5128,-5.5078,-5.5158,-5.5128,-5.5128,-5.5128,-5.5179,-5.5078,-5.5027,-5.5078,-5.5078,-5.4976,-5.4926,-5.4875,-5.4692,-5.4458,-5.4385,-5.4503,-5.4945,-5.5535,-5.5766,-6.6457,-6.5688,-6.5134,-6.4888,-6.4888,-6.4888,-6.4888,-6.4888,-6.4888,-6.4943,-6.4998,-6.5187,-6.5351,-6.5413,-6.5343,-6.481,-6.4051,-6.347,-6.3141,-6.2762,-6.2428,-6.2396,-6.2396,-6.2396,-6.2396,-6.2396,-6.2396,-6.2396,-6.2396,-6.2396,-6.2396,-6.2396,-6.2396,-6.2396,-6.2347,-6.2066,-6.1753,-6.122,-6.027,-5.9522,-5.9021,-5.8164,-5.7474,-5.7293,-5.7577,-5.7749,-5.7749,-5.784,-5.7737,-5.7411,-5.6877,-5.6453,-5.6059,-5.5619,-5.5517,-5.5654,-5.5597,-5.5433,-5.5583,-5.5611,-5.5405,-5.5271,-5.5311,-5.5311,-5.5021,-5.4645,-5.4327,-5.4033,-5.3656,-5.3395,-5.3372,-5.3372,-5.3424,-5.3448,-5.3448,-5.3605,-5.3838,-5.4045,-5.423,-5.4517,-5.4671,-5.4773,-5.4926,-5.5057,-5.5078,-5.5128,-5.5179,-5.5209,-5.5209,-5.5209,-5.5209,-5.5209,-5.5209,-5.5209,-5.5179,-5.5179,-5.5209,-5.5209,-5.5179,-5.5179,-5.5179,-5.5179,-5.5179,-5.528,-5.5229,-5.5128,-5.5078,-5.5078,-5.5027,-5.4845,-5.4773,-5.4722,-5.5115,-5.5619,-5.609,-6.6519,-6.5842,-6.5165,-6.4888,-6.4888,-6.4888,-6.4888,-6.4888,-6.4888,-6.4888,-6.4943,-6.5022,-6.4971,-6.4824,-6.4729,-6.4163,-6.3406,-6.2846,-6.2612,-6.2396,-6.2396,-6.2396,-6.2396,-6.2396,-6.2396,-6.2396,-6.2396,-6.2396,-6.2396,-6.2396,-6.2396,-6.2396,-6.2396,-6.2396,-6.2347,-6.2116,-6.1916,-6.1438,-6.0763,-6.0167,-5.9848,-5.8957,-5.8428,-5.8185,-5.847,-5.8725,-5.8786,-5.9152,-5.9009,-5.858,-5.7937,-5.745,-5.6934,-5.6509,-5.6166,-5.6205,-5.6206,-5.6212,-5.6362,-5.6275,-5.6213,-5.6023,-5.6171,-5.62,-5.5881,-5.5387,-5.472,-5.4081,-5.382,-5.35,-5.3448,-5.35,-5.35,-5.35,-5.35,-5.371,-5.3993,-5.42,-5.4539,-5.4875,-5.4976,-5.5027,-5.5078,-5.5209,-5.5209,-5.5209,-5.5209,-5.5209,-5.5209,-5.5209,-5.5209,-5.5209,-5.5209,-5.5209,-5.5209,-5.5209,-5.5209,-5.5209,-5.5209,-5.5209,-5.5229,-5.5229,-5.533,-5.5431,-5.533,-5.528,-5.5179,-5.5179,-5.5179,-5.5229,-5.5078,-5.5036,-5.5334,-5.5678,-5.6265,-6.6611,-6.6057,-6.5226,-6.4888,-6.4888,-6.4888,-6.4888,-6.4888,-6.4888,-6.4888,-6.4888,-6.4703,-6.4498,-6.4197,-6.3893,-6.3422,-6.2762,-6.2135,-6.2129,-6.2297,-6.2297,-6.2347,-6.2396,-6.2396,-6.2396,-6.2396,-6.2396,-6.2396,-6.2396,-6.2396,-6.2396,-6.2396,-6.2396,-6.2396,-6.2347,-6.2216,-6.1916,-6.1613,-6.1257,-6.0845,-6.0328,-5.9753,-5.9131,-5.8674,-5.9307,-5.9685,-5.9716,-6.0053,-6.0031,-5.9488,-5.8954,-5.8346,-5.7872,-5.7491,-5.7064,-5.6735,-5.6855,-5.6829,-5.6917,-5.6971,-5.702,-5.6773,-5.7069,-5.6955,-5.6549,-5.5765,-5.4865,-5.382,-5.35,-5.35,-5.35,-5.35,-5.35,-5.35,-5.35,-5.3658,-5.4045,-5.4355,-5.459,-5.4926,-5.5128,-5.5209,-5.5209,-5.5209,-5.5209,-5.5209,-5.5209,-5.5209,-5.5209,-5.5209,-5.5209,-5.5209,-5.5209,-5.5209,-5.5209,-5.5209,-5.5209,-5.5209,-5.5259,-5.5259,-5.528,-5.533,-5.5431,-5.5631,-5.5581,-5.5531,-5.5381,-5.533,-5.5481,-5.5531,-5.533,-5.537,-5.5469,-5.6025,-5.6706,-6.6858,-6.6673,-6.5442,-6.4888,-6.4888,-6.4888,-6.4888,-6.4888,-6.4888,-6.4888,-6.4764,-6.4272,-6.3933,-6.3611,-6.2836,-6.2229,-6.1874,-6.1758,-6.1784,-6.2016,-6.2066,-6.2166,-6.2396,-6.2396,-6.2396,-6.2396,-6.2396,-6.2396,-6.2396,-6.2396,-6.2396,-6.2396,-6.2396,-6.2396,-6.2396,-6.2315,-6.2216,-6.1935,-6.1633,-6.1226,-6.0815,-6.0567,-6.0444,-6.0413,-6.0444,-6.0475,-6.0444,-6.0628,-6.0515,-6.0246,-5.9414,-5.8827,-5.8475,-5.8181,-5.7992,-5.7932,-5.7969,-5.8047,-5.8164,-5.7985,-5.7768,-5.7406,-5.7414,-5.7301,-5.6694,-5.5939,-5.4894,-5.3675,-5.35,-5.35,-5.35,-5.35,-5.35,-5.35,-5.35,-5.3815,-5.4149,-5.4304,-5.459,-5.4976,-5.5179,-5.5209,-5.5209,-5.5209,-5.5209,-5.5209,-5.5209,-5.5209,-5.5209,-5.5209,-5.5209,-5.5209,-5.5209,-5.5209,-5.5209,-5.5209,-5.5229,-5.5229,-5.531,-5.536,-5.5481,-5.5581,-5.5731,-5.583,-5.583,-5.588,-5.588,-5.588,-5.5929,-5.578,-5.5631,-5.5581,-5.5561,-5.6251,-5.7086,-6.6919,-6.6796,-6.5472,-6.4888,-6.4888,-6.4888,-6.4888,-6.4888,-6.4888,-6.4672,-6.4303,-6.3995,-6.3441,-6.2641,-6.1782,-6.1413,-6.1339,-6.1359,-6.1512,-6.1714,-6.1815,-6.1916,-6.2116,-6.2166,-6.2216,-6.2396,-6.2396,-6.2396,-6.2396,-6.2396,-6.2396,-6.2396,-6.2396,-6.2396,-6.2396,-6.2396,-6.2216,-6.2016,-6.1734,-6.1379,-6.1155,-6.1,-6.0949,-6.0794,-6.0794,-6.0794,-6.0794,-6.0794,-6.0742,-6.0555,-6.0041,-5.9718,-5.9403,-5.9084,-5.8841,-5.868,-5.868,-5.8668,-5.8605,-5.839,-5.8114,-5.7836,-5.747,-5.6984,-5.6374,-5.5736,-5.4865,-5.3617,-5.35,-5.35,-5.35,-5.35,-5.35,-5.35,-5.35,-5.3867,-5.4149,-5.4252,-5.4458,-5.4845,-5.5209,-5.5209,-5.5209,-5.5209,-5.5209,-5.5209,-5.5209,-5.5209,-5.5209,-5.5209,-5.5209,-5.5209,-5.5209,-5.5209,-5.5209,-5.5209,-5.533,-5.5381,-5.5481,-5.5531,-5.5731,-5.588,-5.5979,-5.6127,-5.6176,-5.6274,-5.6372,-5.6225,-5.6077,-5.5979,-5.5929,-5.583,-5.5821,-5.6615,-5.7461,-6.6673,-6.655,-6.538,-6.4888,-6.4888,-6.4888,-6.4888,-6.4888,-6.4672,-6.4303,-6.3787,-6.3387,-6.261,-6.1686,-6.1101,-6.101,-6.1103,-6.1103,-6.1257,-6.141,-6.1563,-6.1664,-6.1815,-6.1916,-6.2016,-6.2266,-6.2266,-6.2315,-6.2396,-6.2396,-6.2396,-6.2396,-6.2396,-6.2396,-6.2396,-6.2396,-6.2266,-6.2016,-6.1784,-6.1563,-6.1257,-6.1155,-6.1,-6.0897,-6.0794,-6.0794,-6.0794,-6.0794,-6.0794,-6.0742,-6.0503,-6.0128,-5.9872,-5.9546,-5.9278,-5.9063,-5.9009,-5.8931,-5.8828,-5.8555,-5.8225,-5.7863,-5.747,-5.6926,-5.5997,-5.5533,-5.5039,-5.3907,-5.3588,-5.3559,-5.35,-5.35,-5.35,-5.35,-5.35,-5.3867,-5.4149,-5.4252,-5.4509,-5.4976,-5.5209,-5.5209,-5.5209,-5.5209,-5.5209,-5.5209,-5.5209,-5.5209,-5.5209,-5.5209,-5.5209,-5.5209,-5.5209,-5.5179,-5.5229,-5.528,-5.5381,-5.5581,-5.5631,-5.578,-5.6028,-5.6127,-5.6225,-5.6323,-5.647,-5.6519,-5.6616,-5.6372,-5.6176,-5.6225,-5.6225,-5.6077,-5.6263,-5.6979,-5.8061,-6.5965,-6.5903,-6.5195,-6.4888,-6.4888,-6.4888,-6.4888,-6.4826,-6.421,-6.3872,-6.3472,-6.2548,-6.1625,-6.104,-6.0886,-6.0794,-6.0845,-6.0845,-6.1,-6.1155,-6.1257,-6.141,-6.1563,-6.1633,-6.1734,-6.2016,-6.2016,-6.2166,-6.2315,-6.2266,-6.2347,-6.2396,-6.2396,-6.2396,-6.2396,-6.2396,-6.2266,-6.2066,-6.1966,-6.1664,-6.1359,-6.1206,-6.1052,-6.0845,-6.0794,-6.0794,-6.0794,-6.0794,-6.0794,-6.0794,-6.0586,-6.0302,-5.9986,-5.9773,-5.9506,-5.9153,-5.9099,-5.9045,-5.8936,-5.8719,-5.85,-5.8085,-5.7637,-5.7013,-5.6258,-5.5678,-5.5097,-5.44,-5.3849,-5.353,-5.35,-5.35,-5.35,-5.35,-5.3553,-5.3785,-5.4097,-5.4252,-5.4539,-5.5027,-5.5209,-5.5209,-5.5209,-5.5209,-5.5209,-5.5209,-5.5209,-5.5209,-5.5209,-5.5209,-5.5209,-5.5209,-5.5209,-5.5229,-5.5229,-5.5381,-5.5531,-5.578,-5.588,-5.6077,-5.6323,-5.6421,-5.647,-5.6567,-5.6664,-5.6761,-5.6761,-5.6616,-5.6519,-5.6616,-5.6598,-5.6494,-5.6675,-5.7274,-5.8602,-6.5688,-6.5257,-6.498,-6.4888,-6.4888,-6.4888,-6.4888,-6.4764,-6.4118,-6.3287,-6.2548,-6.1594,-6.104,-6.0855,-6.0794,-6.0794,-6.0794,-6.0794,-6.0897,-6.0897,-6.1,-6.1103,-6.1257,-6.141,-6.1512,-6.1714,-6.1765,-6.1734,-6.1866,-6.1966,-6.1916,-6.1966,-6.2216,-6.2396,-6.2396,-6.2396,-6.2347,-6.2216,-6.2066,-6.1815,-6.1512,-6.1257,-6.1052,-6.0845,-6.0794,-6.0794,-6.0794,-6.0794,-6.0794,-6.0794,-6.069,-6.0407,-6.0039,-5.9827,-5.956,-5.9153,-5.9099,-5.9099,-5.9045,-5.8857,-5.8445,-5.8003,-5.7555,-5.7071,-5.649,-5.5823,-5.5184,-5.4546,-5.3965,-5.3617,-5.35,-5.35,-5.35,-5.35,-5.3605,-5.3838,-5.4045,-5.4252,-5.459,-5.5078,-5.5179,-5.5209,-5.5209,-5.5209,-5.5209,-5.5209,-5.5209,-5.5209,-5.5209,-5.5209,-5.5209,-5.5229,-5.5229,-5.533,-5.5381,-5.5531,-5.5731,-5.5929,-5.6127,-5.6372,-5.6567,-5.6616,-5.6664,-5.6761,-5.681,-5.681,-5.681,-5.681,-5.6761,-5.6761,-5.6897,-5.7015,-5.727,-5.7659,-5.8993,-6.5319,-6.4918,-6.4888,-6.4888,-6.4888,-6.4888,-6.4888,-6.4734,-6.3903,-6.2764,-6.1502,-6.0978,-6.0794,-6.0794,-6.0794,-6.0794,-6.0794,-6.0794,-6.0794,-6.0794,-6.0845,-6.0897,-6.1,-6.1103,-6.1206,-6.141,-6.1512,-6.1512,-6.1633,-6.1582,-6.1633,-6.1734,-6.1966,-6.2116,-6.2266,-6.2266,-6.2266,-6.2116,-6.2016,-6.1765,-6.1461,-6.1308,-6.1052,-6.0845,-6.0794,-6.0794,-6.0794,-6.0794,-6.0794,-6.0742,-6.0638,-6.0429,-6.0144,-5.9827,-5.9583,-5.9261,-5.9099,-5.9099,-5.9045,-5.8857,-5.8445,-5.8059,-5.7669,-5.7239,-5.6691,-5.6084,-5.5562,-5.4894,-5.4226,-5.3762,-5.3646,-5.35,-5.35,-5.35,-5.3658,-5.3867,-5.4178,-5.4436,-5.4743,-5.5128,-5.5179,-5.5209,-5.5209,-5.5209,-5.5209,-5.5209,-5.5209,-5.5209,-5.5209,-5.5209,-5.5209,-5.5229,-5.528,-5.5431,-5.5581,-5.583,-5.6028,-5.6176,-5.6372,-5.6567,-5.6713,-5.6761,-5.681,-5.681,-5.681,-5.681,-5.681,-5.681,-5.681,-5.681,-5.6897,-5.7002,-5.7856,-5.8309,-5.9375,-6.4918,-6.4888,-6.4888,-6.4888,-6.4888,-6.4888,-6.4888,-6.4734,-6.3564,-6.2302,-6.1255,-6.0978,-6.0978,-6.0978,-6.104,-6.0978,-6.0917,-6.0855,-6.0794,-6.0794,-6.0794,-6.0794,-6.0845,-6.0897,-6.1,-6.1155,-6.1206,-6.1308,-6.1531,-6.143,-6.1481,-6.1531,-6.1613,-6.1815,-6.1966,-6.2016,-6.1866,-6.1683,-6.1633,-6.1461,-6.1308,-6.1155,-6.1,-6.0845,-6.0794,-6.0794,-6.0794,-6.0794,-6.0794,-6.069,-6.0534,-6.0272,-5.9933,-5.969,-5.9422,-5.9153,-5.9099,-5.9099,-5.9099,-5.8857,-5.8555,-5.8225,-5.7892,-5.7526,-5.7241,-5.6665,-5.6084,-5.5416,-5.4836,-5.4255,-5.3878,-5.3588,-5.3646,-5.3669,-5.3856,-5.3919,-5.423,-5.4539,-5.4875,-5.5128,-5.5179,-5.5209,-5.5209,-5.5209,-5.5209,-5.5209,-5.5209,-5.5209,-5.5209,-5.5209,-5.5209,-5.528,-5.533,-5.5531,-5.5731,-5.6127,-5.6372,-5.647,-5.6567,-5.6713,-5.6761,-5.6761,-5.681,-5.681,-5.681,-5.681,-5.681,-5.681,-5.681,-5.681,-5.681,-5.71,-5.7986,-5.8919,-5.9808,-6.4579,-6.4579,-6.4832,-6.4888,-6.4888,-6.4888,-6.4888,-6.4734,-6.3903,-6.2979,-6.2271,-6.2117,-6.2117,-6.2025,-6.1625,-6.1409,-6.1379,-6.0886,-6.0794,-6.0794,-6.0794,-6.0794,-6.0794,-6.0794,-6.0845,-6.0897,-6.0949,-6.1,-6.1052,-6.1155,-6.1103,-6.1103,-6.1308,-6.1512,-6.1633,-6.1734,-6.1714,-6.1613,-6.1461,-6.1257,-6.1186,-6.1052,-6.0897,-6.0794,-6.0794,-6.0794,-6.0794,-6.0794,-6.0742,-6.0586,-6.0429,-6.0167,-5.9827,-5.9476,-5.9369,-5.9153,-5.9099,-5.9099,-5.9099,-5.8991,-5.8828,-5.85,-5.8114,-5.7781,-5.7581,-5.6863,-5.6316,-5.5997,-5.5474,-5.4981,-5.4836,-5.4371,-5.4255,-5.4134,-5.4176,-5.4059,-5.4252,-5.4619,-5.4905,-5.5108,-5.5209,-5.5239,-5.5269,-5.5418,-5.5448,-5.5508,-5.5538,-5.5359,-5.5329,-5.5239,-5.5209,-5.531,-5.5381,-5.5631,-5.588,-5.6256,-5.6549,-5.6616,-5.6664,-5.6761,-5.681,-5.681,-5.681,-5.681,-5.681,-5.681,-5.681,-5.681,-5.681,-5.681,-5.6933,-5.7395,-5.8281,-5.902,-5.9696,-6.43,-6.43,-6.4579,-6.4721,-6.4777,-6.4832,-6.4764,-6.4487,-6.4026,-6.3441,-6.2887,-6.2794,-6.2794,-6.2579,-6.2179,-6.1809,-6.1717,-6.1101,-6.0794,-6.0794,-6.0794,-6.0794,-6.0794,-6.0794,-6.0794,-6.0794,-6.0794,-6.0845,-6.0845,-6.0794,-6.0845,-6.0897,-6.0949,-6.1155,-6.1308,-6.141,-6.141,-6.1308,-6.1103,-6.1052,-6.1,-6.0897,-6.0794,-6.0794,-6.0794,-6.0794,-6.0794,-6.0742,-6.069,-6.0429,-6.0219,-6.0008,-5.9636,-5.9369,-5.9261,-5.9153,-5.9099,-5.9099,-5.9099,-5.9099,-5.8936,-5.8828,-5.828,-5.7948,-5.7751,-5.7152,-5.672,-5.6316,-5.5968,-5.5678,-5.5416,-5.4952,-5.4836,-5.4715,-5.489,-5.4802,-5.4687,-5.5034,-5.5194,-5.5368,-5.5329,-5.5359,-5.5508,-5.5628,-5.5777,-5.5837,-5.5897,-5.5748,-5.5628,-5.5628,-5.5709,-5.581,-5.5902,-5.6204,-5.6362,-5.6445,-5.6659,-5.6761,-5.681,-5.681,-5.681,-5.681,-5.681,-5.684,-5.6871,-5.6871,-5.684,-5.684,-5.6994,-5.7197,-5.7369,-5.7906,-5.8689,-5.9243,-5.9818,-6.3993,-6.4049,-6.43,-6.4382,-6.4468,-6.4721,-6.4463,-6.3879,-6.3903,-6.3564,-6.2979,-6.3071,-6.3071,-6.2794,-6.2179,-6.1871,-6.1686,-6.1101,-6.0855,-6.0794,-6.0794,-6.0794,-6.0794,-6.0794,-6.0794,-6.0794,-6.0794,-6.0794,-6.0794,-6.0794,-6.0794,-6.0794,-6.0845,-6.0897,-6.1,-6.1052,-6.1103,-6.1,-6.0897,-6.0897,-6.0845,-6.0845,-6.0794,-6.0794,-6.0794,-6.0794,-6.0794,-6.0742,-6.0586,-6.0324,-6.0092,-5.9796,-5.9529,-5.9261,-5.9153,-5.9099,-5.9099,-5.9099,-5.9099,-5.9099,-5.9099,-5.8936,-5.8555,-5.8169,-5.7807,-5.744,-5.7011,-5.6723,-5.6461,-5.6055,-5.5707,-5.5591,-5.5445,-5.5575,-5.584,-5.5701,-5.5476,-5.5612,-5.5743,-5.5777,-5.5628,-5.5688,-5.6077,-5.6256,-5.6316,-5.6496,-5.6615,-5.6735,-5.6615,-5.6555,-5.6607,-5.6762,-5.6847,-5.688,-5.6998,-5.7052,-5.6984,-5.721,-5.6871,-5.681,-5.681,-5.6902,-5.6964,-5.6994,-5.6994,-5.7056,-5.7395,-5.7457,-5.7413,-5.7647,-5.8164,-5.8548,-5.9302,-5.963,-6.0155,-6.3652,-6.3709,-6.3963,-6.4075,-6.4132,-6.4218,-6.4376,-6.4555,-6.458,-6.4457,-6.4303,-6.4303,-6.3872,-6.3502,-6.2825,-6.2271,-6.1686,-6.1194,-6.0886,-6.0794,-6.0794,-6.0794,-6.0794,-6.0794,-6.0794,-6.0794,-6.0794,-6.0794,-6.0794,-6.0794,-6.0794,-6.0794,-6.0794,-6.0794,-6.0845,-6.0897,-6.0845,-6.0845,-6.0794,-6.0794,-6.0794,-6.0794,-6.0794,-6.0794,-6.0794,-6.0794,-6.0742,-6.0586,-6.0429,-6.0092,-5.9796,-5.9529,-5.9207,-5.9153,-5.9099,-5.9099,-5.9099,-5.9099,-5.9099,-5.9099,-5.9099,-5.9045,-5.8719,-5.8445,-5.8059,-5.7666,-5.7243,-5.7013,-5.6926,-5.6607,-5.6403,-5.6287,-5.6142,-5.622,-5.6401,-5.6373,-5.6208,-5.6347,-5.6534,-5.6376,-5.6226,-5.6376,-5.6735,-5.6855,-5.6944,-5.7184,-5.7363,-5.7513,-5.7573,-5.7483,-5.7528,-5.7685,-5.7674,-5.7679,-5.7739,-5.7794,-5.7617,-5.7518,-5.7303,-5.7087,-5.7056,-5.7148,-5.7179,-5.7333,-5.7611,-5.7949,-5.827,-5.8276,-5.8208,-5.882,-5.929,-5.9613,-5.9904,-6.0233,-6.0563,-6.3367,-6.3424,-6.3679,-6.388,-6.3993,-6.3993,-6.4218,-6.4554,-6.4635,-6.4721,-6.466,-6.4494,-6.4241,-6.3687,-6.2825,-6.2148,-6.1748,-6.1132,-6.0794,-6.0794,-6.0794,-6.0794,-6.0794,-6.0794,-6.0794,-6.0794,-6.0794,-6.0794,-6.0794,-6.0794,-6.0794,-6.0794,-6.0794,-6.0794,-6.0794,-6.0794,-6.0794,-6.0794,-6.0794,-6.0794,-6.0794,-6.0794,-6.0794,-6.0794,-6.0794,-6.0742,-6.0638,-6.0429,-6.0219,-5.988,-5.9529,-5.9369,-5.9153,-5.9099,-5.9099,-5.9099,-5.9099,-5.9099,-5.9099,-5.9099,-5.9099,-5.9045,-5.8857,-5.8609,-5.828,-5.7918,-5.7584,-5.7301,-5.7274,-5.7245,-5.7129,-5.7013,-5.6868,-5.6752,-5.6874,-5.6932,-5.7078,-5.7196,-5.7176,-5.7042,-5.7094,-5.7184,-5.7334,-5.7453,-5.7663,-5.8052,-5.8261,-5.8351,-5.8381,-5.8291,-5.8421,-5.855,-5.8503,-5.8398,-5.8512,-5.8519,-5.8312,-5.8146,-5.8104,-5.7888,-5.7611,-5.7672,-5.798,-5.8177,-5.8423,-5.872,-5.8955,-5.9012,-5.9067,-5.9762,-6.0253,-6.0521,-6.0721,-6.092,-6.1251,-6.3137,-6.3137,-6.3367,-6.3652,-6.388,-6.388,-6.3936,-6.3963,-6.4188,-6.4295,-6.4198,-6.3899,-6.3616,-6.3009,-6.2288,-6.1735,-6.1418,-6.0957,-6.0794,-6.0794,-6.0794,-6.0794,-6.0794,-6.0794,-6.0794,-6.0794,-6.0794,-6.0794,-6.0794,-6.0794,-6.0794,-6.0794,-6.0794,-6.0794,-6.0794,-6.0794,-6.0794,-6.0794,-6.0794,-6.0794,-6.0794,-6.0794,-6.0794,-6.0794,-6.0742,-6.0638,-6.0481,-6.0272,-6.0061,-5.969,-5.9422,-5.9315,-5.9207,-5.9099,-5.9099,-5.9099,-5.9099,-5.9099,-5.9099,-5.9099,-5.9099,-5.9045,-5.8912,-5.8748,-5.8445,-5.8059,-5.7669,-5.7472,-5.7416,-5.7303,-5.7216,-5.7187,-5.71,-5.7239,-5.7397,-5.7437,-5.7508,-5.7743,-5.7945,-5.7872,-5.7812,-5.7932,-5.8082,-5.8201,-5.8231,-5.877,-5.8919,-5.8979,-5.8949,-5.889,-5.9075,-5.9258,-5.9168,-5.9119,-5.9328,-5.9307,-5.8958,-5.8824,-5.8731,-5.8547,-5.8258,-5.8454,-5.8824,-5.9008,-5.9162,-5.9313,-5.9475,-5.9768,-6.0104,-6.0571,-6.1033,-6.142,-6.159,-6.1646,-6.174,-6.3137,-6.3137,-6.3194,-6.3252,-6.3309,-6.3309,-6.3309,-6.3367,-6.3565,-6.3577,-6.3346,-6.3158,-6.2659,-6.1828,-6.1622,-6.1216,-6.081,-6.0822,-6.0824,-6.0742,-6.0742,-6.0742,-6.0794,-6.0794,-6.0794,-6.0794,-6.0794,-6.0794,-6.0794,-6.0794,-6.0794,-6.0794,-6.0794,-6.0794,-6.0794,-6.0794,-6.0794,-6.0794,-6.0794,-6.0794,-6.0794,-6.0794,-6.0794,-6.0742,-6.0638,-6.0481,-6.0272,-5.9933,-5.9743,-5.9476,-5.9261,-5.9153,-5.9099,-5.9129,-5.9129,-5.9099,-5.9099,-5.9099,-5.9099,-5.9099,-5.9099,-5.9099,-5.8991,-5.8882,-5.8609,-5.8114,-5.7781,-5.764,-5.7472,-5.736,-5.7303,-5.7303,-5.736,-5.7584,-5.7807,-5.7882,-5.793,-5.8337,-5.8656,-5.865,-5.856,-5.862,-5.877,-5.886,-5.8949,-5.9009,-5.9039,-5.9069,-5.9069,-5.9063,-5.9278,-5.9492,-5.9736,-5.981,-6.0022,-5.9983,-5.9686,-5.9408,-5.9255,-5.907,-5.8885,-5.9224,-5.9562,-5.9747,-5.9921,-6.0043,-6.0369,-6.0882,-6.127,-6.149,-6.1639,-6.1883,-6.1995,-6.2103,-6.2135,-6.3137,-6.3137,-6.3137,-6.3137,-6.3137,-6.3137,-6.3137,-6.3137,-6.3252,-6.2882,-6.2294,-6.2309,-6.1929,-6.0981,-6.0898,-6.0654,-6.028,-6.0355,-6.0407,-6.046,-6.0586,-6.0586,-6.0638,-6.069,-6.0794,-6.0794,-6.0794,-6.0794,-6.0794,-6.0794,-6.0794,-6.0794,-6.0794,-6.0794,-6.0794,-6.0794,-6.0794,-6.0794,-6.0794,-6.0794,-6.0794,-6.0794,-6.069,-6.0638,-6.0481,-6.0272,-6.0077,-5.9848,-5.9951,-5.997,-5.9932,-5.9842,-5.9727,-5.9608,-5.9398,-5.9219,-5.9099,-5.9099,-5.9129,-5.9159,-5.9159,-5.9159,-5.9099,-5.8936,-5.8882,-5.8445,-5.8059,-5.7892,-5.7472,-5.7303,-5.7303,-5.7303,-5.7303,-5.7472,-5.7863,-5.8136,-5.8436,-5.8733,-5.8949,-5.8919,-5.886,-5.889,-5.8979,-5.8979,-5.9069,-5.9069,-5.9099,-5.9129,-5.9129,-5.9099,-5.9369,-5.9667,-5.9827,-6.0092,-6.0276,-6.0331,-6.0301,-6.0055,-5.9778,-5.9839,-5.987,-6.0055,-6.027,-6.0301,-6.0496,-6.0876,-6.1266,-6.1563,-6.1866,-6.1959,-6.2171,-6.2333,-6.2396,-6.2396,-6.2396,-6.3137,-6.3137,-6.3137,-6.3137,-6.3137,-6.3137,-6.3137,-6.3137,-6.3137,-6.2391,-6.1489,-6.178,-6.1425,-6.0698,-6.0236,-6.0054,-6.0016,-6.0092,-6.0039,-6.0092,-6.0302,-6.0355,-6.0429,-6.0534,-6.0586,-6.069,-6.069,-6.0742,-6.0794,-6.0794,-6.0794,-6.0794,-6.0794,-6.0794,-6.0794,-6.0794,-6.0794,-6.0794,-6.0742,-6.0742,-6.0742,-6.0742,-6.0586,-6.0481,-6.0272,-6.0008,-5.9818,-5.9934,-6.0186,-6.0376,-6.0505,-6.0386,-6.0146,-5.9907,-5.9548,-5.9308,-5.9338,-5.9338,-5.9338,-5.9368,-5.9338,-5.9279,-5.9189,-5.9129,-5.905,-5.8922,-5.8538,-5.8206,-5.7786,-5.7418,-5.7418,-5.7361,-5.7361,-5.7474,-5.7977,-5.8474,-5.8833,-5.9105,-5.9159,-5.9189,-5.9249,-5.9249,-5.9279,-5.9279,-5.9308,-5.9279,-5.9189,-5.9159,-5.9129,-5.9099,-5.9261,-5.956,-5.9773,-6.0039,-6.0377,-6.0524,-6.0578,-6.0547,-6.0332,-6.0609,-6.0763,-6.0609,-6.0547,-6.0671,-6.0918,-6.1155,-6.141,-6.1633,-6.2016,-6.2266,-6.2396,-6.2396,-6.2396,-6.2396,-6.2396,-6.3137,-6.3137,-6.3137,-6.3137,-6.3137,-6.3137,-6.3137,-6.3137,-6.3137,-6.263,-6.1968,-6.128,-6.0671,-5.9525,-5.962,-5.9583,-5.9667,-5.9773,-5.9963,-6.0039,-6.0039,-6.0039,-6.0092,-6.025,-6.0302,-6.0377,-6.0481,-6.0586,-6.0586,-6.069,-6.0794,-6.0742,-6.0742,-6.0742,-6.0794,-6.0742,-6.069,-6.0638,-6.0534,-6.0512,-6.0481,-6.0481,-6.0481,-6.0272,-5.9955,-5.969,-5.9657,-5.9976,-6.0106,-6.0351,-6.0745,-6.0745,-6.0565,-6.0296,-5.9967,-5.9727,-5.9727,-5.9877,-5.9907,-5.9907,-5.9907,-5.9877,-5.9727,-5.9368,-5.9409,-5.9568,-5.9292,-5.9155,-5.8647,-5.7905,-5.779,-5.7678,-5.7621,-5.779,-5.8153,-5.8737,-5.9205,-5.9314,-5.9368,-5.9548,-5.9697,-5.9787,-5.9937,-6.0027,-6.0236,-6.0146,-5.9907,-5.9817,-5.9488,-5.9308,-5.9159,-5.9459,-5.9757,-6.0039,-6.0377,-6.0638,-6.0732,-6.0763,-6.0794,-6.0794,-6.0794,-6.0794,-6.0794,-6.0794,-6.0897,-6.1103,-6.1328,-6.1734,-6.2016,-6.2266,-6.2347,-6.2396,-6.2396,-6.2396,-6.2396]},{"header":{"parameterUnit":"m.s-1","parameterCategory":1,"la1":31.0,"la2":29.5877,"lo1":-88.7671,"lo2":-86.6584,"dy":0.0162,"dx":0.0185,"nx":115,"ny":88,"refTime":"2024-04-27T18:00:00:Z","depth":0,"parameterNumber":3,"parameterNumberName":"V-component_of_WINDS"},"data":[0.0,0.0,0.0,0.0,0.0,0.0,0.0,0.0,0.0,0.0,0.0,0.0,0.0,0.0,0.0,0.0,0.0,0.0,0.0,0.0,0.0,0.0,0.0,0.0,0.0,0.0,0.0,0.0,0.0,0.0,0.0,0.0,0.0,0.0,0.0,0.0,0.0,0.0,0.0,0.0,0.0,0.0,0.0,0.0,0.0,0.0,0.0,0.0,0.0,0.0,0.0,0.0,0.0,0.0,0.0,0.0,0.0,0.0,0.0,0.0,0.0,0.0,0.0,0.0,0.0,0.0,0.0,0.0,0.0,0.0,0.0,0.0,0.0,0.0,0.0,0.0,0.0,0.0,0.0,0.0,0.0,0.0,0.0,0.0,0.0,0.0,0.0,0.0,0.0,0.0,0.0,0.0,0.0,0.0,0.0,0.0,0.0,0.0,0.0,0.0,0.0,0.0,0.0,0.0,0.0,0.0,0.0,0.0,0.0,0.0,0.0,0.0,0.0,0.0,0.0,0.0,0.0,0.0,0.0,0.0,0.0,0.0,0.0,0.0,0.0,0.0,0.0,0.0,0.0,0.0,0.0,0.0,0.0,0.0,0.0,0.0,0.0,0.0,0.0,0.0,0.0,0.0,0.0,0.0,0.0,0.0,0.0,0.0,0.0,0.0,0.0,0.0,0.0,0.0,0.0,0.0,0.0,0.0,0.0,0.0,0.0,0.0,0.0,0.0,0.0,0.0,0.0,0.0,0.0,0.0,0.0,0.0,0.0,0.0,0.0,0.0,0.0,0.0,0.0,0.0,0.0,0.0,0.0,0.0,0.0,0.0,0.0,0.0,0.0,0.0,0.0,0.0,0.0,0.0,0.0,0.0,0.0,0.0,0.0,0.0,0.0,0.0,0.0,0.0,0.0,0.0,0.0,0.0,0.0,0.0,0.0,0.0,0.0,0.0,0.0,0.0,0.0,0.0,0.0,0.0,0.0,0.0,0.0,0.0,0.0,0.0,0.0,0.0,0.0,0.0,0.0,0.0,0.0,0.0,0.0,0.0,0.0,0.0,0.0,0.0,0.0,0.0,0.0,0.0,0.0,0.0,0.0,0.0,0.0,0.0,0.0,0.0,0.0,0.0,0.0,0.0,0.0,0.0,0.0,0.0,0.0,0.0,0.0,0.0,0.0,0.0,0.0,0.0,0.0,0.0,0.0,0.0,0.0,0.0,0.0,0.0,0.0,0.0,0.0,0.0,0.0,0.0,0.0,0.0,0.0,0.0,0.0,0.0,0.0,0.0,0.0,0.0,0.0,0.0,0.0,0.0,0.0,0.0,0.0,0.0,0.0,0.0,0.0,0.0,0.0,0.0,0.0,0.0,0.0,0.0,0.0,0.0,0.0,0.0,0.0,0.0,0.0,0.0,0.0,0.0,0.0,0.0,0.0,0.0,0.0,0.0,0.0,0.0,0.0,0.0,0.0,0.0,0.0,0.0,0.0,0.0,0.0,0.0,0.0,0.0,0.0,0.0,0.0,0.0,0.0,0.0,0.0,0.0,0.0,0.0,0.0,0.0,0.0,0.0,0.0,0.0,0.0,0.0,0.0,0.0,0.0,0.0,0.0,0.0,0.0,0.0,0.0,0.0,0.0,0.0,0.0,0.0,0.0,0.0,0.0,0.0,0.0,0.0,0.0,0.0,0.0,0.0,0.0,0.0,0.0,0.0,0.0,0.0,0.0,0.0,0.0,0.0,0.0,0.0,0.0,0.0,0.0,0.0,0.0,0.0,0.0,0.0,0.0,0.0,0.0,0.0,0.0,0.0,0.0,0.0,0.0,0.0,0.0,0.0,0.0,0.0,0.0,0.0,0.0,0.0,0.0,0.0,0.0,0.0,0.0,0.0,0.0,0.0,0.0,0.0,0.0,0.0,0.0,0.0,0.0,0.0,0.0,0.0,0.0,0.0,0.0,0.0,0.0,0.0,0.0,0.0,0.0,0.0,0.0,0.0,0.0,0.0,0.0,0.0,0.0,0.0,0.0,0.0,0.0,0.0,0.0,0.0,0.0,0.0,0.0,0.0,0.0,0.0,0.0,0.0,0.0,0.0,0.0,0.0,0.0,0.0,0.0,0.0,0.0,0.0,0.0,0.0,0.0,0.0,0.0,0.0,0.0,0.0,0.0,0.0,0.0,0.0,0.0,0.0,0.0,0.0,0.0,0.0,0.0,0.0,0.0,0.0,0.0,0.0,0.0,0.0,0.0,0.0,0.0,0.0,0.0,0.0,0.0,0.0,0.0,0.0,0.0,0.0,0.0,0.0,0.0,0.0,0.0,0.0,0.0,0.0,0.0,0.0,0.0,0.0,0.0,0.0,0.0,0.0,0.0,0.0,0.0,0.0,0.0,0.0,0.0,0.0,0.0,0.0,0.0,0.0,0.0,0.0,0.0,0.0,0.0,0.0,0.0,0.0,0.0,0.0,0.0,0.0,0.0,0.0,0.0,0.0,0.0,0.0,0.0,0.0,0.0,0.0,0.0,0.0,0.0,0.0,0.0,0.0,0.0,0.0,0.0,0.0,0.0,0.0,0.0,0.0,0.0,0.0,0.0,0.0,0.0,0.0,0.0,0.0,0.0,0.0,0.0,0.0,0.0,0.0,0.0,0.0,0.0,0.0,0.0,0.0,0.0,0.0,0.0,0.0,0.0,0.0,0.0,0.0,0.0,0.0,0.0,0.0,0.0,0.0,0.0,0.0,0.0,0.0,0.0,0.0,0.0,0.0,0.0,0.0,0.0,0.0,0.0,0.0,0.0,0.0,0.0,0.0,0.0,0.0,0.0,0.0,0.0,0.0,0.0,0.0,0.0,0.0,0.0,0.0,0.0,0.0,0.0,0.0,0.0,0.0,0.0,0.0,0.0,0.0,0.0,0.0,0.0,0.0,0.0,0.0,0.0,0.0,0.0,0.0,0.0,0.0,0.0,0.0,0.0,0.0,0.0,0.0,0.0,0.0,0.0,0.0,0.0,0.0,0.0,0.0,0.0,0.0,0.0,0.0,0.0,0.0,0.0,0.0,0.0,0.0,0.0,0.0,0.0,0.0,0.0,0.0,0.0,0.0,0.0,0.0,0.0,0.0,0.0,0.0,0.0,0.0,0.0,0.0,0.0,0.0,0.0,0.0,0.0,0.0,0.0,0.0,0.0,0.0,0.0,0.0,0.0,0.0,0.0,0.0,0.0,0.0,0.0,0.0,0.0,0.0,0.0,0.0,0.0,0.0,0.0,0.0,0.0,0.0,0.0,0.0,0.0,0.0,0.0,0.0,0.0,0.0,0.0,0.0,0.0,0.0,0.0,0.0,0.0,0.0,0.0,0.0,0.0,0.0,0.0,0.0,0.0,0.0,0.0,0.0,0.0,0.0,0.0,0.0,0.0,0.0,0.0,0.0,0.0,0.0,0.0,0.0,0.0,0.0,0.0,0.0,0.0,0.0,0.0,0.0,0.0,0.0,0.0,0.0,0.0,0.0,0.0,0.0,0.0,0.0,0.0,0.0,0.0,0.0,0.0,0.0,0.0,0.0,0.0,0.0,0.0,0.0,0.0,0.0,0.0,0.0,0.0,0.0,0.0,0.0,0.0,0.0,0.0,0.0,0.0,0.0,0.0,0.0,0.0,0.0,0.0,0.0,0.0,0.0,0.0,0.0,0.0,0.0,0.0,0.0,0.0,0.0,0.0,0.0,0.0,0.0,0.0,0.0,0.0,0.0,0.0,0.0,0.0,0.0,0.0,0.0,0.0,0.0,0.0,0.0,0.0,0.0,0.0,0.0,0.0,0.0,0.0,0.0,0.0,0.0,0.0,0.0,0.0,0.0,0.0,0.0,0.0,0.0,0.0,0.0,0.0,0.0,0.0,0.0,0.0,0.0,0.0,0.0,0.0,0.0,0.0,0.0,0.0,0.0,0.0,0.0,0.0,0.0,0.0,0.0,0.0,0.0,0.0,0.0,0.0,0.0,0.0,0.0,0.0,0.0,0.0,0.0,0.0,0.0,0.0,0.0,0.0,0.0,0.0,0.0,0.0,0.0,0.0,0.0,0.0,0.0,0.0,0.0,0.0,0.0,0.0,0.0,0.0,0.0,0.0,0.0,0.0,0.0,0.0,0.0,0.0,0.0,0.0,0.0,0.0,0.0,0.0,0.0,0.0,0.0,0.0,0.0,0.0,0.0,0.0,0.0,0.0,0.0,0.0,0.0,0.0,0.0,0.0,0.0,0.0,0.0,0.0,0.0,0.0,0.0,2.4223,0.0,0.0,0.0,0.0,0.0,0.0,0.0,0.0,0.0,0.0,0.0,0.0,0.0,0.0,0.0,0.0,0.0,0.0,0.0,0.0,0.0,0.0,0.0,0.0,0.0,0.0,0.0,0.0,0.0,0.0,0.0,0.0,0.0,0.0,0.0,0.0,0.0,0.0,0.0,0.0,0.0,0.0,0.0,0.0,0.0,0.0,0.0,0.0,0.0,0.0,0.0,0.0,0.0,0.0,0.0,0.0,0.0,0.0,0.0,0.0,0.0,0.0,0.0,0.0,0.0,0.0,0.0,0.0,0.0,0.0,0.0,0.0,0.0,0.0,0.0,0.0,0.0,0.0,0.0,0.0,0.0,0.0,0.0,0.0,0.0,0.0,0.0,0.0,0.0,0.0,0.0,0.0,0.0,0.0,0.0,0.0,0.0,0.0,0.0,0.0,0.0,0.0,0.0,0.0,0.0,0.0,0.0,0.0,0.0,0.0,2.42,2.42,2.42,2.42,2.42,0.0,0.0,0.0,0.0,0.0,0.0,0.0,0.0,0.0,0.0,0.0,0.0,0.0,0.0,0.0,0.0,0.0,0.0,0.0,0.0,0.0,0.0,0.0,0.0,0.0,0.0,0.0,0.0,0.0,0.0,0.0,0.0,0.0,0.0,0.0,0.0,0.0,0.0,0.0,0.0,0.0,0.0,0.0,0.0,0.0,0.0,0.0,0.0,0.0,0.0,0.0,0.0,0.0,0.0,0.0,0.0,0.0,0.0,0.0,0.0,0.0,0.0,0.0,0.0,0.0,0.0,0.0,0.0,0.0,0.0,0.0,0.0,0.0,0.0,0.0,0.0,0.0,0.0,0.0,0.0,0.0,0.0,0.0,0.0,0.0,0.0,0.0,0.0,0.0,0.0,0.0,0.0,0.0,0.0,0.0,0.0,0.0,0.0,0.0,0.0,0.0,0.0,0.0,0.0,0.0,0.0,0.0,0.0,0.0,0.0,0.0,0.0,2.42,2.4246,2.4361,0.0,0.0,0.0,0.0,0.0,0.0,0.0,0.0,0.0,0.0,0.0,0.0,0.0,0.0,0.0,0.0,0.0,0.0,0.0,0.0,0.0,0.0,0.0,0.0,0.0,0.0,0.0,0.0,0.0,0.0,0.0,0.0,0.0,0.0,0.0,0.0,0.0,0.0,0.0,0.0,0.0,0.0,0.0,0.0,0.0,0.0,0.0,0.0,0.0,0.0,0.0,0.0,0.0,0.0,0.0,0.0,0.0,0.0,0.0,0.0,0.0,0.0,0.0,0.0,0.0,0.0,0.0,0.0,0.0,0.0,0.0,0.0,0.0,0.0,0.0,0.0,0.0,0.0,0.0,0.0,0.0,0.0,0.0,0.0,0.0,0.0,0.0,0.0,0.0,0.0,0.0,0.0,0.0,0.0,0.0,0.0,0.0,0.0,0.0,0.0,0.0,0.0,0.0,0.0,0.0,0.0,0.0,0.0,0.0,0.0,2.4636,2.42,2.42,0.0,2.4797,0.0,0.0,0.0,0.0,0.0,0.0,0.0,0.0,0.0,0.0,0.0,0.0,0.0,0.0,0.0,0.0,0.0,0.0,0.0,0.0,0.0,0.0,0.0,0.0,0.0,0.0,0.0,0.0,0.0,0.0,0.0,0.0,0.0,0.0,0.0,0.0,0.0,0.0,0.0,0.0,0.0,0.0,0.0,0.0,0.0,0.0,0.0,0.0,0.0,0.0,0.0,0.0,0.0,0.0,0.0,0.0,0.0,0.0,0.0,0.0,0.0,0.0,0.0,0.0,0.0,0.0,0.0,0.0,0.0,0.0,0.0,0.0,0.0,0.0,0.0,0.0,0.0,0.0,0.0,0.0,0.0,0.0,0.0,0.0,0.0,0.0,0.0,0.0,0.0,0.0,0.0,0.0,0.0,0.0,0.0,0.0,0.0,0.0,0.0,0.0,0.0,0.0,0.0,0.0,0.0,0.0,0.0,0.0,0.0,0.0,2.5241,2.5096,2.4797,2.4705,0.0,0.0,0.0,0.0,0.0,0.0,0.0,0.0,0.0,0.0,0.0,0.0,0.0,0.0,0.0,0.0,0.0,0.0,0.0,0.0,0.0,0.0,0.0,0.0,0.0,0.0,0.0,0.0,0.0,0.0,0.0,0.0,0.0,0.0,0.0,0.0,0.0,0.0,0.0,0.0,0.0,0.0,0.0,0.0,0.0,0.0,0.0,0.0,0.0,0.0,0.0,0.0,0.0,0.0,0.0,0.0,0.0,0.0,0.0,0.0,0.0,0.0,0.0,0.0,0.0,0.0,0.0,0.0,0.0,0.0,0.0,0.0,0.0,0.0,0.0,0.0,0.0,0.0,0.0,0.0,0.0,0.0,0.0,0.0,0.0,0.0,0.0,0.0,0.0,0.0,0.0,0.0,0.0,0.0,0.0,0.0,0.0,0.0,0.0,0.0,0.0,0.0,0.0,0.0,0.0,0.0,0.0,0.0,0.0,0.0,2.5887,2.5776,2.5677,2.5348,2.5073,2.4912,0.0,0.0,0.0,0.0,0.0,0.0,0.0,0.0,0.0,0.0,0.0,0.0,0.0,0.0,0.0,0.0,0.0,0.0,0.0,0.0,0.0,0.0,0.0,0.0,0.0,0.0,0.0,0.0,0.0,0.0,0.0,0.0,0.0,0.0,0.0,0.0,0.0,0.0,0.0,0.0,0.0,0.0,0.0,0.0,0.0,0.0,0.0,0.0,0.0,0.0,0.0,0.0,0.0,0.0,0.0,0.0,0.0,0.0,0.0,0.0,0.0,0.0,0.0,0.0,0.0,0.0,0.0,0.0,0.0,0.0,0.0,0.0,0.0,0.0,0.0,0.0,0.0,0.0,0.0,0.0,0.0,0.0,0.0,0.0,0.0,0.0,0.0,0.0,0.0,0.0,0.0,0.0,0.0,0.0,0.0,0.0,0.0,0.0,0.0,0.0,0.0,0.0,0.0,0.0,0.0,0.0,0.0,0.0,2.5878,2.5989,2.5978,2.5723,2.5654,2.544,0.0,0.0,0.0,0.0,0.0,0.0,0.0,0.0,0.0,0.0,0.0,0.0,0.0,0.0,0.0,0.0,0.0,0.0,0.0,0.0,0.0,0.0,0.0,0.0,0.0,0.0,0.0,0.0,0.0,0.0,0.0,0.0,0.0,0.0,0.0,0.0,0.0,0.0,0.0,0.0,0.0,0.0,0.0,0.0,0.0,0.0,0.0,0.0,0.0,0.0,0.0,0.0,0.0,0.0,0.0,0.0,0.0,0.0,0.0,0.0,0.0,0.0,0.0,0.0,0.0,0.0,0.0,0.0,0.0,0.0,0.0,0.0,0.0,0.0,0.0,0.0,0.0,0.0,0.0,0.0,0.0,0.0,0.0,0.0,0.0,0.0,0.0,0.0,0.0,0.0,0.0,0.0,0.0,0.0,0.0,0.0,0.0,0.0,0.0,0.0,0.0,0.0,0.0,0.0,0.0,0.0,0.0,0.0,0.0,2.6523,2.7192,2.7175,2.6462,2.656,2.629,0.0,0.0,0.0,0.0,0.0,0.0,0.0,0.0,0.0,0.0,0.0,0.0,0.0,0.0,0.0,0.0,0.0,0.0,0.0,0.0,0.0,0.0,0.0,0.0,0.0,0.0,0.0,0.0,0.0,0.0,0.0,0.0,0.0,0.0,0.0,0.0,0.0,0.0,0.0,0.0,0.0,0.0,0.0,0.0,0.0,0.0,0.0,0.0,0.0,0.0,0.0,0.0,0.0,0.0,0.0,0.0,0.0,0.0,0.0,0.0,0.0,0.0,0.0,0.0,0.0,0.0,0.0,0.0,0.0,0.0,0.0,0.0,0.0,0.0,0.0,0.0,0.0,0.0,0.0,0.0,0.0,0.0,0.0,0.0,0.0,0.0,0.0,0.0,0.0,0.0,0.0,0.0,0.0,0.0,0.0,0.0,0.0,0.0,0.0,0.0,0.0,0.0,0.0,0.0,0.0,0.0,0.0,0.0,0.0,2.7282,0.0,2.8026,2.7332,2.7447,2.7108,0.0,0.0,0.0,0.0,0.0,0.0,0.0,0.0,0.0,0.0,0.0,0.0,0.0,0.0,0.0,0.0,0.0,0.0,0.0,0.0,0.0,0.0,0.0,0.0,0.0,0.0,0.0,0.0,0.0,0.0,0.0,0.0,0.0,0.0,0.0,0.0,0.0,0.0,0.0,0.0,0.0,0.0,0.0,0.0,0.0,0.0,0.0,0.0,0.0,0.0,0.0,0.0,0.0,0.0,0.0,0.0,0.0,0.0,0.0,0.0,0.0,0.0,0.0,0.0,0.0,0.0,0.0,0.0,0.0,0.0,0.0,0.0,0.0,0.0,0.0,0.0,0.0,0.0,0.0,0.0,0.0,0.0,0.0,0.0,0.0,0.0,0.0,0.0,0.0,0.0,0.0,0.0,0.0,0.0,0.0,0.0,0.0,0.0,0.0,0.0,0.0,0.0,0.0,0.0,0.0,0.0,0.0,0.0,2.7855,2.8047,2.8272,2.843,2.8318,2.8386,2.7924,0.0,0.0,0.0,0.0,0.0,0.0,0.0,0.0,0.0,0.0,0.0,0.0,0.0,0.0,0.0,0.0,0.0,0.0,0.0,0.0,0.0,0.0,0.0,0.0,0.0,0.0,0.0,0.0,0.0,0.0,0.0,0.0,0.0,0.0,0.0,0.0,0.0,0.0,0.0,0.0,0.0,0.0,0.0,0.0,0.0,0.0,0.0,0.0,0.0,0.0,0.0,0.0,0.0,0.0,0.0,0.0,0.0,0.0,0.0,0.0,0.0,0.0,0.0,0.0,0.0,0.0,0.0,0.0,0.0,0.0,0.0,0.0,0.0,0.0,0.0,0.0,0.0,0.0,0.0,0.0,0.0,0.0,0.0,0.0,0.0,0.0,0.0,0.0,0.0,0.0,0.0,0.0,0.0,0.0,0.0,0.0,0.0,0.0,0.0,0.0,0.0,0.0,0.0,0.0,0.0,0.0,0.0,0.0,0.0,2.9267,2.9245,2.9237,2.9052,2.9077,2.888,0.0,0.0,0.0,0.0,0.0,0.0,0.0,0.0,0.0,0.0,0.0,0.0,0.0,0.0,0.0,0.0,0.0,0.0,0.0,0.0,0.0,0.0,0.0,0.0,0.0,0.0,0.0,0.0,0.0,0.0,0.0,0.0,0.0,0.0,0.0,0.0,0.0,0.0,0.0,0.0,0.0,0.0,0.0,0.0,0.0,0.0,0.0,0.0,0.0,0.0,0.0,0.0,0.0,0.0,0.0,0.0,0.0,0.0,0.0,0.0,0.0,0.0,0.0,0.0,0.0,0.0,0.0,0.0,0.0,0.0,0.0,0.0,0.0,0.0,0.0,0.0,0.0,0.0,0.0,0.0,0.0,0.0,0.0,0.0,0.0,0.0,0.0,0.0,0.0,0.0,0.0,0.0,0.0,0.0,0.0,0.0,0.0,0.0,0.0,0.0,0.0,0.0,0.0,0.0,0.0,0.0,0.0,0.0,0.0,3.0841,3.0414,3.0125,3.0069,2.9845,2.9626,2.9329,0.0,0.0,0.0,0.0,0.0,0.0,0.0,0.0,0.0,0.0,0.0,0.0,0.0,0.0,0.0,0.0,0.0,0.0,0.0,0.0,0.0,0.0,0.0,0.0,0.0,0.0,0.0,0.0,0.0,0.0,0.0,0.0,0.0,0.0,0.0,0.0,0.0,0.0,0.0,0.0,0.0,0.0,0.0,0.0,0.0,0.0,0.0,0.0,0.0,0.0,0.0,0.0,0.0,0.0,0.0,0.0,0.0,0.0,0.0,0.0,0.0,0.0,0.0,0.0,0.0,0.0,0.0,0.0,0.0,0.0,0.0,0.0,0.0,0.0,0.0,0.0,0.0,0.0,0.0,0.0,0.0,0.0,0.0,0.0,0.0,0.0,0.0,0.0,0.0,0.0,0.0,0.0,0.0,0.0,0.0,0.0,0.0,0.0,0.0,0.0,0.0,0.0,0.0,0.0,0.0,0.0,0.0,0.0,3.2757,3.1753,3.1233,3.123,3.0704,3.0212,0.0,0.0,0.0,0.0,0.0,0.0,0.0,0.0,0.0,0.0,0.0,0.0,0.0,0.0,0.0,0.0,0.0,0.0,0.0,0.0,0.0,0.0,0.0,0.0,0.0,0.0,0.0,0.0,0.0,0.0,0.0,0.0,0.0,0.0,0.0,0.0,0.0,0.0,0.0,0.0,0.0,0.0,0.0,0.0,0.0,0.0,0.0,0.0,0.0,0.0,0.0,0.0,0.0,0.0,0.0,0.0,0.0,0.0,0.0,0.0,0.0,0.0,0.0,0.0,0.0,0.0,0.0,0.0,0.0,0.0,0.0,0.0,0.0,0.0,0.0,0.0,0.0,0.0,0.0,0.0,0.0,0.0,0.0,0.0,0.0,0.0,0.0,0.0,0.0,0.0,0.0,0.0,0.0,0.0,0.0,0.0,0.0,0.0,0.0,0.0,0.0,0.0,0.0,0.0,0.0,0.0,0.0,0.0,0.0,3.5128,3.4105,3.2987,3.1921,3.1171,3.0849,0.0,0.0,0.0,0.0,0.0,0.0,0.0,0.0,0.0,0.0,0.0,0.0,0.0,0.0,0.0,0.0,0.0,0.0,0.0,0.0,0.0,0.0,0.0,0.0,0.0,0.0,0.0,0.0,0.0,0.0,0.0,0.0,0.0,0.0,0.0,0.0,0.0,0.0,0.0,0.0,0.0,0.0,0.0,0.0,0.0,0.0,0.0,0.0,0.0,0.0,0.0,0.0,0.0,0.0,0.0,0.0,0.0,0.0,0.0,0.0,0.0,0.0,0.0,0.0,0.0,0.0,0.0,0.0,0.0,0.0,0.0,0.0,0.0,0.0,0.0,0.0,0.0,0.0,0.0,0.0,0.0,0.0,0.0,0.0,0.0,0.0,0.0,0.0,0.0,0.0,0.0,0.0,0.0,0.0,0.0,0.0,0.0,0.0,0.0,0.0,0.0,0.0,0.0,0.0,0.0,0.0,0.0,0.0,3.5284,3.6639,3.6085,3.5263,3.4187,3.258,3.1785,0.0,0.0,0.0,0.0,0.0,0.0,0.0,0.0,0.0,0.0,0.0,0.0,0.0,0.0,0.0,0.0,0.0,0.0,0.0,0.0,0.0,0.0,0.0,0.0,0.0,0.0,0.0,0.0,0.0,0.0,0.0,0.0,0.0,0.0,0.0,0.0,0.0,0.0,0.0,0.0,0.0,0.0,0.0,0.0,0.0,0.0,0.0,0.0,0.0,0.0,0.0,0.0,0.0,0.0,0.0,0.0,0.0,0.0,0.0,0.0,0.0,0.0,0.0,0.0,0.0,0.0,0.0,0.0,0.0,0.0,0.0,0.0,0.0,0.0,0.0,0.0,0.0,0.0,0.0,0.0,0.0,0.0,0.0,0.0,0.0,0.0,0.0,0.0,0.0,0.0,0.0,0.0,0.0,0.0,0.0,0.0,0.0,0.0,0.0,0.0,0.0,0.0,0.0,0.0,0.0,0.0,0.0,0.0,3.6206,3.7788,3.7914,3.7714,3.7221,3.4575,3.2991,0.0,0.0,0.0,0.0,0.0,0.0,0.0,0.0,0.0,0.0,0.0,0.0,0.0,0.0,0.0,0.0,0.0,0.0,0.0,0.0,0.0,0.0,0.0,0.0,0.0,0.0,0.0,0.0,0.0,0.0,0.0,0.0,0.0,0.0,0.0,0.0,0.0,0.0,0.0,0.0,0.0,0.0,0.0,0.0,0.0,0.0,0.0,0.0,0.0,0.0,0.0,0.0,0.0,0.0,0.0,0.0,0.0,0.0,0.0,0.0,0.0,0.0,0.0,0.0,0.0,0.0,0.0,0.0,0.0,0.0,0.0,0.0,0.0,0.0,0.0,0.0,0.0,0.0,0.0,0.0,0.0,0.0,0.0,0.0,0.0,0.0,0.0,0.0,0.0,0.0,0.0,0.0,0.0,0.0,0.0,0.0,0.0,0.0,0.0,0.0,0.0,0.0,0.0,0.0,0.0,0.0,0.0,0.0,3.8614,3.9792,3.9656,3.9453,3.9281,3.6729,3.4867,0.0,0.0,0.0,0.0,0.0,0.0,0.0,0.0,0.0,0.0,0.0,0.0,0.0,0.0,0.0,0.0,0.0,0.0,0.0,0.0,0.0,0.0,0.0,0.0,0.0,0.0,0.0,0.0,0.0,0.0,0.0,0.0,0.0,0.0,0.0,0.0,0.0,0.0,0.0,0.0,0.0,0.0,0.0,0.0,0.0,0.0,0.0,0.0,3.3924,0.0,0.0,0.0,0.0,0.0,0.0,0.0,0.0,0.0,0.0,0.0,0.0,0.0,0.0,0.0,0.0,0.0,0.0,0.0,0.0,0.0,0.0,0.0,0.0,0.0,0.0,0.0,0.0,0.0,0.0,0.0,0.0,0.0,0.0,0.0,0.0,0.0,0.0,0.0,0.0,0.0,0.0,0.0,0.0,0.0,0.0,0.0,0.0,0.0,0.0,0.0,0.0,0.0,0.0,0.0,0.0,0.0,0.0,0.0,4.0149,4.1342,4.1431,4.1276,4.0703,3.911,3.7249,0.0,0.0,0.0,0.0,0.0,0.0,0.0,0.0,0.0,0.0,0.0,0.0,0.0,0.0,0.0,0.0,0.0,0.0,0.0,0.0,0.0,0.0,0.0,0.0,0.0,0.0,0.0,0.0,0.0,0.0,0.0,0.0,0.0,0.0,0.0,0.0,0.0,0.0,0.0,0.0,0.0,0.0,0.0,0.0,0.0,0.0,0.0,0.0,0.0,0.0,0.0,0.0,0.0,0.0,0.0,0.0,0.0,0.0,0.0,0.0,0.0,0.0,0.0,0.0,0.0,0.0,0.0,0.0,0.0,0.0,0.0,0.0,0.0,0.0,0.0,0.0,0.0,0.0,0.0,0.0,0.0,0.0,0.0,0.0,0.0,0.0,0.0,0.0,0.0,0.0,0.0,0.0,0.0,0.0,0.0,0.0,0.0,0.0,0.0,0.0,0.0,0.0,0.0,0.0,0.0,0.0,0.0,3.9787,4.1176,4.2513,4.29,4.2638,4.1679,4.1132,3.9387,3.6384,0.0,0.0,0.0,0.0,0.0,0.0,0.0,0.0,0.0,0.0,0.0,0.0,0.0,0.0,0.0,0.0,0.0,0.0,0.0,0.0,0.0,0.0,0.0,0.0,0.0,0.0,0.0,0.0,0.0,0.0,0.0,0.0,0.0,0.0,0.0,0.0,0.0,0.0,3.6707,3.7766,0.0,0.0,0.0,0.0,0.0,0.0,0.0,0.0,3.6628,0.0,0.0,0.0,0.0,0.0,0.0,0.0,0.0,0.0,0.0,0.0,0.0,0.0,0.0,0.0,0.0,0.0,0.0,0.0,0.0,0.0,0.0,0.0,0.0,0.0,0.0,0.0,0.0,0.0,0.0,0.0,0.0,0.0,0.0,0.0,0.0,0.0,0.0,0.0,0.0,0.0,0.0,0.0,0.0,0.0,0.0,0.0,0.0,0.0,0.0,0.0,0.0,0.0,0.0,0.0,0.0,3.9304,4.0593,4.1972,4.3307,4.3269,4.2645,4.1551,4.126,4.0021,3.7807,0.0,0.0,0.0,0.0,0.0,0.0,0.0,0.0,0.0,0.0,0.0,0.0,0.0,0.0,0.0,0.0,0.0,0.0,0.0,0.0,0.0,0.0,0.0,0.0,0.0,0.0,0.0,0.0,0.0,0.0,0.0,0.0,0.0,0.0,0.0,0.0,0.0,0.0,0.0,4.0501,4.1275,0.0,0.0,0.0,0.0,0.0,0.0,0.0,0.0,3.8868,0.0,0.0,0.0,0.0,0.0,0.0,0.0,0.0,0.0,0.0,0.0,0.0,0.0,0.0,0.0,0.0,0.0,0.0,0.0,0.0,0.0,0.0,0.0,0.0,0.0,0.0,0.0,0.0,0.0,0.0,0.0,0.0,0.0,0.0,0.0,0.0,0.0,0.0,0.0,0.0,0.0,0.0,0.0,0.0,0.0,0.0,0.0,0.0,0.0,0.0,0.0,0.0,0.0,0.0,0.0,4.0,4.1432,4.2705,4.387,4.3794,4.3238,4.21,4.1691,4.0389,0.0,0.0,0.0,0.0,0.0,0.0,0.0,0.0,0.0,0.0,0.0,0.0,0.0,0.0,0.0,0.0,0.0,0.0,0.0,0.0,0.0,0.0,0.0,0.0,0.0,0.0,0.0,0.0,0.0,0.0,0.0,0.0,0.0,0.0,0.0,0.0,0.0,0.0,0.0,0.0,4.1814,4.2685,4.3011,0.0,0.0,0.0,0.0,0.0,0.0,4.122,4.0922,0.0,0.0,0.0,0.0,0.0,0.0,0.0,0.0,0.0,0.0,0.0,0.0,0.0,0.0,0.0,0.0,0.0,0.0,0.0,0.0,0.0,0.0,0.0,0.0,0.0,0.0,0.0,0.0,0.0,0.0,0.0,0.0,0.0,0.0,0.0,0.0,0.0,0.0,0.0,0.0,0.0,0.0,0.0,0.0,0.0,0.0,0.0,0.0,0.0,0.0,0.0,0.0,0.0,0.0,0.0,4.0468,4.1901,4.3062,4.4137,4.4092,4.3467,4.2356,4.1878,4.0448,0.0,0.0,0.0,0.0,0.0,0.0,0.0,0.0,0.0,0.0,0.0,0.0,0.0,0.0,0.0,0.0,0.0,0.0,0.0,0.0,0.0,0.0,0.0,0.0,0.0,0.0,0.0,0.0,0.0,0.0,0.0,0.0,0.0,0.0,0.0,0.0,0.0,0.0,0.0,0.0,0.0,4.3639,4.4493,4.4342,0.0,0.0,0.0,0.0,4.3123,4.2729,0.0,0.0,0.0,0.0,0.0,0.0,0.0,0.0,0.0,0.0,0.0,0.0,0.0,0.0,0.0,0.0,0.0,0.0,0.0,0.0,0.0,0.0,0.0,0.0,0.0,0.0,0.0,0.0,0.0,0.0,0.0,0.0,0.0,0.0,0.0,0.0,0.0,0.0,0.0,0.0,0.0,0.0,0.0,0.0,0.0,0.0,0.0,0.0,0.0,0.0,0.0,0.0,0.0,0.0,0.0,0.0,4.0468,4.1375,4.243,4.37,4.3323,4.2549,4.1514,4.123,3.9984,0.0,0.0,0.0,0.0,0.0,0.0,0.0,0.0,0.0,0.0,0.0,0.0,0.0,0.0,0.0,0.0,0.0,0.0,0.0,0.0,0.0,0.0,0.0,0.0,0.0,0.0,0.0,0.0,0.0,0.0,0.0,0.0,0.0,0.0,0.0,0.0,0.0,0.0,0.0,0.0,0.0,4.4468,4.4593,4.502,4.5095,0.0,0.0,4.482,4.4827,4.4796,0.0,0.0,0.0,0.0,0.0,0.0,0.0,0.0,0.0,0.0,0.0,0.0,0.0,0.0,0.0,0.0,0.0,0.0,0.0,0.0,0.0,0.0,0.0,0.0,0.0,0.0,0.0,0.0,0.0,0.0,0.0,0.0,0.0,0.0,0.0,0.0,0.0,0.0,0.0,0.0,0.0,0.0,0.0,0.0,0.0,0.0,0.0,0.0,0.0,0.0,0.0,0.0,0.0,0.0,0.0,3.904,4.0637,4.1507,4.2434,4.3255,4.3283,4.2727,4.1595,4.1456,4.0333,0.0,0.0,0.0,0.0,0.0,0.0,0.0,0.0,0.0,0.0,0.0,0.0,0.0,0.0,0.0,0.0,0.0,0.0,0.0,0.0,0.0,0.0,0.0,0.0,0.0,0.0,0.0,0.0,0.0,0.0,0.0,0.0,0.0,0.0,0.0,0.0,0.0,0.0,0.0,0.0,0.0,0.0,4.6853,4.6903,0.0,0.0,0.0,4.6677,4.6552,0.0,0.0,0.0,0.0,0.0,0.0,0.0,0.0,0.0,0.0,0.0,0.0,0.0,0.0,0.0,0.0,0.0,0.0,0.0,0.0,0.0,0.0,0.0,0.0,0.0,0.0,0.0,0.0,0.0,0.0,0.0,0.0,0.0,0.0,0.0,0.0,0.0,0.0,0.0,0.0,0.0,0.0,0.0,0.0,0.0,0.0,0.0,0.0,0.0,0.0,0.0,0.0,0.0,0.0,0.0,0.0,0.0,4.0578,4.1441,4.2169,4.2632,4.2882,4.257,4.1723,4.1382,0.0,0.0,0.0,0.0,0.0,0.0,0.0,0.0,0.0,0.0,0.0,0.0,0.0,0.0,0.0,0.0,0.0,0.0,0.0,0.0,0.0,0.0,0.0,0.0,0.0,0.0,0.0,3.2422,0.0,0.0,0.0,0.0,0.0,0.0,0.0,0.0,0.0,0.0,0.0,0.0,0.0,0.0,4.7054,4.856,4.851,4.8485,0.0,0.0,4.817,4.8013,4.7892,4.753,0.0,0.0,0.0,0.0,0.0,0.0,0.0,0.0,0.0,0.0,0.0,0.0,0.0,0.0,0.0,0.0,0.0,0.0,0.0,0.0,0.0,0.0,0.0,0.0,0.0,0.0,0.0,0.0,0.0,0.0,0.0,0.0,0.0,0.0,0.0,0.0,0.0,0.0,0.0,0.0,0.0,0.0,0.0,0.0,0.0,0.0,0.0,0.0,0.0,0.0,0.0,0.0,0.0,0.0,3.9113,4.0069,4.076,4.1351,4.1788,4.1706,4.1549,4.1315,4.0728,3.9845,0.0,0.0,0.0,0.0,0.0,0.0,0.0,0.0,0.0,0.0,0.0,0.0,0.0,0.0,0.0,0.0,0.0,0.0,0.0,0.0,0.0,0.0,0.0,0.0,0.0,0.0,0.0,0.0,0.0,0.0,0.0,0.0,0.0,0.0,0.0,0.0,0.0,0.0,0.0,0.0,0.0,4.7506,4.8611,4.9188,4.949,0.0,4.9317,4.9102,4.9077,4.8743,4.8205,4.767,0.0,0.0,0.0,0.0,0.0,0.0,0.0,0.0,0.0,0.0,0.0,0.0,0.0,0.0,0.0,0.0,0.0,0.0,0.0,0.0,0.0,0.0,0.0,0.0,0.0,0.0,0.0,0.0,0.0,0.0,0.0,0.0,0.0,0.0,0.0,0.0,0.0,0.0,0.0,0.0,0.0,0.0,0.0,0.0,0.0,0.0,0.0,0.0,0.0,0.0,0.0,0.0,0.0,3.9204,3.9728,4.0563,4.1154,4.1573,4.1551,4.1482,4.1315,4.0643,3.9893,0.0,0.0,0.0,0.0,0.0,0.0,0.0,0.0,0.0,0.0,0.0,0.0,0.0,0.0,0.0,0.0,0.0,0.0,0.0,0.0,0.0,0.0,0.0,0.0,0.0,0.0,0.0,0.0,3.3717,3.4535,3.5767,0.0,0.0,0.0,0.0,0.0,0.0,0.0,0.0,0.0,0.0,4.885,5.0182,5.0494,0.0,0.0,5.0499,4.9923,4.9786,4.9608,4.904,4.7632,4.7593,0.0,0.0,0.0,0.0,0.0,0.0,0.0,0.0,0.0,0.0,0.0,0.0,0.0,0.0,0.0,0.0,0.0,0.0,0.0,0.0,0.0,0.0,0.0,0.0,0.0,0.0,0.0,0.0,0.0,0.0,0.0,0.0,0.0,0.0,0.0,0.0,0.0,0.0,0.0,0.0,0.0,0.0,0.0,0.0,0.0,0.0,0.0,0.0,0.0,0.0,0.0,0.0,3.913,3.934,4.0301,4.0979,4.1286,4.1286,4.1326,4.1421,4.058,3.9893,0.0,0.0,0.0,0.0,0.0,0.0,0.0,0.0,0.0,0.0,0.0,0.0,0.0,0.0,0.0,0.0,0.0,0.0,0.0,0.0,0.0,0.0,0.0,0.0,0.0,0.0,0.0,0.0,3.4926,3.6019,3.7202,0.0,0.0,0.0,0.0,0.0,0.0,0.0,0.0,0.0,0.0,5.032,5.1403,5.1883,5.2186,5.2346,5.163,5.0861,5.0523,5.0397,4.9899,4.8342,0.0,0.0,0.0,0.0,0.0,0.0,0.0,0.0,0.0,0.0,0.0,0.0,0.0,0.0,0.0,0.0,0.0,0.0,0.0,0.0,0.0,0.0,0.0,0.0,0.0,0.0,0.0,3.3935,0.0,0.0,3.2604,0.0,0.0,0.0,0.0,0.0,0.0,0.0,0.0,0.0,0.0,0.0,0.0,0.0,0.0,0.0,0.0,0.0,0.0,0.0,0.0,0.0,0.0,3.8997,3.8859,3.9821,4.0496,4.0799,4.0777,4.1164,4.1719,4.0518,3.9772,3.9661,0.0,0.0,0.0,0.0,0.0,0.0,0.0,0.0,0.0,0.0,0.0,0.0,0.0,0.0,0.0,0.0,0.0,0.0,0.0,0.0,0.0,0.0,0.0,0.0,0.0,0.0,3.548,3.7154,3.8371,0.0,0.0,0.0,0.0,0.0,0.0,0.0,0.0,0.0,4.8766,5.04,5.1639,5.2163,5.3253,5.3647,5.3161,5.2598,5.2009,5.142,5.1164,5.0939,0.0,0.0,0.0,0.0,0.0,0.0,0.0,0.0,0.0,0.0,0.0,0.0,0.0,0.0,0.0,0.0,0.0,0.0,0.0,0.0,0.0,0.0,0.0,0.0,0.0,0.0,0.0,3.5913,3.5708,0.0,0.0,0.0,0.0,0.0,0.0,0.0,0.0,0.0,0.0,0.0,4.0755,3.9951,0.0,0.0,0.0,0.0,0.0,0.0,0.0,0.0,0.0,0.0,0.0,0.0,3.9286,3.8859,4.0034,4.0777,4.11,4.1122,4.1357,4.1783,4.0706,3.9636,3.8722,0.0,0.0,0.0,0.0,0.0,0.0,0.0,0.0,0.0,0.0,0.0,0.0,0.0,0.0,0.0,0.0,0.0,0.0,0.0,0.0,0.0,0.0,0.0,0.0,0.0,3.6374,0.0,0.0,0.0,0.0,0.0,0.0,0.0,0.0,0.0,0.0,0.0,4.8616,4.9811,5.1066,5.2123,5.2868,5.3384,5.369,0.0,0.0,0.0,0.0,0.0,0.0,0.0,0.0,0.0,0.0,0.0,0.0,0.0,0.0,4.82,4.7665,4.7419,4.7359,4.7569,0.0,0.0,0.0,0.0,0.0,0.0,0.0,0.0,0.0,0.0,0.0,0.0,0.0,0.0,3.7805,3.7713,3.714,0.0,0.0,0.0,0.0,0.0,0.0,0.0,0.0,4.1535,4.2063,4.2798,4.1994,4.1604,4.1535,3.9947,3.8651,0.0,0.0,0.0,0.0,0.0,0.0,0.0,0.0,3.9162,3.8859,3.9922,4.0815,4.1293,4.1421,4.1614,4.1911,4.0858,3.9556,3.8122,3.6918,3.6339,0.0,0.0,0.0,0.0,0.0,0.0,0.0,0.0,0.0,0.0,0.0,0.0,0.0,0.0,0.0,0.0,0.0,0.0,0.0,0.0,0.0,0.0,0.0,3.8194,0.0,0.0,0.0,0.0,0.0,0.0,0.0,0.0,0.0,4.7109,4.8525,4.9881,5.0605,5.1811,5.2817,5.3576,0.0,0.0,0.0,0.0,0.0,0.0,0.0,5.1413,5.0877,5.0923,5.0917,5.0428,5.0594,5.0786,5.0812,0.0,0.0,4.9272,4.8891,4.8773,4.8773,4.9087,4.9427,4.9636,5.0106,5.0551,0.0,0.0,0.0,0.0,3.9955,0.0,0.0,0.0,4.0304,4.0218,0.0,3.8596,0.0,0.0,0.0,0.0,3.9423,4.041,0.0,0.0,4.289,4.3395,4.3808,4.3349,4.3119,4.3074,4.177,4.0831,4.0218,3.8028,0.0,0.0,0.0,0.0,0.0,0.0,3.8667,3.8838,3.9721,4.0504,4.1293,4.1614,4.1975,4.2184,4.0846,3.9354,3.7941,3.7356,3.7175,3.7252,3.6407,0.0,0.0,0.0,0.0,0.0,0.0,0.0,0.0,0.0,0.0,0.0,0.0,0.0,0.0,0.0,0.0,0.0,0.0,0.0,0.0,4.0087,0.0,0.0,0.0,0.0,0.0,0.0,0.0,0.0,0.0,0.0,4.8273,4.9538,5.0685,5.1277,0.0,0.0,0.0,0.0,5.5252,5.5344,5.5317,5.4853,5.3698,5.3511,5.3272,5.2748,0.0,0.0,5.2235,5.2397,5.2548,5.2575,5.2967,5.2758,5.0507,5.0115,5.0054,5.0054,5.0106,5.0237,5.076,5.1335,5.1805,4.448,0.0,0.0,0.0,0.0,4.1942,4.2189,4.2303,4.2293,4.2224,4.2155,4.0984,0.0,0.0,0.0,0.0,0.0,0.0,4.2637,4.3946,4.4107,4.4428,4.4887,4.4405,4.4176,4.413,4.2818,4.181,4.0972,3.9784,3.8564,3.7403,0.0,0.0,0.0,0.0,3.8667,3.8838,3.9866,4.0736,4.1293,4.187,4.1868,4.1283,4.0479,3.9633,3.8688,3.7652,3.7506,3.8257,3.7016,0.0,0.0,0.0,0.0,0.0,0.0,0.0,0.0,0.0,0.0,0.0,0.0,0.0,0.0,0.0,0.0,0.0,0.0,0.0,4.0931,4.1576,4.2274,0.0,0.0,0.0,0.0,0.0,0.0,0.0,0.0,0.0,4.9521,5.0601,5.1598,0.0,0.0,5.4457,5.5015,5.5418,5.58,5.6202,5.5713,0.0,5.48,5.44,5.408,5.3894,5.3867,5.3867,5.3741,5.3837,5.388,5.388,5.4012,5.388,5.326,5.2697,5.2444,5.2406,5.2406,5.2433,5.2616,5.2798,5.2929,4.7206,4.5507,4.4336,4.3946,4.4153,4.4245,4.4405,4.4566,4.4153,4.3992,4.39,4.2706,4.2178,4.2155,4.1857,0.0,0.0,0.0,4.3533,4.4612,4.4612,4.4864,4.5392,4.5048,4.491,4.4864,4.3729,4.2829,4.2071,4.0946,3.9796,3.8586,0.0,3.7613,3.7279,3.7852,3.8258,3.8532,3.9503,4.0217,4.071,4.1468,4.1576,4.0912,4.0834,4.0326,3.938,3.8721,3.8656,3.9268,3.8052,3.7693,0.0,0.0,0.0,0.0,0.0,0.0,0.0,0.0,0.0,0.0,0.0,3.9887,4.0132,0.0,0.0,0.0,4.1544,4.1958,4.276,4.3165,0.0,0.0,0.0,0.0,0.0,0.0,0.0,4.83,4.9549,5.0553,5.1014,5.1936,5.2669,5.3022,5.389,5.4786,5.5654,0.0,5.6202,5.6769,5.6424,5.5972,5.573,5.5408,5.5112,5.4807,5.469,5.4627,5.4564,5.4687,5.472,5.4746,5.4933,5.5066,5.5066,5.477,5.4261,5.3866,5.376,5.3904,5.4115,5.4038,5.4013,4.9025,4.845,4.707,4.6586,4.6816,4.638,4.6449,4.6793,4.5944,4.5553,4.5438,4.3969,4.328,4.3211,4.3211,0.0,4.328,4.3739,4.4245,4.4773,4.4773,4.5025,4.553,4.5507,4.5484,4.5415,4.4617,4.3892,4.3258,4.1723,4.0729,4.0132,3.8913,3.8025,3.7522,3.75,3.7719,3.8157,3.8853,3.9382,3.9938,4.08,4.1238,4.1022,4.1445,4.1153,4.0054,4.0146,4.0209,4.0239,3.9382,3.8944,3.8969,0.0,0.0,0.0,0.0,0.0,0.0,0.0,0.0,0.0,0.0,0.0,0.0,0.0,0.0,0.0,4.3172,0.0,4.4719,4.4773,0.0,0.0,0.0,4.6265,4.7486,4.811,4.8815,4.9956,0.0,0.0,5.2642,5.3293,5.37,5.3809,5.4297,5.503,5.6142,5.6359,5.6577,5.7119,5.7174,5.6984,5.6458,5.6323,5.616,5.5699,5.5294,5.5158,5.5185,5.5344,5.5435,5.5526,5.5889,5.6144,5.617,5.609,5.585,5.4901,5.456,5.472,5.5199,5.5099,5.5248,5.0732,4.9947,4.9577,4.846,4.6862,4.6747,4.677,4.6862,4.6632,4.6587,4.6472,4.5737,4.4979,4.4245,4.4245,4.4451,4.4886,4.4933,4.5461,4.6311,4.6334,4.6403,4.6495,4.6127,4.5944,4.5898,4.5347,4.4502,4.3326,4.2922,4.1981,4.0535,4.0141,3.9459,3.8353,3.8309,3.8498,3.8831,3.928,3.9931,4.09,4.1167,4.1238,4.0999,4.0917,4.0745,4.0523,4.0001,4.034,4.1504,4.0455,3.9956,4.0337,4.0164,0.0,0.0,0.0,0.0,0.0,0.0,0.0,0.0,0.0,4.198,4.1882,0.0,4.3199,0.0,4.404,4.4719,4.5316,4.537,0.0,0.0,4.7622,4.8083,4.925,4.9901,5.039,5.0661,5.1611,5.2561,5.3293,5.389,5.4623,5.5518,5.5762,5.598,5.6278,5.6712,5.7011,5.7146,5.7174,5.7119,5.6984,5.6984,5.6902,5.6794,5.6675,5.6638,5.6611,5.6719,5.6763,5.679,5.6871,5.6915,5.6915,5.6915,5.6834,5.6563,5.6095,5.5732,5.5892,5.6172,5.6505,5.1681,5.0839,5.0839,4.9827,4.8194,4.7964,4.7757,4.7528,4.7321,4.7206,4.7183,4.6701,4.6012,4.5324,4.5507,4.576,4.6105,4.6105,4.6403,4.6862,4.6932,4.6932,4.6862,4.6586,4.6334,4.6104,4.5829,4.498,4.3547,4.3369,4.258,4.1167,4.0953,4.0684,4.027,3.9735,3.9338,3.9075,3.9356,4.0038,4.1211,4.1271,4.1306,4.1489,4.1317,4.125,4.1305,4.0735,4.1039,4.2359,4.1435,4.1081,4.1569,4.1634,4.1368,0.0,0.0,0.0,0.0,0.0,0.0,0.0,0.0,0.0,0.0,0.0,4.442,4.4936,4.5288,4.5831,4.6699,4.6781,4.7161,4.8083,4.8192,4.8544,4.9521,5.0146,5.0607,5.0878,5.1964,5.294,5.3537,5.4351,5.5247,5.6197,5.6522,5.6685,5.6712,5.6984,5.7174,5.7174,5.7174,5.7174,5.7174,5.7174,5.7174,5.7174,5.7174,5.7174,5.7174,5.7174,5.7174,5.7174,5.7174,5.7174,5.7174,5.7174,5.7174,5.7109,5.685,5.6655,5.659,5.6727,5.6982,5.2277,5.1449,5.1449,5.092,4.9962,4.9502,4.8997,4.8446,4.7964,4.7712,4.7548,4.7229,4.6747,4.6265,4.6747,4.6977,4.6977,4.6977,4.7,4.7069,4.7069,4.7069,4.7069,4.7,4.6701,4.6242,4.615,4.5324,4.3831,4.3547,4.2938,4.2006,4.1772,4.201,4.2563,4.1688,4.0666,3.9491,3.9533,4.0118,4.1172,4.123,4.1516,4.2029,4.2012,4.2022,4.2073,4.1685,4.1904,4.2951,4.2396,4.2294,4.2683,4.2991,4.2841,0.0,4.2722,0.0,0.0,0.0,0.0,0.0,0.0,0.0,0.0,4.4765,4.5505,4.6618,4.6699,4.7106,4.8083,4.8192,4.8246,4.8381,4.8408,4.8679,4.933,4.9928,5.0444,5.096,5.2018,5.294,5.3537,5.465,5.5627,5.6224,5.6794,5.7119,5.7174,5.7174,5.7174,5.7174,5.7174,5.7174,5.7174,5.7174,5.7174,5.7174,5.7174,5.7174,5.7174,5.7174,5.7174,5.7174,5.7174,5.7174,5.7174,5.7119,5.7038,5.7011,5.7011,5.7,5.7109,5.705,5.7204,5.3072,5.2395,5.2319,5.1635,5.049,5.0375,4.9824,4.8928,4.8469,4.801,4.7594,4.7964,4.7597,4.6793,4.7275,4.7434,4.7482,4.7505,4.7712,4.8102,4.8102,4.8102,4.8079,4.7689,4.7229,4.6724,4.6311,4.5324,4.3808,4.4178,4.3814,4.2917,4.3479,4.3859,4.4012,0.0,0.0,0.0,4.1152,4.1115,4.1196,4.1459,4.1745,4.2086,4.1892,0.0,4.2103,4.2062,4.2413,4.3274,4.3438,0.0,0.0,0.0,0.0,0.0,0.0,0.0,0.0,0.0,0.0,0.0,4.6125,4.6261,4.5472,4.629,4.7161,4.7839,4.7866,4.7948,4.8164,4.8192,4.8571,4.9549,4.9657,5.0091,5.115,5.1394,5.1471,5.1638,5.2262,5.2913,5.351,5.465,5.56,5.6115,5.6794,5.7146,5.7119,5.7119,5.7174,5.7174,5.7119,5.7146,5.7174,5.7146,5.7065,5.7174,5.7174,5.7174,5.7146,5.7174,5.7174,5.7174,5.7174,5.7174,5.7174,5.6794,5.6522,5.6468,5.6468,5.6604,5.7092,5.7553,5.7895,5.3143,5.2612,5.2383,5.1785,0.0,5.0742,5.0191,4.9479,4.8974,4.8331,4.7617,4.8171,4.7964,4.7275,4.778,4.801,4.801,4.801,4.8148,4.8377,4.8377,4.8377,4.8377,4.8125,4.762,4.6862,4.6609,4.5691,4.429,4.4474,4.4354,4.3724,4.4217,4.4669,4.5254,4.58,4.5207,4.3422,4.2413,4.2055,4.2274,4.2095,4.2174,4.2538,4.2157,0.0,0.0,0.0,0.0,0.0,0.0,0.0,0.0,4.4493,0.0,4.4251,4.4803,4.5306,4.5759,4.624,4.6591,4.6889,4.7731,4.7866,4.6971,4.7459,4.8056,4.8571,4.8625,4.8734,4.9032,4.9114,4.9359,4.9928,5.001,5.0281,5.0797,5.0932,5.0932,5.0987,5.1448,5.2045,5.2642,5.3483,5.4297,5.4867,5.522,5.5464,5.5545,5.6468,5.7092,5.6794,5.6468,5.6305,5.6305,5.6305,5.6332,5.6332,5.6549,5.6739,5.6739,5.6984,5.7174,5.7174,5.7174,5.7174,5.7174,5.6929,5.6658,5.6387,5.6305,5.6251,5.6387,5.7011,5.7716,5.2992,5.2588,5.2154,5.1793,5.1385,5.0949,5.0444,4.987,4.925,0.0,0.0,4.8171,4.8102,4.7617,4.8171,4.8377,4.8377,4.8377,4.8377,4.8377,4.8377,4.8377,4.8377,4.8377,4.7849,4.6908,4.6932,4.6104,4.4658,4.4771,4.4741,4.4542,4.4785,4.5455,4.6394,4.652,4.6178,4.532,4.36,4.2913,4.3358,4.2868,4.2706,4.2986,4.259,4.2473,4.2747,4.2585,4.2855,4.3508,4.3856,4.4251,4.4696,4.5018,4.5287,4.5502,4.5902,4.649,4.727,4.7568,4.792,4.8463,4.9006,4.9088,4.8381,4.8435,4.8707,4.925,4.9277,4.9549,5.0118,5.0146,5.02,5.0308,5.0227,5.0173,5.0173,5.0064,5.0064,5.0064,5.058,5.1068,5.1638,5.2343,5.2886,5.3347,5.37,5.3673,5.3972,5.5437,5.6441,5.617,5.5817,5.5464,5.5437,5.5491,5.541,5.5518,5.5871,5.6115,5.6224,5.6631,5.6984,5.6984,5.7092,5.7174,5.7174,5.7038,5.6875,5.6387,5.6197,5.6007,5.5627,5.617,5.7011,5.2992,5.2612,5.2154,5.1793,5.1431,5.1339,5.0765,4.9847,4.8905,4.8171,4.7594,4.8171,4.8125,4.7594,4.8171,4.8377,4.8377,4.8377,4.8377,4.8377,4.8377,4.8377,4.8377,4.8377,4.7849,4.6931,4.6932,4.6081,4.4796,4.5386,4.5451,4.5256,4.6381,4.7196,4.7482,4.7351,4.6996,4.6365,4.4744,4.3796,4.3382,4.3094,4.2905,4.2986,4.2942,4.3028,4.328,4.3504,4.3778,4.4129,4.4455,4.4643,4.4722,4.5018,4.5234,4.5314,4.6223,4.6867,4.6975,4.8136,4.9142,4.9711,5.0099,4.9937,4.9087,4.9494,4.9793,4.9901,4.9847,5.0118,5.0688,5.0743,5.0932,5.1421,5.1068,5.077,5.0743,5.0308,5.001,5.001,5.0525,5.0905,5.115,5.1964,5.2588,5.2859,5.2995,5.3646,5.4053,5.4623,5.5057,5.541,5.5491,5.541,5.5274,5.5383,5.5301,5.541,5.5437,5.5545,5.5545,5.6034,5.6414,5.6441,5.6821,5.7119,5.7146,5.6766,5.6522,5.6305,5.5952,5.5545,5.5383,5.5573,5.5898,5.2764,5.2535,5.1947,5.1562,5.1385,5.0834,5.0168,4.9434,4.8722,4.8263,4.8079,4.8286,4.8263,4.8079,4.8286,4.8377,4.8377,4.8377,4.8377,4.8377,4.8377,4.8377,4.8354,4.8102,4.7597,4.6885,4.6586,4.5967,4.5185,4.5638,4.5885,4.5899,4.7112,4.7678,4.7537,4.7455,4.7097,4.6434,4.511,4.4286,4.4011,4.3357,4.2986,4.2986,4.3129,4.3295,4.3381,4.3874,4.4148,4.4313,4.4559,4.4694,4.4748,4.5018,4.542,4.59,4.6517,4.7217,4.8055,4.9003,4.9795,5.0235,5.0431,5.0378,5.0077,5.0351,5.0404,5.0319,5.0263,5.0451,5.0824,5.0905,5.115,5.1715,5.1258,5.0905,5.0851,5.039,5.001,5.001,5.0254,5.0525,5.0878,5.1095,5.1394,5.1638,5.1774,5.2045,5.294,5.3076,5.351,5.4596,5.465,5.446,5.446,5.4433,5.4433,5.4406,5.4704,5.4867,5.4948,5.541,5.5871,5.6251,5.6549,5.6821,5.7065,5.6984,5.6685,5.6278,5.5817,5.5383,5.503,5.4921,5.5138,5.2612,5.2535,5.1716,5.1339,5.1156,5.0168,4.9479,4.9066,4.8607,4.8377,4.8377,4.8377,4.8377,4.8377,4.8377,4.8377,4.8377,4.8377,4.8377,4.8377,4.8377,4.8377,4.8331,4.7872,4.7367,4.6862,4.638,4.5875,4.5484,4.5754,4.616,4.6674,4.763,4.7881,4.7394,4.7495,4.7097,4.6326,4.5321,4.4769,4.4593,4.3664,4.3168,4.3098,4.327,4.3462,4.3628,4.4197,4.4442,4.4367,4.4689,4.4824,4.4748,4.5204,4.5792,4.6489,4.7054,4.7974,4.9167,4.9739,5.015,5.0459,5.0543,5.0711,5.0962,5.1072,5.0962,5.0655,5.0487,5.0676,5.1159,5.118,5.1394,5.2072,5.1557,5.115,5.1068,5.0471,5.001,5.001,5.001,5.0254,5.0661,5.0498,5.0498,5.0797,5.0498,5.0688,5.1584,5.1909,5.2696,5.3673,5.389,5.37,5.3592,5.3646,5.3592,5.3456,5.3754,5.3972,5.4134,5.4569,5.5193,5.5681,5.6142,5.6468,5.6875,5.7092,5.6956,5.6604,5.6088,5.541,5.4704,5.4379,5.4487,5.2612,5.2459,5.1716,5.1133,5.0582,4.9617,4.9158,4.9043,4.8607,4.8377,4.8377,4.8377,4.8377,4.8377,4.8377,4.8377,4.8377,4.8377,4.8377,4.8377,4.8377,4.8377,4.8331,4.7872,4.7367,4.6839,4.6334,4.5829,4.5438,4.5754,4.6405,4.7364,4.8182,4.8164,4.7494,4.7683,4.7319,4.6326,4.5723,4.5146,4.4618,4.4041,4.3601,4.3351,4.3406,4.3683,4.4226,4.4804,4.4996,4.4718,4.519,4.5297,4.4879,4.5764,4.6408,4.6595,4.8026,4.9194,4.9847,4.9956,5.015,5.0515,5.0767,5.1017,5.1321,5.1596,5.1458,5.0962,5.0655,5.098,5.1963,5.184,5.2072,5.2995,5.2262,5.1747,5.1584,5.0715,5.001,5.001,5.0037,5.0254,5.0824,5.0878,5.0824,5.0878,5.0797,5.096,5.1692,5.2262,5.2778,5.3483,5.3619,5.3592,5.3592,5.3592,5.3402,5.2995,5.2859,5.2995,5.313,5.3402,5.3972,5.4731,5.5464,5.6034,5.6414,5.6766,5.7092,5.6848,5.6414,5.5844,5.4786,5.4216,5.4189,5.2612,5.2489,5.137,5.049,4.9709,4.9273,4.8951,4.8676,4.8469,4.8377,4.8377,4.8377,4.8377,4.8377,4.8377,4.8377,4.8377,4.8377,4.8377,4.8377,4.8377,4.824,4.7918,4.7436,4.6908,4.6426,4.5921,4.5576,4.5529,4.5957,4.663,4.7497,4.8248,4.8164,4.7469,4.7721,4.738,4.6351,4.61,4.5698,4.5146,4.4593,4.4281,4.4421,4.4566,4.4848,4.5266,4.5723,4.5891,4.5767,4.5689,4.5718,4.5962,4.6323,4.689,4.775,4.8946,4.9739,4.9983,5.0206,5.0431,5.0711,5.1045,5.1321,5.1568,5.1732,5.1677,5.1458,5.1017,5.1012,5.1637,5.1459,5.1747,5.2642,5.1991,5.1421,5.1715,5.0743,5.001,5.001,5.0335,5.0743,5.1285,5.1448,5.1285,5.1014,5.0905,5.1177,5.1688,5.2343,5.294,5.3429,5.3592,5.3592,5.3592,5.3592,5.332,5.2886,5.2723,5.2669,5.2316,5.2343,5.2832,5.3754,5.4406,5.5084,5.5681,5.5898,5.6197,5.6359,5.6549,5.6034,5.5193,5.484,5.484,5.2612,5.2342,5.1,4.9916,4.9112,4.8951,4.8722,4.84,4.8377,4.8377,4.8377,4.8377,4.8377,4.8377,4.8377,4.8377,4.8377,4.8377,4.8377,4.8377,4.8377,4.8125,4.7548,4.7115,4.6539,4.5989,4.5485,4.5233,4.5278,4.5822,4.6473,4.7232,4.7918,4.797,4.7368,4.762,4.7257,4.6426,4.6326,4.61,4.5723,4.5296,4.512,4.5247,4.5451,4.5794,4.6134,4.6517,4.663,4.6473,4.6238,4.6297,4.6869,4.699,4.7615,4.8915,4.9653,5.001,5.001,5.0319,5.0599,5.0906,5.1211,5.1514,5.1732,5.1787,5.1787,5.1732,5.1348,5.1182,5.1565,5.1277,5.1483,5.2353,5.156,5.1122,5.1421,5.0607,5.0091,5.0254,5.0634,5.1204,5.1855,5.1909,5.1638,5.1285,5.1177,5.1258,5.1828,5.2452,5.3158,5.3537,5.3592,5.3592,5.3592,5.3402,5.313,5.2642,5.2343,5.1964,5.1638,5.1584,5.1801,5.275,5.3103,5.3537,5.4243,5.4623,5.5111,5.5627,5.5898,5.5898,5.5437,5.5383,5.5383,5.2612,5.2295,5.0631,4.9617,4.9066,4.863,4.8423,4.8377,4.8377,4.8377,4.8377,4.8377,4.8377,4.8377,4.8377,4.8377,4.8377,4.8377,4.8377,4.8377,4.8377,4.8125,4.7548,4.7115,4.6469,4.5641,4.5119,4.4869,4.4869,4.5187,4.5731,4.6473,4.7232,4.7361,4.7013,4.7332,4.7035,4.6366,4.6326,4.6301,4.625,4.6225,4.5969,4.5655,4.5591,4.5954,4.6465,4.7022,4.7074,4.6525,4.6944,4.711,4.7054,4.7761,4.8744,4.9761,4.9983,5.001,5.001,5.0319,5.0599,5.0906,5.1266,5.1541,5.1732,5.1787,5.1787,5.1787,5.1541,5.1599,5.2017,5.1622,5.1582,5.2099,5.1459,5.099,5.096,5.0525,5.0335,5.0688,5.0905,5.1394,5.2425,5.2154,5.1801,5.1665,5.1719,5.1774,5.1878,5.2805,5.3368,5.3504,5.3531,5.3592,5.3537,5.3212,5.2642,5.2126,5.1692,5.1068,5.0987,5.1014,5.1394,5.1774,5.2262,5.2642,5.2886,5.332,5.3917,5.4514,5.5274,5.5355,5.5437,5.5464,5.56,5.2311,5.1105,4.991,4.9112,4.8653,4.8469,4.8377,4.8377,4.8377,4.8377,4.8377,4.8377,4.8377,4.8377,4.8377,4.8377,4.8377,4.8377,4.8377,4.8377,4.8377,4.8125,4.762,4.7115,4.6469,4.5641,4.505,4.48,4.4869,4.5119,4.5663,4.6405,4.7098,4.7295,4.6998,4.7244,4.7035,4.6366,4.6326,4.6326,4.6326,4.6326,4.6279,4.6399,4.6524,4.6908,4.7571,4.778,4.778,4.7571,4.744,4.7643,4.8258,4.9013,4.9567,4.9926,5.001,5.001,5.0066,5.046,5.0795,5.0906,5.1348,5.1706,5.1787,5.1787,5.1787,5.1787,5.176,5.1791,5.1793,5.1461,5.1261,5.15,5.1085,5.0696,5.0827,5.0715,5.0688,5.0905,5.1204,5.1719,5.1882,5.1611,5.1258,5.1258,5.1557,5.1715,5.1959,5.268,5.3234,5.3288,5.3288,5.3315,5.3288,5.2983,5.2506,5.1936,5.1394,5.0824,5.0553,5.0417,5.0688,5.1095,5.1557,5.1774,5.1991,5.2506,5.3022,5.3347,5.4107,5.5084,5.541,5.5681,5.6142,5.2009,5.0467,4.9614,4.891,4.8423,4.8377,4.8377,4.8377,4.8377,4.8377,4.8377,4.8377,4.8377,4.8377,4.8377,4.8377,4.8377,4.8377,4.8377,4.8377,4.8377,4.8125,4.762,4.7115,4.6399,4.5409,4.4635,4.4319,4.4457,4.48,4.5324,4.6069,4.6741,4.6968,4.6719,4.7016,4.6849,4.6284,4.6266,4.6326,4.6326,4.6326,4.6446,4.678,4.7053,4.7442,4.7997,4.8114,4.8172,4.812,4.7806,4.8069,4.9014,4.967,5.001,5.001,5.001,5.001,5.0066,5.046,5.0795,5.0906,5.1348,5.1677,5.1787,5.1787,5.1787,5.1706,5.176,5.1787,5.1623,5.1348,5.1183,5.1206,5.079,5.0539,5.061,5.0607,5.0688,5.0932,5.1421,5.1715,5.1688,5.1169,5.0841,5.0733,5.108,5.1211,5.1314,5.1868,5.2466,5.26,5.2627,5.26,5.2493,5.2218,5.2166,5.1684,5.0898,5.0414,5.017,5.0008,5.0062,5.0471,5.0715,5.0878,5.1204,5.1747,5.2045,5.2235,5.3347,5.4514,5.5193,5.6061,5.6414,5.1679,5.0546,4.9932,4.9179,4.8496,4.84,4.8377,4.8377,4.8377,4.8377,4.8377,4.8377,4.8377,4.8377,4.8377,4.8377,4.8377,4.8377,4.8377,4.8377,4.8377,4.8125,4.7643,4.7115,4.619,4.497,4.3801,4.3441,4.3836,4.4181,4.4663,4.5392,4.6069,4.6286,4.5934,4.6524,4.6537,4.6066,4.612,4.6326,4.6326,4.6326,4.6446,4.6721,4.7053,4.7324,4.7677,4.7997,4.8172,4.8172,4.8172,4.8463,4.9041,4.9613,5.001,4.9953,5.001,5.001,5.001,5.0319,5.0655,5.085,5.1211,5.1486,5.1623,5.1677,5.1623,5.1486,5.1596,5.1706,5.1486,5.1596,5.1541,5.1045,5.0711,5.0486,5.0177,5.0064,5.0254,5.0851,5.1336,5.1715,5.1548,5.0914,5.0363,5.0305,5.0323,5.0228,5.0367,5.0783,5.1236,5.1603,5.1762,5.1762,5.1549,5.1343,5.146,5.1377,5.0513,4.9864,4.9808,4.9727,4.9783,5.0111,5.0281,5.0444,5.0471,5.096,5.1041,5.1421,5.2723,5.3754,5.4433,5.5193,5.6278,5.1455,5.0642,4.964,4.9047,4.8763,4.8546,4.8377,4.84,4.8377,4.8377,4.8377,4.8377,4.8377,4.8377,4.8377,4.8377,4.8377,4.8377,4.8377,4.8377,4.8377,4.8125,4.762,4.7115,4.6077,4.4656,4.3855,4.358,4.3719,4.3836,4.4319,4.5187,4.5528,4.5732,4.5942,4.6333,4.6287,4.5906,4.612,4.6301,4.6326,4.6326,4.6386,4.6481,4.6934,4.7265,4.7383,4.788,4.8172,4.8172,4.8172,4.8373,4.8837,4.9412,4.9727,4.9727,4.9897,5.001,5.001,5.0319,5.0487,5.0655,5.0934,5.1072,5.1183,5.1183,5.1183,5.1072,5.1321,5.1514,5.1431,5.1651,5.1623,5.1266,5.0989,5.0655,5.043,5.0449,5.0661,5.0851,5.0922,5.0752,5.0371,4.9818,4.9645,4.9614,4.9796,4.9951,4.9999,5.0141,5.0559,5.0823,5.085,5.085,5.0691,5.0539,5.051,5.0479,4.9952,4.9583,4.9526,4.9526,4.9556,4.967,4.984,4.998,5.0008,5.0173,5.0335,5.0634,5.1665,5.2506,5.3239,5.427,5.5464,5.151,5.0841,4.9839,4.934,4.9196,4.8763,4.8618,4.8618,4.8473,4.8377,4.8377,4.8377,4.8377,4.8377,4.8377,4.8377,4.8377,4.8377,4.8377,4.8377,4.8377,4.8125,4.7502,4.6767,4.5709,4.4476,4.3927,4.365,4.3511,4.365,4.4112,4.48,4.5187,4.5471,4.5793,4.6046,4.6109,4.597,4.6038,4.618,4.6266,4.6326,4.6326,4.6361,4.6874,4.7205,4.7265,4.7821,4.8172,4.823,4.8315,4.8489,4.8748,4.9125,4.9412,4.9442,4.9583,4.967,4.984,5.001,5.0263,5.0515,5.0655,5.0795,5.085,5.0906,5.0906,5.0962,5.1211,5.1404,5.1459,5.1651,5.1677,5.1596,5.1266,5.0934,5.0598,5.0506,5.0468,5.0381,5.0236,4.9932,4.9519,4.9183,4.8952,4.9032,4.9128,4.9308,4.9388,4.9423,4.9627,4.9804,4.9909,4.9883,4.9883,4.9739,4.9626,4.9478,4.9249,4.9236,4.924,4.924,4.9297,4.9442,4.9556,4.9727,4.9837,4.998,5.0146,5.0525,5.0821,5.1747,5.2723,5.3673,5.4813,5.1728,5.0866,5.0318,4.989,4.9509,4.9196,4.898,4.8931,4.8618,4.8473,4.84,4.8377,4.8377,4.8377,4.8377,4.8377,4.8377,4.8377,4.8377,4.8377,4.8286,4.7964,4.725,4.6215,4.5277,4.4478,4.3997,4.358,4.3372,4.3511,4.3927,4.4411,4.4914,4.5341,4.554,4.5811,4.5972,4.5968,4.5932,4.6099,4.6266,4.6326,4.6326,4.6361,4.6874,4.7205,4.7383,4.7821,4.8172,4.8257,4.8431,4.8489,4.8663,4.8895,4.8926,4.901,4.9068,4.927,4.9499,4.967,4.9867,5.0263,5.0431,5.0599,5.0739,5.0739,5.0739,5.0739,5.1045,5.1294,5.1321,5.1541,5.1623,5.1677,5.1376,5.1045,5.0543,5.0234,5.0005,4.9751,4.9583,4.9469,4.9125,4.8837,4.8663,4.8548,4.8426,4.8335,4.8244,4.8427,4.8479,4.8688,4.8864,4.8949,4.8923,4.893,4.8819,4.889,4.8711,4.8716,4.8895,4.8952,4.8895,4.9041,4.927,4.9442,4.9556,4.967,4.9783,4.9916,5.0513,5.139,5.2203,5.3004,5.4012,5.1658,5.077,5.0318,5.0033,4.989,4.9532,4.9245,4.9003,4.8931,4.8691,4.8473,4.8377,4.84,4.8377,4.8377,4.8377,4.8377,4.8377,4.8377,4.8331,4.7987,4.7321,4.6564,4.5829,4.5165,4.4663,4.425,4.3905,4.358,4.3441,4.3719,4.4273,4.4526,4.4823,4.5213,4.5775,4.5918,4.5827,4.6205,4.6312,4.6291,4.6326,4.6446,4.6686,4.6993,4.7324,4.7501,4.7762,4.7938,4.8172,4.7997,4.7997,4.7997,4.8055,4.823,4.8463,4.8637,4.8868,4.9183,4.9442,4.967,4.981,5.0093,5.0206,5.0235,5.0235,5.0235,5.0292,5.0543,5.0738,5.0767,5.0989,5.1128,5.1128,5.1017,5.0739,5.0292,5.0066,4.9897,4.964,4.9412,4.9125,4.8779,4.8521,4.823,4.8055,4.788,4.7762,4.7703,4.7586,4.78,4.763,4.7759,4.7877,4.7969,4.8028,4.8094,4.8303,4.8198,4.8081,4.8347,4.8606,4.8548,4.8521,4.8811,4.8983,4.9156,4.927,4.9328,4.9442,4.971,5.0332,5.1164,5.2051,5.3059,5.1658,5.072,5.0459,5.0317,5.0317,4.9961,4.9604,4.9484,4.9245,4.898,4.8691,4.8618,4.8546,4.8377,4.8377,4.8377,4.8377,4.8377,4.8263,4.7941,4.7321,4.6678,4.6104,4.5599,4.5142,4.48,4.4594,4.4319,4.3997,4.3719,4.3997,4.4388,4.4526,4.4846,4.5427,4.57,4.5841,4.5827,4.614,4.6303,4.6109,4.6266,4.6361,4.6601,4.6874,4.7172,4.7468,4.7501,4.7645,4.7821,4.7703,4.7501,4.7527,4.7501,4.7619,4.7938,4.8172,4.8405,4.8895,4.924,4.9469,4.964,4.984,4.9953,5.001,4.9897,4.984,5.001,5.0206,5.0319,5.0487,5.0628,5.0683,5.0572,5.0404,5.0235,5.001,4.9897,4.9613,4.9297,4.9068,4.8779,4.8373,4.8114,4.788,4.7619,4.7501,4.7383,4.7265,4.7205,4.7146,4.7146,4.7146,4.7401,4.7486,4.7545,4.7604,4.7729,4.7821,4.7703,4.7762,4.8055,4.7997,4.8055,4.8347,4.8521,4.8637,4.8811,4.8983,4.9041,4.9068,4.9387,5.0383,5.1216,5.2218,5.1658,5.0696,5.0696,5.0696,5.0625,5.0317,5.0104,5.0033,4.9747,4.9389,4.9124,4.898,4.8763,4.845,4.8473,4.8377,4.8377,4.8286,4.7872,4.7344,4.6655,4.6127,4.5944,4.5553,4.5233,4.4937,4.4869,4.4594,4.4319,4.4273,4.448,4.4663,4.4732,4.5142,4.5615,4.5759,4.5817,4.5942,4.6221,4.6254,4.6127,4.622,4.6361,4.6481,4.678,4.6993,4.7172,4.7205,4.729,4.7586,4.7324,4.7146,4.7146,4.7146,4.7265,4.7501,4.7645,4.7938,4.8489,4.8837,4.9183,4.9385,4.967,4.9897,4.9783,4.9613,4.964,4.9783,4.9897,4.9953,5.0179,5.0292,5.0179,4.9953,4.967,4.967,4.9727,4.967,4.9354,4.8779,4.869,4.8315,4.788,4.7645,4.7527,4.7231,4.7172,4.7053,4.6993,4.6849,4.6934,4.6934,4.6968,4.7087,4.7172,4.7172,4.7172,4.7205,4.7383,4.7324,4.7231,4.7349,4.7383,4.7501,4.7762,4.7938,4.8055,4.8289,4.8521,4.8579,4.8463,4.9038,4.9775,5.0552,5.1469,5.1658,5.0696,5.0696,5.0696,5.0696,5.0625,5.0388,5.0104,5.0033,4.9747,4.9389,4.9124,4.898,4.8835,4.8546,4.8377,4.8286,4.7941,4.7321,4.6472,4.6288,4.5875,4.5622,4.5461,4.537,4.521,4.4937,4.48,4.4663,4.4548,4.448,4.48,4.4869,4.5006,4.546,4.6019,4.6115,4.6144,4.6518,4.6636,4.6402,4.637,4.6471,4.6626,4.69,4.7112,4.7146,4.6993,4.69,4.6959,4.6985,4.6951,4.684,4.6661,4.6721,4.7019,4.7231,4.7501,4.7938,4.8516,4.8806,4.9006,4.9347,4.927,4.9297,4.9267,4.9267,4.9297,4.927,4.9412,4.9499,4.9412,4.9412,4.9354,4.924,4.9098,4.9068,4.9125,4.8895,4.8489,4.8257,4.8055,4.7383,4.7324,4.7172,4.6959,4.684,4.678,4.6661,4.6576,4.6636,4.6695,4.6695,4.6755,4.6815,4.6874,4.6874,4.6874,4.6993,4.6968,4.6874,4.6874,4.6993,4.7053,4.7172,4.7349,4.7468,4.7527,4.7677,4.7736,4.788,4.8342,4.8944,4.9785,5.0518,5.1658,5.072,5.0696,5.0696,5.0696,5.0696,5.0554,5.0412,5.0412,5.0175,4.9818,4.9532,4.934,4.9003,4.8763,4.8503,4.7895,4.7252,4.6655,4.615,4.5898,4.5599,4.5507,4.5438,4.5438,4.537,4.521,4.5074,4.5006,4.496,4.4937,4.5074,4.5074,4.521,4.5415,4.6092,4.6123,4.6162,4.6827,4.7115,4.6785,4.6734,4.6587,4.6632,4.6743,4.6894,4.6859,4.7075,4.6928,4.6839,4.6859,4.6819,4.6591,4.6421,4.6481,4.6806,4.7053,4.7324,4.7762,4.8551,4.9086,4.9059,4.959,4.968,4.9573,4.9409,4.9133,4.8974,4.8952,4.8952,4.9068,4.8952,4.8952,4.8895,4.8779,4.8548,4.8373,4.8489,4.8548,4.8055,4.7821,4.7527,4.7231,4.7053,4.6874,4.6661,4.6601,4.6481,4.6481,4.6421,4.6361,4.6421,4.6361,4.6421,4.6541,4.6541,4.6541,4.6541,4.6601,4.6601,4.6541,4.6601,4.6721,4.678,4.6815,4.6874,4.6993,4.6934,4.7027,4.7324,4.7552,4.7648,4.8102,4.8937,4.962,5.1706,5.0816,5.0744,5.0696,5.0696,5.0696,5.0696,5.0696,5.0696,5.0483,5.0246,5.0104,4.9675,4.9245,4.8864,4.8323,4.7369,4.6678,4.615,4.5898,4.5599,4.5507,4.5438,4.5438,4.5438,4.5438,4.537,4.537,4.537,4.5438,4.5301,4.5347,4.537,4.537,4.5551,4.5934,4.6174,4.6064,4.6834,4.7326,4.6988,4.6997,4.6809,4.6634,4.6661,4.6737,4.6811,4.6997,4.7122,4.6724,4.6934,4.6756,4.6552,4.6326,4.6461,4.6847,4.7138,4.7513,4.8076,4.8871,4.9462,4.9581,5.0155,5.0327,5.0008,4.9567,4.9212,4.8922,4.8737,4.8663,4.8895,4.8721,4.8606,4.8548,4.8373,4.8055,4.7821,4.7938,4.7821,4.7586,4.7349,4.7112,4.69,4.6721,4.6541,4.6361,4.6301,4.6326,4.6326,4.6326,4.6326,4.6326,4.6326,4.6326,4.6361,4.6421,4.6386,4.6361,4.6361,4.6361,4.6301,4.6421,4.6481,4.6421,4.6421,4.6541,4.6601,4.6661,4.6815,4.7027,4.7172,4.7274,4.7658,4.817,4.8798,5.1922,5.1321,5.0888,5.0696,5.0696,5.0696,5.0696,5.0696,5.0696,5.0625,5.0554,5.0246,5.0033,4.9629,4.8683,4.7629,4.6749,4.6219,4.5875,4.5599,4.5461,4.5438,4.5438,4.5438,4.5438,4.5438,4.5438,4.5438,4.5438,4.5438,4.5438,4.5438,4.5438,4.5438,4.5506,4.5822,4.6113,4.6237,4.6771,4.7029,4.7158,4.7101,4.6958,4.681,4.6833,4.6869,4.6869,4.6942,4.7069,4.7221,4.6886,4.6847,4.6831,4.6566,4.6688,4.701,4.7379,4.787,4.8531,4.9092,4.9559,4.9766,5.0131,5.0131,4.9868,4.9527,4.9239,4.8865,4.8524,4.8289,4.8373,4.8373,4.8315,4.823,4.823,4.8055,4.7736,4.7501,4.7349,4.7078,4.69,4.678,4.6601,4.6506,4.6421,4.6361,4.6301,4.6326,4.6326,4.6326,4.6326,4.6326,4.6326,4.6326,4.6301,4.6301,4.6326,4.6326,4.6301,4.6301,4.6301,4.6301,4.6301,4.618,4.624,4.6361,4.6421,4.6421,4.6481,4.6636,4.678,4.684,4.7281,4.7714,4.8544,5.197,5.1441,5.0912,5.0696,5.0696,5.0696,5.0696,5.0696,5.0696,5.0696,5.0625,5.0459,5.0079,4.9629,4.9109,4.7913,4.6704,4.608,4.5804,4.5438,4.5438,4.5438,4.5438,4.5438,4.5438,4.5438,4.5438,4.5438,4.5438,4.5438,4.5438,4.5438,4.5438,4.5438,4.5506,4.5754,4.6025,4.6402,4.6836,4.722,4.7499,4.7424,4.7209,4.7013,4.7032,4.7027,4.7076,4.7369,4.736,4.7332,4.7442,4.7358,4.7246,4.7207,4.7129,4.7266,4.7688,4.8222,4.8887,4.9461,5.0062,5.0333,5.0577,5.0603,5.0315,4.9871,4.927,4.8695,4.846,4.8172,4.823,4.8172,4.8172,4.8172,4.8172,4.7938,4.756,4.7324,4.6993,4.6661,4.6541,4.6481,4.6421,4.6326,4.6326,4.6326,4.6326,4.6326,4.6326,4.6326,4.6326,4.6326,4.6326,4.6326,4.6326,4.6326,4.6326,4.6326,4.6326,4.6326,4.624,4.624,4.612,4.5999,4.612,4.618,4.6301,4.6301,4.6301,4.624,4.6421,4.6591,4.6844,4.7344,4.8161,5.2043,5.161,5.096,5.0696,5.0696,5.0696,5.0696,5.0696,5.0696,5.0696,5.0696,5.0551,5.0052,4.9483,4.8916,4.8118,4.6654,4.6188,4.5868,4.5574,4.5574,4.5506,4.5438,4.5438,4.5438,4.5438,4.5438,4.5438,4.5438,4.5438,4.5438,4.5438,4.5438,4.5438,4.5506,4.5619,4.6025,4.6429,4.6898,4.7431,4.7773,4.7743,4.7458,4.7091,4.7175,4.7264,4.7288,4.7555,4.7644,4.7637,4.774,4.799,4.7706,4.7921,4.7883,4.7606,4.8131,4.8644,4.926,4.9852,5.0447,5.0783,5.1273,5.1282,5.0917,5.0211,4.9401,4.846,4.8172,4.8172,4.8172,4.8172,4.8172,4.8172,4.8172,4.7997,4.7501,4.7146,4.6934,4.6601,4.6361,4.6326,4.6326,4.6326,4.6326,4.6326,4.6326,4.6326,4.6326,4.6326,4.6326,4.6326,4.6326,4.6326,4.6326,4.6326,4.6326,4.6326,4.6266,4.6266,4.618,4.612,4.5999,4.5757,4.5817,4.5878,4.6059,4.612,4.5939,4.5878,4.612,4.6255,4.6441,4.7115,4.8005,5.2235,5.2091,5.1129,5.0696,5.0696,5.0696,5.0696,5.0696,5.0696,5.0696,5.06,5.0215,4.995,4.9475,4.8434,4.7427,4.6732,4.6432,4.6136,4.589,4.5822,4.5686,4.5438,4.5438,4.5438,4.5438,4.5438,4.5438,4.5438,4.5438,4.5438,4.5438,4.5438,4.5438,4.5438,4.5483,4.5619,4.5934,4.6338,4.6874,4.7407,4.7533,4.7437,4.7413,4.7437,4.7461,4.7437,4.7581,4.7599,4.7814,4.7791,4.7957,4.8203,4.8496,4.8661,4.8611,4.8749,4.9141,4.9787,5.0294,5.0661,5.1012,5.1356,5.1481,5.1047,5.0368,4.9427,4.8329,4.8172,4.8172,4.8172,4.8172,4.8172,4.8172,4.8172,4.7821,4.7383,4.7205,4.6934,4.6541,4.6301,4.6326,4.6326,4.6326,4.6326,4.6326,4.6326,4.6326,4.6326,4.6326,4.6326,4.6326,4.6326,4.6326,4.6326,4.6326,4.624,4.624,4.6205,4.6145,4.5939,4.5817,4.5635,4.5514,4.5514,4.5453,4.5453,4.5453,4.5392,4.5574,4.5757,4.5817,4.5903,4.6784,4.7795,5.2283,5.2187,5.1153,5.0696,5.0696,5.0696,5.0696,5.0696,5.0696,5.0527,5.0239,4.9998,4.9565,4.894,4.7945,4.7337,4.6855,4.6764,4.6563,4.6294,4.616,4.6025,4.5754,4.5686,4.5619,4.5438,4.5438,4.5438,4.5438,4.5438,4.5438,4.5438,4.5438,4.5438,4.5438,4.5438,4.5619,4.589,4.6204,4.6674,4.7032,4.7232,4.7298,4.7497,4.7497,4.7497,4.7497,4.7497,4.7563,4.7738,4.7758,4.8036,4.8426,4.8814,4.9046,4.9238,4.9238,4.9556,5.0053,5.0423,5.0741,5.1057,5.1294,5.1309,5.076,5.0185,4.9401,4.8277,4.8172,4.8172,4.8172,4.8172,4.8172,4.8172,4.8172,4.7762,4.7383,4.7265,4.7027,4.6636,4.6326,4.6326,4.6326,4.6326,4.6326,4.6326,4.6326,4.6326,4.6326,4.6326,4.6326,4.6326,4.6326,4.6326,4.6326,4.6326,4.612,4.6059,4.5939,4.5878,4.5635,4.5453,4.5331,4.5147,4.5086,4.4963,4.484,4.5025,4.5208,4.5331,4.5392,4.5514,4.571,4.6774,4.7896,5.2091,5.1994,5.1081,5.0696,5.0696,5.0696,5.0696,5.0696,5.0527,5.0239,4.9948,4.9635,4.8916,4.8195,4.7738,4.7346,4.7098,4.7098,4.6898,4.6697,4.6496,4.6362,4.616,4.6025,4.589,4.5551,4.5551,4.5483,4.5438,4.5438,4.5438,4.5438,4.5438,4.5438,4.5438,4.5438,4.5551,4.589,4.6136,4.6496,4.6898,4.7032,4.7232,4.7364,4.7497,4.7497,4.7497,4.7497,4.7497,4.7563,4.7804,4.815,4.8592,4.8868,4.9192,4.945,4.9515,4.9668,4.9912,5.0232,5.0614,5.0968,5.1294,5.1256,5.042,5.0002,4.9557,4.8538,4.825,4.8224,4.8172,4.8172,4.8172,4.8172,4.8172,4.7762,4.7383,4.7265,4.6968,4.6541,4.6326,4.6326,4.6326,4.6326,4.6326,4.6326,4.6326,4.6326,4.6326,4.6326,4.6326,4.6326,4.6326,4.6301,4.624,4.618,4.6059,4.5817,4.5757,4.5574,4.527,4.5147,4.5025,4.4902,4.4717,4.4656,4.4532,4.484,4.5086,4.5025,4.5025,4.5208,4.5662,4.6762,4.7968,5.1537,5.1489,5.0936,5.0696,5.0696,5.0696,5.0696,5.0648,5.0167,4.9902,4.9589,4.8868,4.8147,4.769,4.7569,4.7497,4.7431,4.7431,4.7232,4.7032,4.6898,4.6697,4.6496,4.6338,4.6204,4.589,4.589,4.5686,4.5483,4.5551,4.5506,4.5438,4.5438,4.5438,4.5438,4.5438,4.5551,4.5822,4.5957,4.6362,4.6764,4.6965,4.7165,4.7431,4.7497,4.7497,4.7497,4.7497,4.7497,4.7497,4.7762,4.8182,4.8576,4.8837,4.9162,4.9525,4.959,4.9654,4.9783,5.004,5.0295,5.0715,5.1105,5.1335,5.0655,5.0132,4.961,4.8982,4.8486,4.8198,4.8172,4.8172,4.8172,4.8172,4.8114,4.7795,4.7442,4.7265,4.6993,4.6481,4.6326,4.6326,4.6326,4.6326,4.6326,4.6326,4.6326,4.6326,4.6326,4.6326,4.6326,4.6326,4.6326,4.624,4.624,4.6059,4.5878,4.5574,4.5453,4.5208,4.4902,4.4779,4.4717,4.4594,4.447,4.4347,4.4347,4.4532,4.4656,4.4532,4.4618,4.4938,4.5588,4.6586,4.7986,5.1321,5.0984,5.0768,5.0696,5.0696,5.0696,5.0696,5.06,5.0095,4.9445,4.8868,4.8122,4.769,4.7545,4.7497,4.7497,4.7497,4.7497,4.7364,4.7364,4.7232,4.7098,4.6898,4.6697,4.6563,4.6294,4.6227,4.6204,4.6092,4.5957,4.6025,4.5957,4.5619,4.5438,4.5438,4.5438,4.5506,4.5619,4.5822,4.616,4.6563,4.6898,4.7165,4.7431,4.7497,4.7497,4.7497,4.7497,4.7497,4.7497,4.763,4.805,4.851,4.8772,4.9097,4.9525,4.959,4.959,4.9654,4.9937,5.0359,5.0867,5.1257,5.1387,5.0864,5.0263,4.9688,4.9113,4.859,4.8277,4.8172,4.8172,4.8172,4.8172,4.8055,4.7736,4.7501,4.7265,4.6934,4.6421,4.6301,4.6326,4.6326,4.6326,4.6326,4.6326,4.6326,4.6326,4.6326,4.6326,4.6326,4.624,4.624,4.612,4.6059,4.5878,4.5635,4.5392,4.5147,4.484,4.4594,4.4532,4.447,4.4347,4.4285,4.4285,4.4285,4.4285,4.4347,4.4347,4.4553,4.4846,4.5657,4.6483,4.7878,5.1032,5.072,5.0696,5.0696,5.0696,5.0696,5.0696,5.0576,4.9926,4.9036,4.805,4.7642,4.7497,4.7497,4.7497,4.7497,4.7497,4.7497,4.7497,4.7497,4.7431,4.7364,4.7232,4.7098,4.6965,4.6697,4.6563,4.6563,4.6338,4.6405,4.6338,4.6204,4.5957,4.5754,4.5551,4.5551,4.5551,4.5754,4.589,4.6227,4.663,4.6831,4.7165,4.7431,4.7497,4.7497,4.7497,4.7497,4.7497,4.7563,4.7696,4.796,4.8379,4.8772,4.9007,4.9396,4.959,4.959,4.9654,4.9937,5.0359,5.0804,5.1246,5.12,5.0933,5.0498,5.0028,4.9427,4.8826,4.8407,4.8303,4.8172,4.8172,4.8172,4.7997,4.7762,4.7409,4.7112,4.6755,4.6361,4.6301,4.6326,4.6326,4.6326,4.6326,4.6326,4.6326,4.6326,4.6326,4.6326,4.6326,4.624,4.618,4.5999,4.5817,4.5514,4.527,4.5086,4.484,4.4594,4.4409,4.4347,4.4285,4.4285,4.4285,4.4285,4.4285,4.4285,4.4285,4.4285,4.4553,4.4736,4.561,4.6485,4.7653,5.072,5.0696,5.0696,5.0696,5.0696,5.0696,5.0696,5.0576,4.9662,4.8676,4.7858,4.7642,4.7642,4.7642,4.769,4.7642,4.7593,4.7545,4.7497,4.7497,4.7497,4.7497,4.7431,4.7364,4.7232,4.7032,4.6965,4.6831,4.6473,4.6607,4.654,4.6473,4.6429,4.616,4.5957,4.589,4.6092,4.6271,4.6338,4.663,4.6831,4.7032,4.7232,4.7431,4.7497,4.7497,4.7497,4.7497,4.7497,4.763,4.7828,4.8158,4.8641,4.8877,4.9202,4.9525,4.959,4.959,4.959,4.9937,5.0232,5.0614,5.0994,5.1231,5.1315,5.1021,5.0498,4.9897,4.9374,4.8852,4.8512,4.825,4.8303,4.8218,4.8068,4.7703,4.7349,4.6993,4.6661,4.6361,4.6301,4.6326,4.6326,4.6326,4.6326,4.6326,4.6326,4.6326,4.6326,4.6326,4.6326,4.618,4.612,4.5878,4.5635,4.5147,4.484,4.4717,4.4594,4.4409,4.4347,4.4347,4.4285,4.4285,4.4285,4.4285,4.4285,4.4285,4.4285,4.4285,4.4285,4.4611,4.5507,4.6344,4.7361,5.1025,5.1025,5.0767,5.0696,5.0696,5.0696,5.0696,5.0576,4.9926,4.9205,4.8652,4.8531,4.8531,4.8459,4.8147,4.7978,4.7954,4.7569,4.7497,4.7497,4.7497,4.7497,4.7497,4.7497,4.7431,4.7364,4.7298,4.7232,4.7165,4.7032,4.7098,4.7098,4.6831,4.6563,4.6338,4.6204,4.6294,4.6429,4.663,4.6898,4.7055,4.7165,4.7364,4.7497,4.7497,4.7497,4.7497,4.7497,4.7563,4.7762,4.796,4.8289,4.8772,4.9137,4.9267,4.9525,4.959,4.959,4.959,4.9719,4.9912,5.0295,5.0741,5.112,5.1168,5.0976,5.0707,5.042,4.9949,4.9505,4.9374,4.8956,4.8852,4.8636,4.8354,4.7722,4.7265,4.6959,4.6686,4.6446,4.6326,4.6351,4.6376,4.6502,4.6527,4.6577,4.6602,4.6451,4.6426,4.6351,4.6326,4.6205,4.6059,4.5757,4.5453,4.5049,4.468,4.4532,4.447,4.4347,4.4285,4.4285,4.4285,4.4285,4.4285,4.4285,4.4285,4.4285,4.4285,4.4285,4.4381,4.4741,4.5637,4.6215,4.6745,5.1376,5.1376,5.1025,5.0908,5.0837,5.0767,5.06,5.0383,5.0022,4.9565,4.9133,4.906,4.906,4.8892,4.8579,4.8291,4.8219,4.7738,4.7497,4.7497,4.7497,4.7497,4.7497,4.7497,4.7497,4.7497,4.7497,4.7431,4.7431,4.7497,4.7431,4.7364,4.7298,4.7032,4.6831,4.6697,4.6697,4.6831,4.7098,4.7165,4.7232,4.7364,4.7497,4.7497,4.7497,4.7497,4.7497,4.7563,4.763,4.796,4.8223,4.8486,4.8942,4.9267,4.9396,4.9525,4.959,4.959,4.959,4.959,4.9783,4.9912,5.055,5.0931,5.1094,5.1122,5.0959,5.0707,5.0394,5.0132,4.9897,4.9479,4.9374,4.9158,4.8669,4.806,4.7539,4.7316,4.6828,4.6562,4.6426,4.6451,4.6577,4.6677,4.6803,4.6853,4.6903,4.6778,4.6677,4.6677,4.6642,4.652,4.6287,4.592,4.554,4.4999,4.4667,4.4347,4.4285,4.4285,4.4285,4.4285,4.4285,4.4309,4.4333,4.4333,4.4309,4.4309,4.4429,4.4487,4.452,4.5038,4.575,4.6182,4.6525,5.182,5.1751,5.1376,5.1211,5.1165,5.0908,5.0478,5.002,4.9926,4.9662,4.9205,4.9277,4.9277,4.906,4.8579,4.8339,4.8195,4.7738,4.7545,4.7497,4.7497,4.7497,4.7497,4.7497,4.7497,4.7497,4.7497,4.7497,4.7497,4.7497,4.7497,4.7497,4.7431,4.7364,4.7232,4.7165,4.7098,4.7232,4.7364,4.7364,4.7431,4.7431,4.7497,4.7497,4.7497,4.7497,4.7497,4.7563,4.7762,4.8092,4.8445,4.8747,4.9072,4.9396,4.9525,4.959,4.959,4.959,4.959,4.959,4.959,4.9783,5.0232,5.0677,5.1031,5.1268,5.122,5.1073,5.0838,5.0472,5.0159,5.0054,4.9923,4.9603,4.9186,4.8634,4.8119,4.7602,4.7086,4.6803,4.6677,4.6728,4.7054,4.7205,4.7255,4.7405,4.7506,4.7606,4.7506,4.7456,4.7394,4.7208,4.6861,4.6266,4.5746,4.5178,4.4822,4.4597,4.4333,4.4285,4.4285,4.4357,4.4405,4.4429,4.4429,4.4477,4.4741,4.4789,4.4655,4.4736,4.4833,4.5231,4.5916,4.6066,4.6472,5.2238,5.2169,5.1796,5.1656,5.1586,5.1541,5.1093,5.055,5.0455,5.0359,5.0239,5.0239,4.9902,4.9614,4.9084,4.8652,4.8195,4.781,4.7569,4.7497,4.7497,4.7497,4.7497,4.7497,4.7497,4.7497,4.7497,4.7497,4.7497,4.7497,4.7497,4.7497,4.7497,4.7497,4.7431,4.7364,4.7431,4.7431,4.7497,4.7497,4.7497,4.7497,4.7497,4.7497,4.7497,4.7497,4.7563,4.7762,4.796,4.8445,4.8747,4.9072,4.9461,4.9525,4.959,4.959,4.959,4.959,4.959,4.959,4.959,4.9654,5.004,5.0359,5.0804,5.1131,5.1429,5.1335,5.1256,5.0969,5.0786,5.0681,5.0551,5.0288,4.979,4.9112,4.8646,4.8125,4.7543,4.7305,4.7179,4.7305,4.7606,4.7707,4.7782,4.7983,4.8134,4.8259,4.8309,4.8234,4.8058,4.787,4.7332,4.6707,4.6134,4.5561,4.5218,4.4837,4.4669,4.4501,4.4477,4.4549,4.4573,4.4693,4.4909,4.5173,4.5525,4.5326,4.4968,4.5134,4.529,4.564,4.5966,4.6114,4.6262,5.2585,5.2515,5.2144,5.196,5.182,5.182,5.1541,5.1119,5.0954,5.0908,5.086,5.0502,5.0191,4.9758,4.9084,4.8555,4.8243,4.7762,4.7497,4.7497,4.7497,4.7497,4.7497,4.7497,4.7497,4.7497,4.7497,4.7497,4.7497,4.7497,4.7497,4.7497,4.7497,4.7497,4.7497,4.7497,4.7497,4.7497,4.7497,4.7497,4.7497,4.7497,4.7497,4.7497,4.7497,4.7563,4.7696,4.796,4.8223,4.8706,4.9072,4.9267,4.9525,4.959,4.959,4.959,4.959,4.959,4.959,4.959,4.959,4.9654,4.9937,5.0168,5.055,5.0905,5.1283,5.1481,5.157,5.1544,5.1439,5.1335,5.1204,5.11,5.0318,4.96,4.9073,4.8635,4.8296,4.797,4.7908,4.7983,4.8109,4.8209,4.8385,4.8711,4.8887,4.8962,4.8987,4.8912,4.8696,4.848,4.7799,4.7184,4.6543,4.603,4.5661,4.5429,4.5293,4.5125,4.4909,4.4957,4.5197,4.5453,4.5645,4.5774,4.5854,4.5589,4.5324,4.5444,4.5507,4.5606,4.5861,4.6115,4.6261,5.2861,5.2861,5.2585,5.2238,5.196,5.196,5.189,5.1796,5.1516,5.1257,5.1066,5.0374,5.0038,4.9673,4.8884,4.845,4.8093,4.7732,4.7497,4.7497,4.7497,4.7497,4.7497,4.7497,4.7497,4.7497,4.7497,4.7497,4.7497,4.7497,4.7497,4.7497,4.7497,4.7497,4.7497,4.7497,4.7497,4.7497,4.7497,4.7497,4.7497,4.7497,4.7497,4.7497,4.7563,4.7696,4.7894,4.8158,4.842,4.8877,4.9202,4.9332,4.9461,4.959,4.959,4.959,4.959,4.959,4.959,4.959,4.959,4.9654,4.9873,5.0065,5.0359,5.0804,5.1246,5.1408,5.1471,5.1596,5.1518,5.1492,5.1413,5.12,5.0669,5.015,4.9771,4.9317,4.8838,4.856,4.851,4.8611,4.8736,4.8837,4.8862,4.9314,4.9439,4.949,4.9464,4.9414,4.9132,4.8849,4.8343,4.766,4.7086,4.6544,4.6167,4.5958,4.5886,4.5742,4.5414,4.5669,4.5958,4.6102,4.6223,4.6029,4.5947,4.5758,4.5704,4.554,4.5575,4.5448,4.5678,4.5929,4.5999,5.2861,5.2861,5.2792,5.2723,5.2654,5.2654,5.2654,5.2585,5.2283,5.1713,5.1068,5.0803,5.0177,4.9401,4.8907,4.8476,4.8046,4.7841,4.7521,4.7563,4.7563,4.7563,4.7497,4.7497,4.7497,4.7497,4.7497,4.7497,4.7497,4.7497,4.7497,4.7497,4.7497,4.7497,4.7497,4.7497,4.7497,4.7497,4.7497,4.7497,4.7497,4.7497,4.7497,4.7563,4.7696,4.7894,4.8158,4.8641,4.8812,4.9137,4.9396,4.9525,4.959,4.9615,4.9615,4.959,4.959,4.959,4.959,4.959,4.959,4.959,4.9719,4.9847,5.0168,5.0741,5.112,5.122,5.1408,5.1534,5.1596,5.1596,5.1534,5.1283,5.1031,5.065,5.0358,4.9825,4.9328,4.9213,4.9138,4.9188,4.9314,4.9389,4.9464,4.9515,4.954,4.9565,4.9565,4.945,4.9192,4.8933,4.8698,4.811,4.753,4.7075,4.6631,4.6415,4.6295,4.615,4.6006,4.6271,4.6535,4.668,4.671,4.649,4.6323,4.6295,4.617,4.5812,4.5611,4.5478,4.5457,4.564,4.5663,5.2861,5.2861,5.2861,5.2861,5.2861,5.2861,5.2861,5.2861,5.2723,5.2067,5.1123,5.0796,5.0149,4.9271,4.8876,4.868,4.8272,4.8116,4.805,4.7984,4.7762,4.7762,4.7696,4.763,4.7497,4.7497,4.7497,4.7497,4.7497,4.7497,4.7497,4.7497,4.7497,4.7497,4.7497,4.7497,4.7497,4.7497,4.7497,4.7497,4.7497,4.7497,4.763,4.7696,4.7894,4.8158,4.8649,4.9116,4.942,4.9766,5.0177,5.0102,5.0117,5.0017,4.9841,4.969,4.959,4.959,4.9615,4.964,4.964,4.964,4.959,4.9783,4.9847,5.0359,5.0804,5.0994,5.1408,5.1596,5.1596,5.1596,5.1596,5.1408,5.0968,5.0537,5.013,4.9721,4.9464,4.9439,4.9389,4.9414,4.949,4.949,4.9565,4.9565,4.959,4.9615,4.9615,4.959,4.9267,4.8967,4.8772,4.8445,4.7839,4.7454,4.7112,4.692,4.6704,4.6752,4.6776,4.692,4.7088,4.7112,4.7053,4.6817,4.6693,4.6496,4.6092,4.5638,4.5481,4.5392,4.5438,4.5438,4.5438,5.2861,5.2861,5.2861,5.2861,5.2861,5.2861,5.2861,5.2861,5.2861,5.2352,5.1481,5.0702,4.9963,4.9372,4.8887,4.8739,4.86,4.8445,4.851,4.8445,4.8182,4.8116,4.796,4.7828,4.7762,4.763,4.763,4.7563,4.7497,4.7497,4.7497,4.7497,4.7497,4.7497,4.7497,4.7497,4.7497,4.7497,4.7563,4.7563,4.7563,4.7563,4.7762,4.7894,4.8158,4.8486,4.9091,4.9626,5.0056,5.0438,5.077,5.067,5.0469,5.0268,4.9967,4.9766,4.9791,4.9791,4.9791,4.9816,4.9791,4.9741,4.9665,4.9615,4.9769,5.0102,5.0551,5.0933,5.135,5.1586,5.1586,5.1648,5.1648,5.1523,5.0956,5.0385,5.0026,4.9705,4.964,4.9665,4.9715,4.9715,4.9741,4.9741,4.9766,4.9741,4.9665,4.964,4.9615,4.959,4.9396,4.9097,4.8837,4.851,4.8026,4.7714,4.7329,4.7305,4.7136,4.7353,4.7473,4.7353,4.7305,4.7401,4.7274,4.7032,4.6697,4.6338,4.589,4.5551,4.5438,4.5438,4.5438,4.5438,4.5438,5.2861,5.2861,5.2861,5.2861,5.2861,5.2861,5.2861,5.2861,5.2861,5.2553,5.1883,5.1306,5.0572,4.9506,4.9147,4.9007,4.8967,4.8837,4.8666,4.851,4.851,4.851,4.8445,4.8248,4.8182,4.8026,4.7894,4.7762,4.7762,4.763,4.7497,4.7563,4.7563,4.7563,4.7497,4.7563,4.763,4.7696,4.7828,4.7918,4.7894,4.7894,4.7894,4.8158,4.8551,4.8877,4.9287,4.9881,5.0212,5.0528,5.0971,5.0971,5.082,5.0594,5.0318,5.0117,5.0117,5.0243,5.0268,5.0268,5.0268,5.0243,5.0117,4.9816,5.0071,5.0428,5.0752,5.0971,5.1319,5.1569,5.158,5.1706,5.1769,5.158,5.1111,5.0499,5.001,4.9881,4.9816,4.9967,5.0092,5.0167,5.0293,5.0368,5.0544,5.0469,5.0268,5.0193,4.9916,4.9766,4.964,4.9342,4.9041,4.851,4.8026,4.7696,4.7449,4.7473,4.7497,4.7497,4.7497,4.7497,4.7497,4.7497,4.7364,4.7098,4.6741,4.6204,4.589,4.5551,4.5506,4.5438,4.5438,4.5438,4.5438]}]]